[[{"header":{"parameterUnit":"m.s-1","parameterCategory":1,"la1":30.6,"la2":28.766,"lo1":-90.7593,"lo2":-88.6598,"dy":0.0162,"dx":0.0183,"nx":116,"ny":114,"refTime":"2024-05-07T00:00:00:Z","depth":0,"parameterNumber":2,"parameterNumberName":"U-component_of_WINDS"},"data":[0.0,0.0,0.0,0.0,0.0,0.0,0.0,0.0,0.0,0.0,0.0,0.0,0.0,0.0,0.0,0.0,0.0,0.0,0.0,0.0,0.0,0.0,0.0,0.0,0.0,0.0,0.0,0.0,0.0,0.0,0.0,0.0,0.0,0.0,0.0,0.0,0.0,0.0,0.0,0.0,0.0,0.0,0.0,0.0,0.0,0.0,0.0,0.0,0.0,0.0,0.0,0.0,0.0,0.0,0.0,0.0,0.0,0.0,0.0,0.0,0.0,0.0,0.0,0.0,0.0,0.0,0.0,0.0,0.0,0.0,0.0,0.0,0.0,0.0,0.0,0.0,0.0,0.0,0.0,0.0,0.0,0.0,0.0,0.0,0.0,0.0,0.0,0.0,0.0,0.0,0.0,0.0,0.0,0.0,0.0,0.0,0.0,0.0,0.0,0.0,0.0,0.0,0.0,0.0,0.0,0.0,0.0,0.0,0.0,0.0,0.0,0.0,0.0,0.0,0.0,0.0,0.0,0.0,0.0,0.0,0.0,0.0,0.0,0.0,0.0,0.0,0.0,0.0,0.0,0.0,0.0,0.0,0.0,0.0,0.0,0.0,0.0,0.0,0.0,0.0,0.0,0.0,0.0,0.0,0.0,0.0,0.0,0.0,0.0,0.0,0.0,0.0,0.0,0.0,0.0,0.0,0.0,0.0,0.0,0.0,0.0,0.0,0.0,0.0,0.0,0.0,0.0,0.0,0.0,0.0,0.0,0.0,0.0,0.0,0.0,0.0,0.0,0.0,0.0,0.0,0.0,0.0,0.0,0.0,0.0,0.0,0.0,0.0,0.0,0.0,0.0,0.0,0.0,0.0,0.0,0.0,0.0,0.0,0.0,0.0,0.0,0.0,0.0,0.0,0.0,0.0,0.0,0.0,0.0,0.0,0.0,0.0,0.0,0.0,0.0,0.0,0.0,0.0,0.0,0.0,0.0,0.0,0.0,0.0,0.0,0.0,0.0,0.0,0.0,0.0,0.0,0.0,0.0,0.0,0.0,0.0,0.0,0.0,0.0,0.0,0.0,0.0,0.0,0.0,0.0,0.0,0.0,0.0,0.0,0.0,0.0,0.0,0.0,0.0,0.0,0.0,0.0,0.0,0.0,0.0,0.0,0.0,0.0,0.0,0.0,0.0,0.0,0.0,0.0,0.0,0.0,0.0,0.0,0.0,0.0,0.0,0.0,0.0,0.0,0.0,0.0,0.0,0.0,0.0,0.0,0.0,0.0,0.0,0.0,0.0,0.0,0.0,0.0,0.0,0.0,0.0,0.0,0.0,0.0,0.0,0.0,0.0,0.0,0.0,0.0,0.0,0.0,0.0,0.0,0.0,0.0,0.0,0.0,0.0,0.0,0.0,0.0,0.0,0.0,0.0,0.0,0.0,0.0,0.0,0.0,0.0,0.0,0.0,0.0,0.0,0.0,0.0,0.0,0.0,0.0,0.0,0.0,0.0,0.0,0.0,0.0,0.0,0.0,0.0,0.0,0.0,0.0,0.0,0.0,0.0,0.0,0.0,0.0,0.0,0.0,0.0,0.0,0.0,0.0,0.0,0.0,0.0,0.0,0.0,0.0,0.0,0.0,0.0,0.0,0.0,0.0,0.0,0.0,0.0,0.0,0.0,0.0,0.0,0.0,0.0,0.0,0.0,0.0,0.0,0.0,0.0,0.0,0.0,0.0,0.0,0.0,0.0,0.0,0.0,0.0,0.0,0.0,0.0,0.0,0.0,0.0,0.0,0.0,0.0,0.0,0.0,0.0,0.0,0.0,0.0,0.0,0.0,0.0,0.0,0.0,0.0,0.0,0.0,0.0,0.0,0.0,0.0,0.0,0.0,0.0,0.0,0.0,0.0,0.0,0.0,0.0,0.0,0.0,0.0,0.0,0.0,0.0,0.0,0.0,0.0,0.0,0.0,0.0,0.0,0.0,0.0,0.0,0.0,0.0,0.0,0.0,0.0,0.0,0.0,0.0,0.0,0.0,0.0,0.0,0.0,0.0,0.0,0.0,0.0,0.0,0.0,0.0,0.0,0.0,0.0,0.0,0.0,0.0,0.0,0.0,0.0,0.0,0.0,0.0,0.0,0.0,0.0,0.0,0.0,0.0,0.0,0.0,0.0,0.0,0.0,0.0,0.0,0.0,0.0,0.0,0.0,0.0,0.0,0.0,0.0,0.0,0.0,0.0,0.0,0.0,0.0,0.0,0.0,0.0,0.0,0.0,0.0,0.0,0.0,0.0,0.0,0.0,0.0,0.0,0.0,0.0,0.0,0.0,0.0,0.0,0.0,0.0,0.0,0.0,0.0,0.0,0.0,0.0,0.0,0.0,0.0,0.0,0.0,0.0,0.0,0.0,0.0,0.0,0.0,0.0,0.0,0.0,0.0,0.0,0.0,0.0,0.0,0.0,0.0,0.0,0.0,0.0,0.0,0.0,0.0,0.0,0.0,0.0,0.0,0.0,0.0,0.0,0.0,0.0,0.0,0.0,0.0,0.0,0.0,0.0,0.0,0.0,0.0,0.0,0.0,0.0,0.0,0.0,0.0,0.0,0.0,0.0,0.0,0.0,0.0,0.0,0.0,0.0,0.0,0.0,0.0,0.0,0.0,0.0,0.0,0.0,0.0,0.0,0.0,0.0,0.0,0.0,0.0,0.0,0.0,0.0,0.0,0.0,0.0,0.0,0.0,0.0,0.0,0.0,0.0,0.0,0.0,0.0,0.0,0.0,0.0,0.0,0.0,0.0,0.0,0.0,0.0,0.0,0.0,0.0,0.0,0.0,0.0,0.0,0.0,0.0,0.0,0.0,0.0,0.0,0.0,0.0,0.0,0.0,0.0,0.0,0.0,0.0,0.0,0.0,0.0,0.0,0.0,0.0,0.0,0.0,0.0,0.0,0.0,0.0,0.0,0.0,0.0,0.0,0.0,0.0,0.0,0.0,0.0,0.0,0.0,0.0,0.0,0.0,0.0,0.0,0.0,0.0,0.0,0.0,0.0,0.0,0.0,0.0,0.0,0.0,0.0,0.0,0.0,0.0,0.0,0.0,0.0,0.0,0.0,0.0,0.0,0.0,0.0,0.0,0.0,0.0,0.0,0.0,0.0,0.0,0.0,0.0,0.0,0.0,0.0,0.0,0.0,0.0,0.0,0.0,0.0,0.0,0.0,0.0,0.0,0.0,0.0,0.0,0.0,0.0,0.0,0.0,0.0,0.0,0.0,0.0,0.0,0.0,0.0,0.0,0.0,0.0,0.0,0.0,0.0,0.0,0.0,0.0,0.0,0.0,0.0,0.0,0.0,0.0,0.0,0.0,0.0,0.0,0.0,0.0,0.0,0.0,0.0,0.0,0.0,0.0,0.0,0.0,0.0,0.0,0.0,0.0,0.0,0.0,0.0,0.0,0.0,0.0,0.0,0.0,0.0,0.0,0.0,0.0,0.0,0.0,0.0,0.0,0.0,0.0,0.0,0.0,0.0,0.0,0.0,0.0,0.0,0.0,0.0,0.0,0.0,0.0,0.0,0.0,0.0,0.0,0.0,0.0,0.0,0.0,0.0,0.0,0.0,0.0,0.0,0.0,0.0,0.0,0.0,0.0,0.0,0.0,0.0,0.0,0.0,0.0,0.0,0.0,0.0,0.0,0.0,0.0,0.0,0.0,0.0,0.0,0.0,0.0,0.0,0.0,0.0,0.0,0.0,0.0,0.0,0.0,0.0,0.0,0.0,0.0,0.0,0.0,0.0,0.0,0.0,0.0,0.0,0.0,0.0,0.0,0.0,0.0,0.0,0.0,0.0,0.0,0.0,0.0,0.0,0.0,0.0,0.0,0.0,0.0,0.0,0.0,0.0,0.0,0.0,0.0,0.0,0.0,0.0,0.0,0.0,0.0,0.0,0.0,0.0,0.0,0.0,0.0,0.0,0.0,0.0,0.0,0.0,0.0,0.0,0.0,0.0,0.0,0.0,0.0,0.0,0.0,0.0,0.0,0.0,0.0,0.0,0.0,0.0,0.0,0.0,0.0,0.0,0.0,0.0,0.0,0.0,0.0,0.0,0.0,0.0,0.0,0.0,0.0,0.0,0.0,0.0,0.0,0.0,0.0,0.0,0.0,0.0,0.0,0.0,0.0,0.0,0.0,0.0,0.0,0.0,0.0,0.0,0.0,0.0,0.0,0.0,0.0,0.0,0.0,0.0,0.0,0.0,0.0,0.0,0.0,0.0,0.0,0.0,0.0,0.0,0.0,0.0,0.0,0.0,0.0,0.0,0.0,0.0,0.0,0.0,0.0,0.0,0.0,0.0,0.0,0.0,0.0,0.0,0.0,0.0,0.0,0.0,0.0,0.0,0.0,0.0,0.0,0.0,0.0,0.0,0.0,0.0,0.0,0.0,0.0,0.0,0.0,0.0,0.0,0.0,0.0,0.0,0.0,0.0,0.0,0.0,0.0,0.0,0.0,0.0,0.0,0.0,0.0,0.0,0.0,0.0,0.0,0.0,0.0,0.0,0.0,0.0,0.0,0.0,0.0,0.0,0.0,0.0,0.0,0.0,0.0,0.0,0.0,0.0,0.0,0.0,0.0,0.0,0.0,0.0,0.0,0.0,0.0,0.0,0.0,0.0,0.0,0.0,0.0,0.0,0.0,0.0,0.0,0.0,0.0,0.0,0.0,0.0,0.0,0.0,0.0,0.0,0.0,0.0,0.0,0.0,0.0,0.0,0.0,0.0,0.0,0.0,0.0,0.0,0.0,0.0,0.0,0.0,0.0,0.0,0.0,0.0,0.0,0.0,0.0,0.0,0.0,0.0,0.0,0.0,0.0,0.0,0.0,0.0,0.0,0.0,0.0,0.0,0.0,0.0,0.0,0.0,0.0,0.0,0.0,0.0,0.0,0.0,0.0,0.0,0.0,0.0,0.0,0.0,0.0,0.0,0.0,0.0,0.0,0.0,0.0,0.0,0.0,0.0,0.0,0.0,0.0,0.0,0.0,0.0,0.0,0.0,0.0,0.0,0.0,0.0,0.0,0.0,0.0,0.0,0.0,0.0,0.0,0.0,0.0,0.0,0.0,0.0,0.0,0.0,0.0,0.0,0.0,0.0,0.0,0.0,0.0,0.0,0.0,0.0,0.0,0.0,0.0,0.0,0.0,0.0,0.0,0.0,0.0,0.0,0.0,0.0,0.0,0.0,0.0,0.0,0.0,0.0,0.0,0.0,0.0,0.0,0.0,0.0,0.0,0.0,0.0,0.0,0.0,0.0,0.0,0.0,0.0,0.0,0.0,0.0,0.0,0.0,0.0,0.0,0.0,0.0,0.0,0.0,0.0,0.0,0.0,0.0,0.0,0.0,0.0,0.0,0.0,0.0,0.0,0.0,0.0,0.0,0.0,0.0,0.0,0.0,0.0,0.0,0.0,0.0,0.0,0.0,0.0,0.0,0.0,0.0,0.0,0.0,0.0,0.0,0.0,0.0,0.0,0.0,0.0,0.0,0.0,0.0,0.0,0.0,0.0,0.0,0.0,0.0,0.0,0.0,0.0,0.0,0.0,0.0,0.0,0.0,0.0,0.0,0.0,0.0,0.0,0.0,0.0,0.0,0.0,0.0,0.0,0.0,0.0,0.0,0.0,0.0,0.0,0.0,0.0,0.0,0.0,0.0,0.0,0.0,0.0,0.0,0.0,0.0,0.0,0.0,0.0,0.0,0.0,0.0,0.0,0.0,0.0,0.0,0.0,0.0,0.0,0.0,0.0,0.0,0.0,0.0,0.0,0.0,0.0,0.0,0.0,0.0,0.0,0.0,0.0,0.0,0.0,0.0,0.0,0.0,0.0,0.0,0.0,0.0,0.0,0.0,0.0,0.0,0.0,0.0,0.0,0.0,0.0,0.0,0.0,0.0,0.0,0.0,0.0,0.0,0.0,0.0,0.0,0.0,0.0,0.0,0.0,0.0,0.0,0.0,0.0,0.0,0.0,0.0,0.0,0.0,0.0,0.0,0.0,0.0,0.0,0.0,0.0,0.0,0.0,0.0,0.0,0.0,0.0,0.0,0.0,0.0,0.0,0.0,0.0,0.0,3.4073,3.4394,0.0,0.0,0.0,0.0,0.0,0.0,0.0,0.0,0.0,0.0,0.0,0.0,0.0,0.0,0.0,0.0,0.0,0.0,0.0,0.0,0.0,0.0,0.0,3.5399,3.5488,3.5688,3.5704,3.5721,3.5744,0.0,0.0,0.0,0.0,0.0,3.5952,3.5923,3.5904,3.5904,3.5827,3.5757,3.5638,3.5268,3.4851,3.4371,0.0,0.0,0.0,0.0,0.0,0.0,0.0,0.0,0.0,0.0,0.0,0.0,0.0,0.0,0.0,0.0,0.0,0.0,0.0,0.0,0.0,0.0,0.0,0.0,0.0,0.0,0.0,0.0,0.0,0.0,0.0,0.0,0.0,0.0,0.0,0.0,0.0,0.0,0.0,0.0,0.0,0.0,0.0,0.0,0.0,0.0,0.0,0.0,0.0,0.0,0.0,0.0,0.0,0.0,0.0,0.0,0.0,0.0,0.0,0.0,0.0,0.0,0.0,0.0,0.0,0.0,0.0,0.0,0.0,0.0,3.0951,3.3266,0.0,0.0,0.0,0.0,0.0,0.0,0.0,0.0,0.0,0.0,0.0,0.0,0.0,0.0,0.0,0.0,0.0,0.0,0.0,0.0,0.0,3.5081,3.5155,3.5146,3.5178,3.5331,3.5405,3.5456,3.5494,3.5553,3.5651,3.5764,3.5712,3.5761,3.5884,3.5882,3.5884,3.5829,3.5786,3.5716,3.5631,3.5326,3.4857,3.4311,3.3732,0.0,0.0,0.0,0.0,0.0,0.0,0.0,0.0,0.0,0.0,0.0,0.0,0.0,0.0,0.0,0.0,0.0,0.0,0.0,0.0,0.0,0.0,0.0,0.0,0.0,0.0,0.0,0.0,0.0,0.0,0.0,0.0,0.0,0.0,0.0,0.0,0.0,0.0,0.0,0.0,0.0,0.0,0.0,0.0,0.0,0.0,0.0,0.0,0.0,0.0,0.0,0.0,0.0,0.0,0.0,0.0,0.0,0.0,0.0,0.0,0.0,0.0,0.0,1.8461,1.8535,1.911,1.9303,2.0845,2.3586,2.6845,3.0741,3.4744,3.4315,0.0,0.0,0.0,0.0,0.0,0.0,0.0,0.0,0.0,0.0,0.0,0.0,0.0,0.0,0.0,0.0,0.0,0.0,0.0,3.4464,3.46,3.4499,3.4523,3.4698,3.4986,3.5124,3.5076,3.5341,3.5543,3.5627,3.5662,3.5747,3.5812,3.5864,3.5783,3.5558,3.5595,3.5682,3.5764,3.5546,3.5251,3.4864,3.4381,3.388,3.3372,0.0,0.0,0.0,0.0,0.0,0.0,0.0,0.0,0.0,0.0,0.0,0.0,0.0,0.0,0.0,0.0,0.0,0.0,0.0,0.0,0.0,0.0,0.0,0.0,0.0,0.0,0.0,0.0,0.0,0.0,0.0,0.0,0.0,0.0,0.0,0.0,0.0,0.0,0.0,0.0,0.0,2.0459,1.8606,0.0,0.0,0.0,0.0,0.0,0.0,0.0,0.0,0.0,0.0,0.0,0.0,0.0,1.894,1.8437,1.5013,1.3143,1.2739,0.8917,0.7187,0.727,0.8091,1.3532,2.2405,2.3801,0.0,3.0648,3.4421,0.0,0.0,0.0,0.0,0.0,0.0,0.0,0.0,0.0,0.0,0.0,0.0,0.0,0.0,0.0,0.0,0.0,0.0,0.0,0.0,0.0,3.3659,3.3489,3.3831,3.3711,3.3829,3.4292,3.4641,3.4963,3.5295,3.5418,3.5521,3.5632,3.559,3.5544,3.5493,3.5604,3.5719,3.5804,3.5667,3.5483,3.5271,3.4827,3.4195,3.3469,3.2849,0.0,0.0,0.0,0.0,0.0,0.0,0.0,0.0,0.0,0.0,0.0,0.0,0.0,0.0,0.0,0.0,0.0,0.0,0.0,0.0,0.0,0.0,0.0,0.0,0.0,0.0,0.0,0.0,0.0,0.0,0.0,0.0,0.0,0.0,0.0,0.0,0.0,0.0,0.0,1.533,1.1472,0.6906,0.6763,0.6282,0.0,0.0,0.0,0.0,0.0,0.0,0.0,0.0,0.0,0.4591,0.5566,0.6182,0.6382,0.5167,0.4453,0.4259,0.3376,0.3201,0.3638,0.48,1.0013,1.8292,2.1734,2.6135,3.114,3.5073,3.5732,3.4279,0.0,0.0,0.0,0.0,3.2756,3.2826,0.0,0.0,0.0,0.0,0.0,0.0,0.0,0.0,0.0,0.0,0.0,0.0,3.3201,3.2594,3.2272,3.257,3.2358,3.2511,3.3268,3.3753,3.4273,3.4827,3.5117,3.5292,3.5407,3.5276,3.5316,3.5482,3.5557,3.5657,3.5775,3.5747,3.5654,3.5541,3.5183,3.4565,3.3769,3.2997,3.2297,3.1627,0.0,0.0,0.0,0.0,0.0,0.0,0.0,0.0,0.0,0.0,0.0,0.0,0.0,0.0,0.0,0.0,0.0,0.0,0.0,0.0,0.0,0.0,0.0,0.0,0.0,0.0,0.0,0.0,0.0,0.0,0.0,0.0,0.0,0.0,0.0,0.0,0.0,0.5418,0.2756,-0.3222,-0.3285,-0.3728,0.0,0.0,0.0,0.0,0.0,0.0,0.0615,-0.4659,-0.7131,-0.5383,-0.4597,-0.3888,-0.3174,-0.2213,-0.1774,-0.1774,-0.0089,0.0981,0.16,0.3387,0.7936,1.4717,2.045,2.6337,3.2187,3.5875,3.671,3.5608,3.4873,3.4218,3.3655,3.3652,3.3617,3.3684,0.0,0.0,0.0,0.0,0.0,0.0,0.0,0.0,0.0,0.0,0.0,3.1812,3.137,3.1145,3.0874,3.0667,3.1085,3.1586,3.2068,3.2828,3.3548,3.4229,3.481,3.5124,3.5119,3.5035,3.5138,3.5424,3.5353,3.5444,3.5708,3.5779,3.5761,3.5679,3.5473,3.51,3.4559,3.3377,3.2426,3.1583,3.0187,0.0,0.0,0.0,0.0,0.0,0.0,0.0,0.0,0.0,0.0,0.0,0.0,0.0,0.0,0.0,0.0,0.0,0.0,0.0,0.0,0.0,0.0,0.0,0.0,0.0,0.0,0.0,0.0,0.0,0.0,0.0,0.0,0.0,0.0,0.0,0.0,0.0,0.0,-0.6565,-0.4721,0.0,0.0,0.0,0.0,-0.7094,-0.9656,-1.0358,-0.8639,-0.9633,-0.9675,-0.8321,-0.5684,-0.4275,-0.4186,-0.3306,-0.2865,-0.2776,-0.1792,-0.1255,-0.1076,0.1701,0.6579,1.3094,1.9977,2.6376,3.2246,3.6613,3.7486,3.6022,3.5608,3.4631,3.3588,3.4055,3.4268,3.4382,0.0,0.0,0.0,3.4152,3.3836,3.3395,3.2764,3.261,3.2362,3.1705,3.1359,3.0951,3.0379,2.9286,2.8495,2.8139,2.8062,2.7705,2.701,3.0023,3.1604,3.124,3.3677,3.5034,3.5037,3.0289,3.0155,3.5015,3.036,3.0603,3.5449,3.5599,3.5694,3.5747,3.5427,3.5224,3.5091,3.4132,3.3169,3.2175,3.1121,3.0303,0.0,0.0,0.0,0.0,0.0,0.0,0.0,0.0,0.0,0.0,0.0,0.0,0.0,0.0,0.0,0.0,0.0,0.0,0.0,0.0,0.0,0.0,0.0,0.0,0.0,0.0,0.0,0.0,0.0,0.0,0.0,0.0,0.0,0.0,0.0,0.0,0.0,-0.8169,-0.6943,0.0,-1.0014,-0.9657,-0.974,-1.0875,-1.2163,-1.2339,-1.1058,-1.1724,-1.1547,-1.0366,-0.9305,-0.8777,-0.8777,-0.7291,-0.6505,-0.6502,-0.3666,-0.2331,-0.224,0.0269,0.5288,1.2273,1.8809,2.5368,3.1856,3.7013,3.829,3.7008,3.6855,3.6195,3.529,3.5278,3.5249,3.5199,0.0,3.4367,0.0,3.3642,3.3223,3.2737,3.2057,3.1809,3.1462,3.0694,3.0195,2.9621,2.8878,2.7452,2.6381,2.5931,2.5511,2.4858,2.381,2.5682,2.6487,2.5747,2.9376,3.2537,3.4945,3.016,3.0063,3.4963,3.0202,3.0441,3.5372,3.5549,3.5679,3.5758,3.5535,3.5418,3.5369,3.4821,3.3889,3.2746,3.1812,3.1079,3.0501,0.0,0.0,0.0,0.0,0.0,0.0,0.0,0.0,0.0,0.0,0.0,0.0,0.0,0.0,0.0,0.0,0.0,0.0,0.0,0.0,0.0,0.0,0.0,0.0,0.0,0.0,0.0,0.0,0.0,0.0,0.0,0.0,0.0,0.0,-0.6245,-0.6953,-0.9235,-0.8277,-0.8364,-1.0631,-1.0549,-1.0809,-1.1929,-1.2613,-1.2699,-1.2015,-1.2613,-1.2448,-1.1343,-1.0819,-1.0554,-1.0554,-0.8715,-0.7746,-0.7478,-0.4378,-0.2688,-0.233,0.0269,0.4161,0.9314,1.612,2.272,2.9098,3.4656,3.7291,3.7807,3.7756,3.7266,3.6643,3.6015,3.5803,3.57,3.4288,3.366,3.3105,3.3092,3.2642,3.2074,3.1355,3.1094,3.0647,2.9701,2.8763,2.7822,2.6836,2.564,2.4622,2.4037,2.3657,2.3193,2.2763,2.0226,1.8672,1.8533,2.2467,2.7901,3.485,3.4882,3.4986,3.5293,3.5063,3.5143,3.5488,3.564,3.5706,3.5716,3.584,3.5719,3.5398,3.5316,3.4548,3.3249,3.2199,3.1491,3.1009,0.0,0.0,0.0,0.0,0.0,0.0,0.0,0.0,0.0,0.0,0.0,0.0,0.0,0.0,0.0,0.0,0.0,0.0,0.0,0.0,0.0,0.0,0.0,0.0,0.0,0.0,0.0,0.0,0.0,0.0,0.0,0.0,0.0,-0.7478,-0.8017,-0.8548,-0.9777,-0.8456,-0.8193,-0.9864,-0.9174,-0.917,-1.0549,-1.1311,-1.174,-1.1929,-1.2528,-1.2443,-1.1327,-0.9932,-0.9235,-0.9235,-0.7397,-0.616,-0.5706,-0.3846,-0.2419,-0.1345,0.1522,0.3218,0.4318,1.1985,1.8472,2.41,2.9621,3.4502,3.8505,3.8198,3.7826,3.7344,3.6229,3.5779,3.5676,3.391,3.3733,3.3431,3.2916,3.2315,3.1664,3.0864,3.0352,2.9789,2.8842,2.8192,2.7208,2.552,2.4673,2.3638,2.2189,2.1502,2.0396,1.8812,2.1149,2.433,2.83,2.9589,3.1751,3.5069,2.963,2.9478,3.5149,2.9791,2.9972,3.5281,3.5526,3.565,3.5694,3.5731,3.5696,3.5619,3.5436,3.5038,3.4452,3.3573,3.3006,3.2621,0.0,0.0,0.0,0.0,0.0,0.0,0.0,0.0,0.0,0.0,0.0,0.0,0.0,0.0,0.0,0.0,0.0,0.0,0.0,0.0,0.0,0.0,0.0,0.0,0.0,0.0,0.0,0.0,0.0,0.0,0.0,-0.6684,-0.7482,-0.7573,-0.7224,-0.7312,-0.8548,-0.8017,-0.8105,-0.9772,-0.9689,-0.9946,-1.1068,-1.1322,-1.1322,-1.0977,-1.1154,-1.1149,-1.0809,-0.9758,-0.9323,-0.968,-0.7841,-0.6874,-0.6691,-0.4113,-0.2777,-0.2419,-0.0179,0.1703,0.3539,0.9816,1.6609,2.3605,2.913,3.4486,3.9163,3.8373,3.7502,3.6613,3.6292,3.5457,3.4462,3.3541,3.3225,3.2867,3.2368,3.1699,3.1055,3.0369,2.9908,2.9319,2.8479,2.775,2.6724,2.5315,2.4142,2.2905,2.1432,2.0459,1.9007,1.6798,1.7892,2.1327,2.7321,2.7879,3.0188,3.4813,3.0617,3.0618,3.5152,3.0889,3.1027,3.533,3.5502,3.5659,3.5737,3.5778,3.578,3.5783,3.5665,3.5476,3.522,3.4754,3.424,3.3722,3.3499,3.3469,3.3531,3.3531,3.3475,3.3432,3.3672,0.0,0.0,0.0,0.0,0.0,0.0,0.0,0.0,0.0,0.0,0.0,0.0,0.0,0.0,0.0,0.0,0.0,0.0,0.0,0.0,0.0,0.0,0.0,0.0,-0.7837,-0.7929,-0.7136,-0.7228,-0.7584,-0.8292,-0.8113,-0.8288,-0.9257,-0.9345,-0.9598,-1.0274,-1.0269,-1.0183,-1.0,-0.9831,-0.9657,-0.9401,-0.8703,-0.8532,-0.889,-0.7041,-0.598,-0.5885,-0.3398,-0.2062,-0.1614,0.0359,0.1704,0.2924,1.0044,1.6785,2.3175,2.9186,3.4769,3.9433,0.0,0.0,0.0,0.0,3.5047,3.3669,3.316,3.247,3.1894,3.1677,3.1027,3.0384,2.9973,2.9515,2.9013,2.8304,2.7348,2.6361,2.555,2.3897,2.2469,2.1495,2.0364,1.8783,1.6729,1.3846,1.5051,2.1404,2.2367,2.6355,3.4188,3.4794,3.5083,3.5193,3.5239,3.5315,3.546,3.5558,3.566,3.5772,3.5866,3.5906,3.5894,3.589,3.5782,3.5624,3.5636,3.5195,3.4507,3.4505,3.4522,3.4539,3.4537,3.4428,3.4282,3.4339,0.0,0.0,0.0,0.0,0.0,0.0,0.0,0.0,0.0,0.0,0.0,0.0,0.0,0.0,0.0,0.0,0.0,0.0,0.0,0.0,0.0,0.0,0.0,0.0,-0.8815,-0.7672,-0.6786,-0.7764,-0.8568,-0.8388,-0.8388,-0.8388,-0.8476,-0.8388,-0.8464,-0.8611,-0.8607,-0.869,-0.8848,-0.8503,0.0,0.0,0.0,-0.7129,-0.7309,-0.5447,-0.4467,-0.4103,-0.2237,-0.0987,-0.009,0.1883,0.2509,0.266,1.0773,1.7379,2.2844,2.8881,3.4603,3.9508,3.9072,3.8762,3.8346,3.6443,3.4818,3.3574,3.3099,3.2669,3.2127,3.1548,3.092,3.0269,2.9544,2.9029,2.851,2.7974,2.7086,2.604,2.46,2.3936,2.3182,2.2027,2.0968,2.0275,2.0209,1.9628,2.1411,2.6268,2.6872,2.9093,3.3434,3.3901,3.443,3.5122,3.5072,3.5141,3.5266,3.5451,3.5562,3.5646,3.5827,3.5877,3.582,3.5888,3.5859,3.5775,3.5818,3.5593,3.5207,3.522,3.5262,3.5383,3.5373,3.5386,3.5392,3.5403,3.5433,3.5436,3.5383,3.539,0.0,0.0,0.0,0.0,0.0,0.0,0.0,0.0,0.0,0.0,0.0,0.0,0.0,0.0,0.0,0.0,0.0,0.0,0.0,-0.8719,-0.8903,-0.8819,-0.8208,-0.8388,-0.812,-0.6962,-0.6786,-0.7051,-0.7669,-0.7139,-0.6871,-0.6868,-0.6864,-0.6864,-0.6949,-0.6864,-0.7041,-0.757,-0.6694,-0.6251,-0.6062,-0.4917,-0.3939,-0.3132,-0.1972,0.0,-0.1077,0.0807,0.2061,0.2949,0.6005,1.3267,2.3012,2.4836,3.1233,3.9705,3.8349,3.7776,3.7606,3.6575,3.6007,3.5789,3.3944,3.2966,3.1913,3.1338,3.0714,3.0005,2.9319,2.8842,2.8429,2.7955,2.7137,2.6254,2.5356,2.4584,2.38,2.2882,2.135,2.0877,2.1908,2.1836,2.3493,2.7463,2.8415,3.0039,3.2601,3.3405,3.4078,3.4659,3.4813,3.5018,3.5247,3.5353,3.5473,3.5611,3.5788,3.5833,3.5798,3.5831,3.5848,3.5859,3.5849,3.5742,3.5607,3.5642,3.5686,3.5721,3.5604,3.5603,3.5683,3.5585,3.5586,3.5625,3.5536,3.5506,3.5497,0.0,0.0,0.0,0.0,0.0,0.0,0.0,0.0,0.0,0.0,0.0,0.0,0.0,0.0,-0.6956,-0.7753,0.0,-0.846,-0.8811,-0.864,-0.8201,-0.7584,-0.7234,-0.6966,-0.6959,-0.6959,-0.6959,-0.6959,-0.6605,-0.6254,-0.5902,-0.5902,-0.5544,-0.465,-0.4648,-0.4556,-0.4457,-0.4018,-0.3753,-0.3927,-0.2952,-0.2419,-0.2152,-0.0717,0.0,0.009,0.1971,0.3223,0.4154,1.1166,1.7594,2.3587,2.9522,3.5095,3.9791,3.8718,3.8042,3.7683,3.7285,3.6851,3.6454,3.4725,3.3378,3.2101,3.1506,3.0874,3.0214,2.9531,2.9138,2.8781,2.8384,2.7506,2.6775,2.6522,2.5425,2.4381,2.3774,2.225,2.1798,2.3072,2.2946,2.4179,2.7186,2.8509,3.0004,3.1672,3.2972,3.3744,3.4078,3.4467,3.4832,3.5184,3.5205,3.5361,3.5579,3.5727,3.576,3.5772,3.5772,3.5807,3.5849,3.58,3.5772,3.5775,3.5802,3.5845,3.583,3.5606,3.5574,3.5624,3.5463,3.5431,3.5441,3.5345,3.5297,3.529,3.5222,3.5234,0.0,0.0,0.0,0.0,0.0,0.0,0.0,0.0,-0.6969,-0.6792,-0.6704,-0.7136,-0.7573,-0.7841,-0.8017,-0.8193,-0.8811,-0.8017,-0.7048,-0.6517,-0.5899,-0.5991,-0.6959,-0.6959,-0.6691,-0.6254,-0.6074,-0.5722,-0.5013,-0.4924,-0.4208,-0.2686,-0.2597,-0.2238,-0.1522,-0.1522,-0.1611,-0.179,-0.1075,-0.0717,-0.0717,0.0717,0.1524,0.1793,0.3669,0.5167,0.6933,1.9303,2.4846,2.5914,3.5872,3.9975,3.9935,3.9502,3.8906,3.8282,3.817,3.7645,3.6971,3.446,3.4172,3.3648,3.2772,3.2204,3.1562,3.0757,3.0269,2.9907,2.966,2.8414,2.7469,2.7209,2.6078,2.5063,2.4452,2.4469,2.4456,2.4323,2.4641,2.5398,2.6558,2.7817,2.9231,3.0734,3.2087,3.3105,3.3688,3.4012,3.4371,3.4774,3.4954,3.5196,3.5521,3.5639,3.5669,3.562,3.562,3.566,3.5725,3.5652,3.5663,3.5696,3.5577,3.5626,3.571,3.5621,3.5521,3.545,3.5491,3.5256,3.4985,3.4963,3.492,3.4885,3.4926,3.5031,3.5166,3.5366,2.6452,1.6669,1.4977,0.3699,-0.7122,0.0,-0.7408,-0.6962,-0.652,-0.6346,-0.6435,-0.6868,-0.6609,-0.6609,-0.7214,-0.6868,-0.6517,-0.6428,-0.634,-0.6166,-0.5725,-0.5099,-0.4921,-0.546,-0.4924,-0.4119,-0.3224,-0.3135,-0.2686,-0.1611,-0.1611,-0.1611,-0.179,-0.179,-0.1432,-0.0895,-0.0716,0.0,0.1432,0.1611,0.2059,0.2777,0.4463,0.7717,1.2664,2.5199,3.1025,3.2096,3.7876,4.0253,4.0253,4.0176,3.9962,3.9577,3.8869,3.8637,3.8633,3.5607,3.5492,3.517,3.4421,3.3131,3.2006,3.1582,3.1011,3.0674,3.0744,2.9904,2.92,2.9002,2.79,2.6976,2.6475,2.6475,2.6576,2.6791,2.7214,2.7861,2.8726,2.9828,3.0891,3.1816,3.249,3.3103,3.3718,3.3686,3.3993,3.4529,3.4699,3.4975,3.533,3.5412,3.5476,3.5483,3.5483,3.5526,3.5593,3.5512,3.5514,3.5579,3.5432,3.5416,3.5463,3.5391,3.5288,0.0,3.5059,3.4736,3.4372,3.4323,3.4151,3.4041,3.4311,3.4435,3.4848,3.638,2.5881,1.4687,1.5236,0.3727,-0.7757,-0.7672,-0.7404,-0.6962,-0.6346,-0.6609,-0.6786,-0.6432,-0.6697,-0.6871,-0.6691,-0.6163,-0.5813,-0.5813,-0.5188,-0.4654,-0.4391,-0.3492,-0.3312,-0.4654,-0.403,-0.3315,-0.2957,-0.2329,-0.1612,-0.0627,-0.0627,-0.0358,0.009,0.009,0.0448,0.1163,0.1074,0.1521,0.2593,0.3042,0.3401,0.3762,0.5008,0.8769,1.4856,2.3425,2.9266,3.3109,3.8202,4.031,4.029,4.0119,4.0021,3.9922,3.9571,3.9421,3.9371,3.6444,3.636,3.6131,3.565,3.4106,3.2872,3.2609,3.2077,3.1763,3.1946,3.1291,3.0696,3.0423,2.9552,2.8913,2.8579,2.841,2.8579,2.9009,2.9376,2.9894,3.053,3.147,3.2161,3.2574,3.3048,3.3542,3.4036,3.4086,3.4421,3.5025,3.5146,3.5303,3.545,3.5545,3.5469,3.5288,3.5321,3.536,3.5369,3.5335,3.5346,3.5359,3.5226,3.5187,3.5187,3.5157,3.5053,3.4889,3.4694,3.4297,3.3901,3.3784,3.3543,3.3356,3.3633,3.4053,3.4918,3.7223,2.7997,1.7393,1.6071,0.5287,-0.5445,-0.7334,-0.7492,-0.7054,-0.6346,-0.6697,-0.6874,-0.5991,-0.6163,-0.6337,-0.5719,-0.5099,-0.4746,-0.4746,-0.3942,-0.3317,-0.3136,-0.2329,-0.2237,-0.3221,-0.2685,-0.2149,-0.197,-0.1253,-0.0537,0.0448,0.0448,0.0718,0.1346,0.1704,0.2061,0.2597,0.2685,0.313,0.3844,0.4293,0.4565,0.4907,0.8746,1.3235,1.846,2.5463,3.0899,3.5077,3.8788,4.029,4.027,4.0101,4.0081,4.0139,4.0139,3.9943,3.9709,3.6301,3.6233,3.6165,3.6019,3.5402,3.4719,3.4136,3.3719,3.3483,3.3375,3.2534,3.1636,3.0876,3.0545,3.031,3.033,3.031,3.031,3.033,3.0717,3.0932,3.0982,3.1677,3.2177,3.2315,3.3648,3.4456,3.4675,3.5512,3.6119,3.6538,3.6739,3.6543,3.6083,3.6216,3.5797,3.5015,3.5157,3.5122,3.5034,3.5069,3.5072,3.5001,3.4945,3.4908,3.4908,3.4981,3.487,3.4674,3.4486,3.4093,3.368,3.3476,3.3262,3.3099,3.3057,3.4101,3.5653,3.7499,3.2057,2.4064,1.6623,0.8967,0.129,-0.6649,-0.7937,-0.7238,-0.652,-0.6257,-0.5902,-0.5188,-0.4474,-0.3939,-0.3676,-0.3315,-0.2956,-0.2956,-0.2957,-0.2688,-0.197,-0.179,-0.1522,-0.0895,-0.0805,-0.0358,0.0537,0.0448,0.0718,0.1705,0.1525,0.1345,0.1436,0.2331,0.2867,0.2867,0.3755,0.4645,0.5359,0.5097,0.5366,0.6449,1.7455,2.3331,2.538,3.5439,3.9904,4.0079,4.025,4.0307,4.0307,4.0362,4.0432,4.0466,4.0466,4.0158,3.9709,3.6233,3.6208,3.6122,3.5905,3.5622,3.5287,3.4947,3.4529,3.4267,3.4382,3.3957,0.0,0.0,0.0,0.0,0.0,3.1789,3.1843,3.2352,3.266,3.2994,3.334,3.3743,3.4121,3.4471,3.4534,3.4852,3.5428,3.547,3.5724,3.6193,3.6509,3.6628,3.6633,3.6767,3.6701,3.6457,3.6596,3.6615,3.6499,3.6027,3.578,3.5665,3.5116,3.4793,3.4593,0.0,3.4379,3.4413,3.4184,3.3752,3.3298,3.3262,3.2925,3.261,3.317,3.4681,3.6364,3.7295,3.2127,2.4627,1.6762,0.9192,0.1729,-0.6208,-0.7492,-0.6795,-0.5902,-0.5727,-0.546,-0.4926,-0.4297,-0.3849,-0.3676,-0.3227,-0.2688,-0.2238,-0.1882,-0.1433,-0.0716,0.009,0.0717,0.0896,0.0537,0.0358,0.0715,0.1075,0.1704,0.269,0.251,0.2686,0.3309,0.3666,0.4113,0.4739,0.4739,0.5184,0.6071,0.5636,0.546,0.5676,1.3661,1.7652,1.8819,2.9821,3.4843,3.552,3.8949,4.0396,4.0432,4.0449,4.0482,4.0492,4.0492,4.0392,4.023,0.0,3.6079,3.5993,3.5773,3.5639,0.0,0.0,0.0,0.0,0.0,0.0,0.0,0.0,0.0,0.0,0.0,0.0,3.3251,3.3869,3.4202,3.456,3.4927,3.5207,3.5481,3.581,3.5648,3.5814,3.6312,3.6309,3.6515,3.6961,3.7216,3.7303,3.7249,3.7373,3.73,3.7107,3.7241,3.7241,3.7156,3.6717,3.651,3.633,3.5524,3.5018,0.0,3.4086,3.3891,3.3884,3.3743,3.3408,3.3037,3.2876,3.2475,3.2355,3.3529,3.4771,3.6007,3.6808,3.3709,2.8313,2.019,1.4911,0.8856,-0.22,-0.371,-0.3475,-0.5579,-0.5722,-0.528,-0.4567,-0.3941,-0.3403,-0.3048,-0.2239,-0.1432,-0.0984,-0.0358,0.0358,0.1073,0.179,0.2419,0.2689,0.2238,0.1878,0.1522,0.1793,0.2422,0.3405,0.3136,0.3403,0.4378,0.4648,0.5092,0.5719,0.5719,0.5985,0.6425,0.8102,0.8811,0.8959,1.6916,2.0756,2.1683,3.0802,3.5038,3.5716,3.9064,4.0449,4.0502,4.0499,4.0511,4.0504,4.0523,4.0539,4.0539,0.0,0.0,3.5773,0.0,0.0,0.0,0.0,0.0,0.0,0.0,0.0,0.0,0.0,0.0,0.0,0.0,0.0,0.0,3.4899,3.5195,3.5481,3.5698,3.6002,3.619,3.6232,3.6925,3.7268,3.7228,3.7949,3.8437,3.8707,3.8762,3.8504,3.7986,3.8048,3.7678,3.7068,3.7197,3.7197,3.7141,3.725,3.7186,3.6962,3.6162,3.5615,3.5135,3.4138,3.3593,3.328,3.3188,3.3096,3.2955,3.2318,3.2111,3.2387,3.3964,3.4397,3.4704,3.6024,3.6514,3.4582,2.6163,2.5026,2.1686,0.5325,0.2906,0.2089,-0.4908,-0.5948,-0.5275,-0.3937,-0.3133,-0.2509,-0.1704,-0.0269,0.0805,0.0894,0.1608,0.25,0.3218,0.3307,0.3578,0.4297,0.4297,0.3942,0.3142,0.2782,0.3048,0.3939,0.3582,0.376,0.4736,0.545,0.5808,0.5808,0.6609,0.6874,0.6416,1.1754,1.4648,1.5657,2.6361,3.1767,3.2982,3.8093,4.0342,4.0415,4.0485,4.0502,4.0518,4.0508,4.0504,4.0504,4.0573,4.0588,4.0622,0.0,0.0,0.0,0.0,0.0,0.0,0.0,0.0,0.0,0.0,0.0,0.0,0.0,0.0,0.0,0.0,0.0,0.0,3.5241,3.5333,3.5526,3.5847,3.5933,3.6207,3.6638,3.6838,3.7206,3.7721,3.7967,3.8186,3.8465,3.8658,3.8781,3.8947,3.9076,3.91,3.9082,3.9212,3.9123,3.8893,3.8365,3.8005,3.766,3.6907,3.6415,3.6002,3.5344,3.4934,3.4574,3.3904,3.367,3.3512,3.2744,3.2787,3.3217,3.328,3.3804,3.4515,3.5019,3.5389,3.3594,2.527,2.3889,2.2058,1.2576,0.6529,0.2984,0.3561,-0.075,-0.4018,-0.1874,-0.0803,0.0,0.0803,0.1695,0.2498,0.3035,0.3304,0.3751,0.4472,0.4561,0.4652,0.4832,0.4832,0.483,0.5001,0.438,0.4383,0.5003,0.5354,0.6065,0.7051,0.7231,0.7231,0.7058,0.6969,0.6615,0.6166,0.809,1.0801,1.4311,2.2348,2.7996,3.1778,3.7783,4.0415,4.0485,4.0546,4.0577,4.0558,4.0564,4.0559,4.0579,4.0593,4.0635,4.0675,0.0,0.0,0.0,0.0,0.0,0.0,0.0,0.0,0.0,0.0,0.0,0.0,0.0,0.0,0.0,0.0,0.0,0.0,0.0,3.5694,3.5985,3.6291,3.6433,3.6678,3.6992,3.7185,3.7251,3.7255,3.7805,3.8071,3.8053,3.8529,3.8998,3.9452,3.9551,3.9675,3.9791,3.9813,3.9743,0.0,0.0,3.8765,3.8447,3.7653,3.7026,3.6462,3.5797,3.5415,3.5092,3.43,3.3733,3.3313,3.3123,3.2924,3.2773,3.286,3.3192,3.3582,3.3804,3.4072,3.3127,2.8338,2.7657,2.6147,1.8375,1.401,1.0574,0.6962,0.3185,0.0516,0.0532,0.0892,0.1515,0.2583,0.3476,0.4192,0.4639,0.5085,0.5445,0.5897,0.5811,0.5811,0.5811,0.6071,0.6242,0.6328,0.5531,0.5445,0.6245,0.6596,0.7129,0.8028,0.794,0.7768,0.7507,0.6881,0.6523,0.6334,1.1537,1.5365,1.8019,2.71,3.2649,3.5324,3.8872,4.0449,4.0495,4.0558,4.0607,4.0588,4.0593,4.0588,4.0563,4.0237,4.014,4.0138,0.0,0.0,0.0,0.0,0.0,0.0,0.0,0.0,0.0,0.0,3.4899,3.4899,3.4851,3.4691,0.0,0.0,0.0,0.0,0.0,0.0,3.6609,3.6834,3.7087,3.7259,3.7297,3.7685,3.7452,3.6595,3.7661,3.8036,3.7727,3.8456,3.9073,3.9599,3.9675,3.9785,3.9892,3.9739,3.9647,3.9623,3.9458,3.9328,3.9109,0.0,0.0,3.6805,3.5954,3.5525,3.5246,3.4624,3.3695,3.2949,3.3393,3.272,3.1865,3.2455,3.2492,3.2327,3.2586,3.2734,3.2718,3.2477,3.2792,3.1183,2.3592,2.2423,1.9879,0.9246,0.6991,0.615,0.3601,0.2938,0.3124,0.4378,0.5292,0.5939,0.6112,0.6834,0.7378,0.7286,0.7187,0.7002,0.7002,0.7588,0.783,0.7474,0.6851,0.6766,0.7573,0.7566,0.7746,0.8288,0.8116,0.7856,0.7595,0.6962,0.6694,0.6753,1.7257,2.2596,2.3585,3.4375,3.9711,4.0415,4.0415,4.0389,4.035,4.04,4.0391,4.0289,4.0293,4.0301,4.0217,3.9576,3.934,3.9245,0.0,0.0,0.0,0.0,0.0,0.0,0.0,0.0,0.0,0.0,3.4899,3.4804,0.0,0.0,0.0,0.0,0.0,0.0,0.0,0.0,0.0,3.693,3.7009,3.7143,3.7314,3.7521,3.7632,3.7648,3.8018,3.8201,3.82,3.8615,3.9036,3.9451,3.975,4.0061,4.0362,4.012,3.992,3.975,3.9502,3.929,3.9082,3.8859,0.0,0.0,3.6858,3.6267,3.5976,3.5508,3.4629,3.3697,3.3272,3.2562,3.1926,3.1921,3.1838,3.1781,3.1766,3.1751,3.1694,3.1364,3.1377,3.1222,3.0393,2.5114,2.0126,1.9303,1.3407,0.8342,0.8435,0.794,0.7717,0.8192,0.8421,0.8521,0.8613,0.871,0.8714,0.8529,0.8318,0.8151,0.788,0.8545,0.9056,0.9396,1.0005,0.9744,0.844,0.9061,0.9248,0.8819,0.8552,0.8288,0.7856,0.8281,0.8273,0.7986,1.508,2.0563,2.4613,3.1078,3.6341,4.0415,4.0449,4.0114,3.9523,3.9581,3.9212,3.862,3.8678,3.8713,3.8685,3.8626,3.8583,3.8576,0.0,0.0,0.0,0.0,0.0,0.0,0.0,3.4899,3.5079,3.5604,3.5414,3.5021,3.453,3.5197,3.5454,0.0,0.0,0.0,0.0,0.0,0.0,0.0,0.0,0.0,3.7143,3.7334,3.7362,3.713,0.0,3.8005,3.79,3.8654,3.9205,3.9576,3.9943,4.0139,4.0177,3.9981,3.9769,3.9561,3.9272,3.9101,3.9036,0.0,0.0,0.0,3.6764,3.6259,3.5949,3.5622,3.4816,3.3903,3.3287,3.2625,3.1951,3.1509,3.1409,3.1351,3.1102,3.097,3.0792,3.0478,3.0101,2.9968,3.0279,2.7292,2.3953,2.2207,1.8358,1.4626,1.2638,1.1527,1.0924,1.1081,1.0837,1.0546,1.0556,1.0463,1.019,0.9828,0.9479,0.9272,0.9358,0.9962,1.0611,1.13,1.2089,1.1746,1.0009,0.9937,0.9689,0.9087,0.8907,0.864,0.8288,0.8285,0.8021,0.7562,1.3809,1.7767,2.0013,2.8281,3.3399,3.5797,3.8168,3.9003,3.8681,3.8749,3.8559,3.8205,3.8307,3.8352,3.8311,3.7918,3.7785,3.7728,0.0,0.0,0.0,0.0,0.0,0.0,3.4899,3.4967,3.533,3.6087,3.5941,3.5503,3.4837,3.5679,3.6022,0.0,0.0,0.0,0.0,0.0,0.0,0.0,0.0,0.0,3.6987,0.0,0.0,3.6649,3.747,0.0,0.0,0.0,0.0,0.0,3.9901,3.9982,3.9797,3.9651,3.9502,0.0,0.0,3.8939,3.895,0.0,0.0,0.0,0.0,3.5949,3.5728,3.5487,3.4849,3.4036,3.3407,3.2664,3.1864,3.1278,3.0999,3.0821,3.0447,3.019,3.0007,2.956,2.9107,2.8739,2.8457,2.843,2.7301,2.3176,2.1889,2.0406,1.6547,1.4679,1.3686,1.3574,1.3032,1.252,1.227,1.2085,1.1714,1.117,1.0842,1.076,1.111,1.1554,1.2237,1.3093,1.3626,1.33,1.1585,1.0722,1.012,0.9694,0.9345,0.9082,0.8811,0.8511,0.8055,0.7512,1.4558,1.7684,1.7433,2.8052,3.2838,3.2931,3.65,3.797,3.7855,3.7912,3.7831,3.7696,3.7825,3.7863,3.7799,3.7183,3.6935,3.6849,0.0,0.0,0.0,0.0,0.0,0.0,3.4899,3.5202,3.5496,3.5562,3.6233,3.6398,3.5748,3.6735,3.7273,0.0,0.0,0.0,0.0,0.0,0.0,0.0,0.0,0.0,0.0,0.0,0.0,3.747,3.7757,0.0,0.0,0.0,0.0,0.0,0.0,3.9451,3.9505,3.9331,0.0,0.0,0.0,0.0,0.0,0.0,0.0,0.0,0.0,3.5711,3.5577,3.5383,3.4994,3.448,3.3511,3.2516,3.1667,3.1175,3.0644,3.0068,2.956,2.9435,2.9233,2.861,2.861,2.861,2.7776,2.7536,2.6947,2.5238,2.3575,2.1899,2.0193,1.8356,1.6748,1.5952,1.5405,1.4735,1.3825,1.3736,1.3346,1.2571,1.2729,1.2796,1.2773,1.338,1.3924,1.4504,1.4803,1.4153,1.2363,1.1843,1.1327,1.0895,1.0381,0.9951,0.9515,1.0098,0.9996,0.9447,1.9371,2.3874,2.3768,3.3131,3.7404,3.7411,3.7938,3.773,3.7007,3.7091,3.6678,3.6024,3.6098,3.617,3.6216,3.615,3.6103,3.6108,0.0,0.0,0.0,0.0,0.0,0.0,3.4899,3.5251,3.5709,3.6322,3.6643,3.7078,3.7796,3.838,3.8204,3.7049,3.7504,0.0,0.0,0.0,0.0,0.0,0.0,0.0,0.0,0.0,3.7297,3.7577,3.7667,0.0,0.0,0.0,0.0,0.0,0.0,3.9275,3.9234,3.9165,0.0,0.0,0.0,0.0,0.0,0.0,0.0,0.0,0.0,0.0,3.5475,3.5088,3.4756,3.4349,3.361,3.2819,3.1936,3.0984,3.0464,3.004,2.9233,2.8853,2.861,2.8105,2.7973,2.7776,2.731,2.7053,2.6633,2.5487,2.429,2.3086,2.1696,2.0447,1.9264,1.8346,1.788,1.7267,1.6358,1.5893,1.5317,1.4447,1.3988,1.4109,1.4781,1.4864,1.526,1.6406,1.6601,1.6198,1.5184,1.3691,1.2601,1.1997,1.1826,1.1569,1.1225,1.0973,1.075,1.0693,1.7236,2.0283,2.0597,2.9983,3.4202,3.4218,3.6527,3.7334,3.6978,3.6521,3.6153,3.5861,3.589,3.5918,3.5937,3.5935,3.5912,3.5886,0.0,0.0,0.0,0.0,0.0,3.487,3.5036,3.538,3.5929,3.6823,3.698,3.7472,3.8557,3.9135,3.8968,3.7834,3.8208,0.0,0.0,0.0,0.0,0.0,0.0,0.0,0.0,0.0,3.7203,3.7577,3.7577,3.781,0.0,0.0,3.8585,3.8658,0.0,0.0,0.0,0.0,0.0,0.0,0.0,0.0,0.0,0.0,0.0,0.0,0.0,0.0,0.0,0.0,0.0,3.4,3.3555,3.2834,3.1905,3.0807,3.0315,2.9827,2.8725,2.8222,2.7973,2.7577,2.739,2.7201,2.685,2.6714,2.6371,2.5523,2.4719,2.383,2.2847,2.206,2.1193,2.0314,1.9984,1.9505,1.8427,1.787,1.7382,1.6612,1.5987,1.6139,1.7154,1.6956,1.7212,1.8292,1.8372,1.8204,1.7937,1.6464,1.5065,1.3917,1.3827,1.3581,1.3081,1.3033,1.3124,1.348,1.8259,2.0797,2.1582,2.9737,3.3375,3.3397,3.6171,3.7375,3.7347,3.6788,3.6562,3.6573,3.659,3.6601,3.6615,3.6615,3.6576,3.654,0.0,0.0,0.0,0.0,0.0,3.4743,3.5397,3.5663,3.6062,3.6694,3.7197,3.7524,3.7539,3.8645,3.9368,3.9368,3.9907,0.0,0.0,0.0,0.0,0.0,0.0,0.0,3.6987,3.6987,3.7203,3.7577,3.7577,3.781,3.8192,3.8192,3.8241,3.8307,0.0,0.0,0.0,0.0,0.0,0.0,0.0,0.0,0.0,0.0,0.0,0.0,0.0,0.0,0.0,0.0,0.0,0.0,0.0,3.2422,3.1304,3.0704,3.0043,2.9205,2.7894,2.7523,2.739,2.685,2.6998,2.7134,2.6408,2.6314,2.6289,2.5746,2.4874,2.4157,2.3917,2.3319,2.2479,2.1541,2.1517,2.115,1.9712,1.9438,1.933,1.9099,1.9012,1.9255,1.9907,2.0108,2.0041,1.9894,1.9904,1.9953,2.0062,2.0052,1.8946,1.6643,1.6366,1.5875,1.5011,1.6694,1.7787,1.8377,2.5055,2.88,3.0127,3.5105,3.7338,3.7364,3.7804,3.8029,3.8089,3.8077,3.8121,3.8174,3.8258,3.8267,3.8287,3.8283,3.8274,3.8248,0.0,0.0,0.0,0.0,0.0,0.0,3.5478,3.6082,3.655,3.6773,3.7213,3.748,3.748,3.8645,3.942,3.9439,3.9971,0.0,0.0,0.0,0.0,0.0,0.0,0.0,3.6987,3.6987,3.7143,3.741,3.7521,3.7739,3.8003,3.8158,3.8259,3.8307,3.8322,3.8368,0.0,0.0,0.0,0.0,0.0,0.0,3.6786,0.0,0.0,0.0,0.0,0.0,0.0,0.0,0.0,0.0,0.0,0.0,0.0,2.9538,2.8989,2.862,2.7709,2.7335,2.7079,2.6794,2.6794,2.6794,2.6465,2.6327,2.6037,2.5158,2.4659,2.4127,2.3262,2.3275,2.3215,2.2436,2.2817,2.2677,2.1427,2.115,2.1051,2.1096,2.1391,2.152,2.1257,2.1757,2.2113,2.2038,2.2038,2.2092,2.2221,2.236,2.1415,1.9293,1.9127,1.8961,1.8725,1.9182,1.986,2.072,2.5656,2.8849,3.0544,3.5072,3.7599,3.841,3.8166,3.8233,3.8457,3.797,3.7794,3.7871,3.7828,3.7809,3.7824,3.7911,3.7964,3.7978,0.0,0.0,0.0,0.0,0.0,0.0,3.5934,3.6341,3.6746,3.7017,3.7313,3.748,3.748,3.8423,3.9156,3.9456,4.0069,0.0,0.0,0.0,0.0,0.0,0.0,0.0,3.7865,3.7865,3.7985,3.8182,3.8356,3.858,3.878,3.8957,3.895,3.8712,3.8728,3.8613,0.0,0.0,0.0,0.0,0.0,0.0,3.6266,0.0,0.0,0.0,0.0,0.0,0.0,0.0,0.0,0.0,0.0,0.0,0.0,0.0,2.8038,2.7657,2.731,2.6985,2.6726,2.6533,2.6452,2.6383,2.6176,2.6037,2.5758,2.4897,2.4527,2.4105,2.315,2.349,2.3657,2.3001,2.3594,2.3744,2.2775,2.2511,2.2513,2.2908,2.3401,2.3631,2.315,2.3534,2.3812,2.3621,2.3683,2.3829,2.412,2.4325,2.3906,2.2783,2.2147,2.1697,2.1439,2.2345,2.3251,2.4312,2.7909,3.0497,3.233,3.5479,3.7455,3.8357,3.8376,3.8573,0.0,3.8429,3.8288,3.8376,3.8345,3.8404,3.8442,3.8498,3.8554,3.8628,0.0,0.0,0.0,0.0,0.0,0.0,0.0,3.6626,3.6738,3.7385,3.748,3.748,3.748,3.81,3.8723,3.9332,4.0136,0.0,0.0,0.0,0.0,0.0,0.0,3.9305,3.9305,3.9305,3.9388,3.9575,3.9757,3.9991,4.0181,4.0402,4.0112,3.9478,3.9529,3.9109,0.0,0.0,0.0,0.0,3.6498,3.6224,0.0,0.0,0.0,0.0,0.0,0.0,0.0,0.0,0.0,0.0,0.0,0.0,0.0,0.0,0.0,0.0,0.0,2.6508,2.6358,2.6201,2.6062,2.5828,2.5676,2.5606,0.0,2.4861,2.449,2.397,2.3372,2.3721,2.3897,2.3244,2.3939,2.4368,2.3677,2.3667,2.3927,2.4634,2.5131,2.5408,2.5483,2.5468,2.5307,2.4873,2.5028,2.53,2.5676,2.5873,2.622,2.6714,2.5193,2.4051,2.3391,2.579,2.7508,2.8577,3.1091,3.3195,3.4851,3.6024,3.6874,3.7433,3.8315,3.8897,3.9214,3.9238,3.9333,3.9462,3.9529,3.9622,3.9731,3.9687,3.9775,3.9922,0.0,0.0,0.0,0.0,0.0,0.0,0.0,0.0,0.0,0.0,3.748,3.748,3.748,3.7985,3.8613,0.0,0.0,0.0,0.0,0.0,0.0,0.0,3.9638,3.9305,3.9305,3.9305,3.9305,3.9388,3.9575,3.9757,3.9991,4.0181,4.0275,4.0256,4.0256,3.9644,0.0,0.0,0.0,0.0,3.5871,3.5639,0.0,0.0,0.0,0.0,3.4,3.3335,0.0,0.0,0.0,0.0,0.0,0.0,0.0,0.0,2.6414,2.6037,2.6107,0.0,2.6037,2.598,2.591,2.591,0.0,2.5688,2.5394,2.4671,2.4406,2.397,2.3224,2.3809,2.4317,2.3897,2.4698,2.5052,2.4368,2.5179,2.5942,2.6397,2.7112,2.743,2.7167,2.6796,2.6551,2.65,2.6387,2.6427,2.6633,2.6824,2.7027,2.7323,2.7338,2.7018,2.6451,2.7683,2.8616,2.9122,3.0616,3.1896,3.2972,3.4072,3.515,3.6249,3.7235,3.7957,3.8462,3.8621,3.8836,3.9055,3.9055,3.9119,3.9181,3.9338,3.9414,3.9464,0.0,0.0,0.0,0.0,0.0,0.0,0.0,0.0,0.0,0.0,3.748,3.748,3.748,3.7727,3.8197,0.0,0.0,0.0,0.0,0.0,0.0,4.099,4.0586,4.0358,4.0358,4.0358,4.0358,4.0358,4.0553,4.076,4.1002,4.1199,4.1193,4.1017,4.0418,3.9572,0.0,0.0,0.0,0.0,3.6357,0.0,0.0,0.0,0.0,0.0,3.3637,3.2711,0.0,3.0881,3.0001,2.9136,0.0,0.0,0.0,0.0,2.5886,2.5758,2.5688,2.5688,2.5758,2.5758,2.5688,2.5606,2.5419,2.5277,2.4981,2.4238,2.4032,2.3751,2.315,2.382,2.4396,2.4147,2.4945,2.5391,2.4871,2.5432,2.6246,2.7313,2.7802,2.8082,2.8126,2.7984,2.7645,2.7196,2.7152,2.7242,2.7377,2.751,2.7709,2.7842,2.8287,2.8352,2.8026,2.8853,2.9435,2.9747,3.0732,3.148,3.2059,3.3187,3.4284,3.5368,3.6295,3.7137,3.7826,3.7964,3.8216,3.8478,3.8541,3.8646,3.8826,3.8894,3.9027,3.9129,0.0,0.0,0.0,0.0,0.0,0.0,0.0,0.0,0.0,0.0,0.0,0.0,0.0,0.0,0.0,0.0,0.0,0.0,0.0,0.0,4.1318,4.156,4.1604,4.1604,4.1604,4.1604,4.1604,4.1604,4.1762,4.1977,4.2246,4.2391,4.2192,4.1663,4.0503,3.9504,3.8625,3.8517,3.8112,3.7533,3.7153,0.0,0.0,0.0,0.0,0.0,0.0,0.0,0.0,3.0148,2.9077,2.8013,2.7696,0.0,0.0,0.0,0.0,0.0,2.5362,2.5421,2.5491,2.5489,2.5324,2.504,2.479,2.4718,2.449,2.3751,2.3593,2.3479,2.3174,2.3864,2.4429,2.4324,2.4988,2.5559,2.5454,2.5527,2.6152,2.7693,2.8001,2.8244,2.8707,2.8815,2.8503,2.7543,2.7696,2.7908,2.7973,2.8131,2.8327,2.8481,2.8803,2.8944,2.8844,2.9512,3.0068,3.0387,3.1043,3.1452,3.1724,3.2971,3.3972,3.4775,3.5674,3.6545,3.7319,3.7395,3.7632,3.7915,3.8,3.8201,3.846,3.8428,3.8572,3.8773,0.0,0.0,0.0,0.0,0.0,0.0,0.0,0.0,0.0,0.0,0.0,0.0,0.0,0.0,0.0,0.0,0.0,0.0,0.0,4.0334,4.0707,4.1426,4.156,4.1604,4.1604,4.1604,4.1604,4.1604,4.1648,4.1762,4.1977,4.2002,4.1888,4.1687,4.1121,4.0255,3.9196,3.9149,3.8297,3.6934,3.6884,0.0,0.0,0.0,0.0,0.0,0.0,0.0,0.0,3.0079,2.8858,2.7538,2.7188,0.0,0.0,0.0,0.0,0.0,2.5449,2.5281,2.5001,2.4956,2.4634,2.4345,2.4273,2.4273,2.4127,2.3677,2.3593,2.3579,2.3623,2.4093,2.4618,2.5,2.537,2.5812,2.6561,2.7092,2.7634,2.8277,2.9001,2.9369,2.9158,2.8861,2.8562,2.8392,2.8319,2.8352,2.861,2.883,2.9099,2.9401,2.9727,2.9913,2.9865,3.0083,3.0387,3.0702,3.1204,3.1552,3.1724,3.3276,3.4186,3.4543,3.5847,3.6591,3.6895,3.7091,3.7281,3.7504,3.7685,3.7792,3.7862,3.8068,3.8201,3.8234,0.0,0.0,0.0,0.0,0.0,0.0,0.0,0.0,0.0,0.0,0.0,0.0,0.0,0.0,0.0,0.0,0.0,0.0,3.9139,3.9817,4.0383,4.0754,4.1146,4.1453,4.1604,4.1604,4.1604,4.1604,4.1363,4.1408,4.1613,4.1516,4.1321,4.1001,4.0797,4.0178,3.9228,3.9143,3.8598,3.7736,0.0,0.0,0.0,0.0,0.0,0.0,0.0,0.0,0.0,0.0,2.8257,2.7418,2.6895,0.0,0.0,0.0,0.0,0.0,2.5555,2.5267,2.4963,2.4899,2.5142,2.5292,2.5292,2.5154,2.4865,2.4475,2.4258,2.4106,2.4104,2.453,2.5011,2.5491,2.5826,2.6207,2.6633,2.6863,2.7384,2.8359,2.8612,2.8733,2.8983,2.8955,2.8798,2.8465,2.8657,2.8817,2.8944,2.9212,2.9415,2.9602,2.9927,3.0111,3.0111,3.0522,3.0821,3.0955,3.1219,3.1509,3.1754,3.2664,3.3323,3.3786,3.4671,3.5295,3.5725,3.6172,3.6563,3.6882,3.7226,3.7485,3.7685,3.7845,3.7862,3.7931,0.0,0.0,0.0,0.0,0.0,0.0,0.0,0.0,0.0,0.0,0.0,0.0,0.0,0.0,0.0,0.0,0.0,0.0,3.8278,3.9229,3.9817,4.0036,4.048,4.1007,4.156,4.1453,4.1408,4.1453,4.1071,4.096,4.1146,4.0955,4.0625,4.0286,4.0103,3.9697,3.9098,3.8914,3.8596,3.8116,0.0,0.0,0.0,0.0,0.0,0.0,0.0,0.0,0.0,0.0,0.0,0.0,0.0,0.0,0.0,2.5758,2.5592,2.5461,2.5644,2.5386,2.5071,2.5284,2.562,2.5847,2.5847,2.5627,2.5328,2.5161,2.4859,2.4667,2.4777,2.5183,2.5623,2.5997,2.6373,2.6682,2.6682,2.6668,2.7155,2.8237,2.8038,2.8145,2.8798,2.8946,2.8878,2.8406,2.883,2.9099,2.9226,2.954,2.9727,2.9851,3.0097,3.0294,3.0294,3.0836,3.1132,3.1087,3.1292,3.1524,3.1841,3.2191,3.2641,3.3251,3.3716,3.4202,3.4719,3.5232,3.5681,3.6071,3.6522,3.6995,3.7429,3.7485,3.7559,3.7703,0.0,0.0,0.0,0.0,0.0,0.0,0.0,0.0,0.0,0.0,0.0,0.0,0.0,0.0,0.0,0.0,0.0,0.0,3.8294,3.839,3.8707,3.9437,3.9473,4.0136,4.138,4.1053,4.0913,4.1024,4.0659,4.0449,4.0449,4.0154,3.9986,3.9901,3.9222,3.8898,3.8805,3.8544,3.785,3.6772,3.5892,0.0,0.0,0.0,0.0,0.0,0.0,0.0,0.0,0.0,0.0,0.0,0.0,0.0,2.5681,2.5727,2.547,2.5183,2.576,2.5568,2.5352,2.6211,2.5514,2.4645,2.4645,2.4645,2.4713,2.5004,2.5083,2.5217,2.5654,2.6054,2.64,2.6445,2.6857,2.7185,2.7185,2.7375,2.7706,2.7927,2.819,2.842,2.8579,2.8655,2.8641,2.8587,2.8908,2.9226,2.954,2.9865,3.0233,3.0507,3.0642,3.0762,3.0762,3.1117,3.1234,3.1087,3.1366,3.1655,3.1996,3.2547,3.2949,3.3251,3.3887,3.4186,3.4284,3.4671,3.4861,3.4955,3.5459,3.613,3.6856,3.6856,3.7185,3.7613,0.0,0.0,0.0,0.0,0.0,0.0,0.0,0.0,0.0,0.0,0.0,0.0,0.0,0.0,0.0,0.0,0.0,3.7583,3.7786,3.8141,3.8446,3.8723,3.9065,3.9542,4.0153,4.0069,4.0019,4.0069,3.9647,3.9525,3.9696,3.9185,3.904,3.9185,3.8766,3.8375,3.8059,3.7568,3.6611,3.5382,3.4425,3.3158,0.0,0.0,0.0,0.0,0.0,0.0,0.0,0.0,2.8421,2.7675,2.7364,2.6771,2.6097,2.5898,2.5736,2.5606,2.587,2.5742,2.5705,2.608,2.5705,2.5524,2.6071,2.5909,2.5828,2.5979,2.5747,2.5732,2.6132,2.664,2.694,2.694,2.736,2.7626,2.7626,2.7663,2.7854,2.8205,2.811,2.8292,2.8858,2.8908,2.8972,2.9226,2.954,2.9803,2.9927,3.0219,3.0462,3.0568,3.0702,3.0821,3.0821,3.1102,3.1292,3.1234,3.1409,3.1655,3.1996,3.2191,3.2453,3.2749,3.3193,3.3403,3.3455,3.4102,3.4382,3.4496,3.5031,3.5637,3.6207,3.6045,3.6457,3.7087,0.0,0.0,0.0,0.0,0.0,0.0,0.0,0.0,0.0,0.0,0.0,0.0,0.0,0.0,0.0,0.0,3.7464,3.748,3.748,3.7828,3.8026,3.8026,3.8439,3.8717,3.8794,3.8832,3.9016,3.9318,3.8941,3.8827,3.9002,3.8616,3.8432,3.8567,3.8319,3.7732,3.6936,3.633,3.5122,3.3526,3.2496,3.1204,0.0,0.0,0.0,0.0,0.0,0.0,0.0,0.0,2.8009,2.7425,2.7105,2.6665,2.624,2.5946,2.5895,2.5895,2.5895,2.5895,2.5895,2.5895,2.5895,2.6063,2.6622,2.6539,2.6385,2.6655,2.6655,2.6644,2.6869,2.7196,2.7441,2.7441,2.7788,2.8122,2.8122,2.7892,2.7925,2.8469,2.819,2.8235,2.9035,2.9226,2.9352,2.9602,2.9927,3.0111,3.0111,3.0401,3.0568,3.0568,3.0762,3.0895,3.0895,3.1234,3.1351,3.1351,3.1467,3.1655,3.1996,3.1996,3.215,3.2398,3.2648,3.2718,3.2773,3.3382,3.3764,3.4052,3.4496,3.5094,3.5732,3.552,3.602,3.6811,0.0,0.0,0.0,0.0,0.0,0.0,0.0,0.0,3.7015,3.7015,3.7015,0.0,0.0,0.0,0.0,0.0,3.7405,3.748,3.748,3.748,3.748,3.748,3.748,3.748,3.748,3.748,3.7943,3.8908,3.8567,3.8391,3.8391,3.8391,3.8262,3.8042,3.7786,3.6829,3.5322,3.4896,3.3297,3.1075,3.0101,2.8963,2.7867,0.0,0.0,0.0,0.0,0.0,0.0,0.0,2.7275,2.6519,2.6519,2.6192,2.5895,2.5895,2.5895,2.5895,2.5895,2.5895,2.5895,2.5895,2.5895,2.5895,2.5895,2.5895,2.6179,2.7016,2.7545,2.7881,2.7893,2.7893,2.7893,2.7893,2.8283,2.851,2.851,2.8044,2.7925,2.8469,2.8381,2.8495,2.9035,2.9415,2.9602,2.9602,2.9927,3.0111,3.0111,3.0401,3.0568,3.0568,3.0955,3.1087,3.1087,3.1366,3.1482,3.1482,3.1482,3.1655,3.1996,3.1996,3.215,3.2398,3.2398,3.2398,3.2398,3.2523,3.2958,3.3503,3.3642,3.4399,3.5374,3.5374,3.5968,3.6771,0.0,0.0,0.0,0.0,0.0,0.0,0.0,0.0,3.618,3.6616,3.6739,0.0,0.0,0.0,0.0,0.0,0.0,0.0,3.7121,3.7121,3.7121,3.7121,3.7121,3.7121,3.7121,3.7121,3.7508,3.8197,3.7918,3.7918,3.8189,3.7786,3.7326,3.6812,3.5982,3.5002,3.3936,3.2638,3.1242,2.9686,2.8719,2.7675,2.6668,0.0,0.0,0.0,0.0,0.0,0.0,0.0,0.0,0.0,2.6494,2.6196,2.5895,2.5895,2.5895,2.5895,2.5895,2.5895,2.5895,2.5895,2.5895,2.5895,2.5895,2.5895,2.6019,2.6594,2.7117,2.7533,2.7869,2.8122,2.8351,2.8351,2.8431,2.851,2.851,2.86,2.8672,2.8802,2.9053,2.9338,2.9803,2.9865,3.0036,3.028,3.0401,3.0462,3.0462,3.0582,3.0642,3.0762,3.0955,3.1132,3.1234,3.1409,3.1482,3.1482,3.1482,3.1655,3.1996,3.1996,3.215,3.2398,3.2523,3.2648,3.2773,3.2973,3.3187,3.3346,3.3398,3.3848,3.4513,3.4706,3.5391,3.6182,0.0,0.0,0.0,0.0,0.0,0.0,0.0,0.0,3.4875,3.504,3.5123,3.5208,0.0,0.0,0.0,0.0,0.0,0.0,3.6984,3.7015,3.7015,3.7015,3.7015,3.7015,3.7015,3.6723,3.6754,3.7087,3.721,3.7405,3.7669,3.6906,3.6322,3.5885,3.476,3.3568,3.2225,3.1011,2.9519,2.7893,2.7128,2.6348,2.5462,0.0,0.0,0.0,0.0,0.0,0.0,0.0,0.0,0.0,2.6267,2.6129,2.5895,2.5895,2.5895,2.5895,2.5895,2.5895,2.5895,2.5895,2.5895,2.5917,2.6129,2.6267,2.654,2.7008,2.7406,2.7775,2.8111,2.8363,2.851,2.851,2.851,2.859,2.8803,2.8948,2.9086,2.9381,2.9659,2.9865,3.005,3.0233,3.0401,3.0568,3.0568,3.0568,3.0568,3.0568,3.0642,3.0702,3.0955,3.1132,3.1234,3.1424,3.1482,3.1482,3.1482,3.1655,3.1996,3.1996,3.215,3.2342,3.2468,3.2578,3.2703,3.3043,3.315,3.315,3.3256,3.3658,3.4101,3.43,3.4975,3.5847,0.0,0.0,3.2632,3.2632,0.0,0.0,0.0,0.0,3.3357,3.2863,3.2792,3.284,0.0,0.0,0.0,0.0,0.0,0.0,3.6676,3.6723,3.6799,3.6877,3.6816,3.6816,3.6816,3.6054,3.5706,3.5706,3.6383,3.68,3.6739,3.5867,3.5325,3.5065,3.3952,3.2364,3.0446,2.9849,2.825,2.6152,2.569,2.5098,2.4515,2.4472,0.0,0.0,0.0,0.0,0.0,0.0,0.0,0.0,2.5895,2.5895,2.5895,2.5895,2.5895,2.5895,2.5895,2.5895,2.5895,2.5895,2.5906,2.6034,2.6501,2.6948,2.7395,2.7782,2.8221,2.8498,2.851,2.851,2.851,2.851,2.851,2.8657,2.9263,2.917,2.9298,2.9896,3.0076,3.0172,3.0172,3.0401,3.0568,3.0568,3.0568,3.0568,3.0568,3.0628,3.0642,3.0642,3.0955,3.1132,3.1146,3.1366,3.1482,3.1482,3.1539,3.1712,3.1996,3.1996,3.2094,3.2247,3.2342,3.2398,3.2453,3.2773,3.2897,3.2951,3.3203,3.3607,3.405,3.4134,3.4769,3.5654,0.0,0.0,3.1817,3.1817,0.0,0.0,0.0,0.0,0.0,0.0,0.0,0.0,0.0,0.0,0.0,0.0,0.0,0.0,3.4562,3.467,3.5115,3.6148,3.5688,3.535,3.535,3.4566,3.4148,3.4148,3.4721,3.4999,3.4846,3.4321,3.3719,3.2944,3.1749,3.069,2.9652,2.8302,2.7291,2.6569,2.5445,2.4961,2.473,2.413,2.4289,0.0,0.0,0.0,0.0,0.0,0.0,0.0,2.5895,2.5895,2.5895,2.5895,2.5895,2.5895,2.5895,2.5895,2.5895,2.5895,2.614,2.6512,2.6909,2.7451,2.7799,2.7914,2.8004,2.8128,2.8407,2.851,2.851,2.851,2.851,2.859,2.8657,2.9083,2.9482,2.9565,3.0149,3.0522,3.0522,3.0582,3.0568,3.0568,3.0568,3.0568,3.0568,3.0702,3.0821,3.1014,3.1176,3.1292,3.1424,3.1482,3.1482,3.1482,3.167,3.1784,3.1841,3.194,3.215,3.2342,3.2523,3.2578,3.2578,3.2935,3.3058,3.3043,3.3256,3.3346,3.3555,3.435,3.4864,3.5249,0.0,0.0,0.0,0.0,0.0,0.0,0.0,0.0,0.0,0.0,0.0,0.0,0.0,0.0,0.0,0.0,3.124,3.1704,3.2738,3.3071,3.3587,3.4589,3.4351,3.4148,3.4066,3.338,3.2961,3.289,3.2749,3.3087,3.3848,3.2989,3.2343,3.1785,3.0413,2.9396,2.872,2.7299,2.6438,2.5881,2.5027,2.4515,2.4337,2.394,2.4139,2.4588,2.4514,0.0,0.0,0.0,0.0,0.0,0.0,0.0,2.5895,2.5895,2.5895,2.5917,2.614,2.6162,2.6256,2.6501,2.6652,2.6925,2.7451,2.773,2.7989,2.814,2.8152,2.8255,2.8498,2.851,2.851,2.851,2.8578,2.8882,2.9549,2.9891,3.0221,3.0623,3.0878,3.0916,3.0611,3.0568,3.0568,3.0568,3.0568,3.0568,3.0568,3.0702,3.0821,3.0955,3.1176,3.1351,3.1409,3.1467,3.1482,3.1482,3.1597,3.1727,3.1898,3.2038,3.2191,3.2398,3.2453,3.2523,3.2508,3.2757,3.2881,3.2866,3.3096,3.3346,3.361,3.4218,3.4816,3.5374,0.0,0.0,0.0,0.0,0.0,0.0,0.0,0.0,0.0,0.0,0.0,0.0,0.0,0.0,2.8408,0.0,0.0,0.0,3.0895,3.1741,3.2414,3.2961,3.3059,3.2989,3.2848,3.2236,3.1829,3.1683,3.0872,3.1267,3.268,3.1602,3.1029,3.091,2.934,2.8381,2.7827,2.6769,2.5891,2.5146,2.4567,2.4172,2.3906,2.3831,2.4106,2.4444,2.4454,2.4922,2.5466,2.5538,0.0,0.0,0.0,0.0,2.5895,2.5895,2.5917,2.6045,2.6395,2.654,2.6673,2.7141,2.7269,2.7449,2.7808,2.7989,2.8116,2.8407,2.851,2.851,2.851,2.851,2.851,2.851,2.8645,2.9238,3.0594,3.0752,3.1045,3.1811,3.1746,3.1482,3.0959,3.0916,3.0858,3.0742,3.0742,3.0684,3.0642,3.0762,3.0881,3.0881,3.1176,3.1351,3.1351,3.1409,3.1482,3.1482,3.1539,3.1769,3.2094,3.2191,3.2302,3.2398,3.2398,3.2398,3.2398,3.2523,3.2594,3.2648,3.2935,3.333,3.3697,3.3984,3.4642,3.5481,0.0,0.0,0.0,0.0,0.0,0.0,0.0,0.0,0.0,0.0,2.6828,2.6939,0.0,2.7134,2.7146,2.713,2.7211,2.7689,2.8756,0.0,0.0,3.2636,3.2046,3.1709,3.1709,3.0859,3.0355,3.0355,2.9819,2.9691,2.991,2.9986,2.972,2.9137,2.8577,2.7894,2.7261,2.6534,2.6016,2.569,2.4615,2.4258,2.4409,2.4021,2.406,2.4221,2.4444,2.4688,2.4986,2.5189,2.5419,0.0,0.0,0.0,2.5895,2.5895,2.6151,2.6406,2.6512,2.6812,2.7082,2.7185,2.7542,2.7797,2.7909,2.8152,2.8407,2.851,2.851,2.851,2.851,2.851,2.851,2.851,2.8712,2.9135,2.9986,3.0519,3.1137,3.1915,3.2211,3.2353,3.2266,3.2266,3.2019,3.1438,3.1395,3.1209,3.0791,3.0955,3.1132,3.1234,3.1409,3.1467,3.1467,3.1482,3.1482,3.1482,3.1769,3.2094,3.2342,3.2342,3.2398,3.2398,3.2398,3.2398,3.2398,3.2523,3.2594,3.2648,3.2843,3.3058,3.324,3.3662,3.4284,3.4958,0.0,0.0,0.0,0.0,0.0,0.0,0.0,0.0,0.0,0.0,0.0,2.6176,2.6094,2.6025,2.5943,2.5639,2.5569,2.5929,2.6801,2.8138,2.9189,2.9915,3.0213,3.0241,3.0177,2.9883,2.9677,2.9521,2.9131,2.8809,2.8741,2.8619,2.8521,2.8448,2.7513,2.6944,2.6546,2.5784,2.5381,2.5284,2.4667,2.4433,2.4454,2.4317,2.4307,2.4423,2.4444,2.4677,2.4901,2.5094,2.5369,2.5652,2.5801,0.0,0.0,0.0,2.6384,2.6635,2.7138,2.7591,2.7897,2.7897,2.8116,2.8255,2.8255,2.8383,2.851,2.851,2.851,2.851,2.851,2.8626,2.8706,2.8688,2.9291,3.0063,3.0895,3.1685,3.2333,3.2791,3.2998,3.2904,3.2556,3.2513,3.2396,3.2092,3.1806,3.1594,3.1377,3.1264,3.1234,3.1278,3.1409,3.1482,3.1482,3.1482,3.1539,3.167,3.1841,3.2053,3.2302,3.2302,3.2342,3.2398,3.2398,3.2398,3.2398,3.2453,3.2523,3.2523,3.2773,3.3081,3.3439,3.3815,3.4301,3.488,0.0,0.0,0.0,0.0,0.0,0.0,0.0,0.0,0.0,0.0,0.0,2.5453,2.5087,0.0,0.0,0.0,2.4492,2.4725,2.5324,2.6064,2.6823,2.7526,2.8421,2.8858,2.8803,2.887,2.887,2.8724,2.8315,2.8072,2.7941,2.7419,2.7372,2.7684,2.6691,2.6084,2.5825,2.5136,2.4784,2.4688,2.454,2.4433,2.4433,2.4454,2.454,2.454,2.454,2.4667,2.4805,2.5146,2.537,2.5546,2.579,2.5895,0.0,0.0,0.0,2.7031,2.7832,2.8267,2.851,2.851,2.851,2.851,2.851,2.851,2.851,2.851,2.851,2.851,2.851,2.8657,2.8779,2.8814,2.9821,3.0843,3.1709,3.2577,3.335,3.3694,3.3703,3.3514,3.305,3.2991,3.2933,3.2774,3.2484,3.2185,3.1863,3.1693,3.1456,3.1351,3.1467,3.1482,3.1482,3.1482,3.1597,3.1799,3.1799,3.194,3.2191,3.2191,3.2287,3.2398,3.2398,3.2398,3.2398,3.2398,3.2398,3.2398,3.2648,3.2996,3.3407,3.3799,3.4301,3.4816,0.0,0.0,0.0,0.0,0.0,0.0,0.0,0.0,0.0,0.0,0.0,2.4707,2.448,2.442,2.4276,2.3998,2.3925,2.4203,2.4705,2.5219,2.5888,2.6799,2.7369,0.0,2.7891,2.7661,2.7592,2.7603,2.7337,2.7256,2.7244,2.6577,2.6242,2.6296,2.6201,2.5719,2.4911,2.4667,2.4433,2.4211,2.4211,2.4211,2.4211,2.4433,2.454,2.454,2.454,2.454,2.4571,2.5039,2.5243,2.5292,2.5768,2.5895,2.6012,0.0,0.0,0.0,2.8383,2.8498,2.851,2.851,2.851,2.851,2.851,2.851,2.851,2.851,2.851,2.851,2.851,2.8633,2.8799,2.8786,2.9783,3.0908,3.1696,3.2577,3.3506,3.4288,3.4356,3.4356,3.4312,3.4312,3.4066,3.3456,3.3565,3.3123,3.2044,3.2137,3.202,3.1497,3.1482,3.1482,3.1482,3.1482,3.1597,3.1799,3.1799,3.194,3.2191,3.2191,3.2287,3.2398,3.2398,3.2398,3.2398,3.2398,3.2398,3.2398,3.2398,3.2508,3.2726,3.3407,3.4037,3.4688,0.0,0.0,0.0,0.0,0.0,0.0,0.0,0.0,0.0,0.0,0.0,0.0,0.0,2.3497,2.3276,2.2756,2.2606,2.2682,2.3005,2.4062,2.4824,2.5318,2.6334,2.6917,2.6917,2.7033,2.7033,2.6857,2.6659,2.6476,2.6318,2.5842,2.55,2.5328,2.5328,2.5136,2.4667,2.4423,2.4196,2.3931,2.4145,2.4171,2.4211,2.4433,2.454,2.454,2.454,2.4571,2.4794,2.5146,2.5275,2.5525,2.579,2.5895,2.6041,2.671,2.7544,2.8279,2.8498,2.851,2.851,2.851,2.851,2.851,2.851,2.851,2.8578,2.8676,2.8664,2.8755,2.8895,2.9363,2.9771,2.9744,3.1149,3.236,3.2678,3.3451,3.4045,3.4346,3.4414,3.4414,3.4414,3.4414,3.4312,3.4095,3.3937,3.3691,3.3313,3.2733,3.2363,3.2168,3.1691,3.1482,3.1482,3.1482,3.1597,3.1799,3.1898,3.2038,3.2191,3.2302,3.2342,3.2398,3.2398,3.2398,3.2398,3.2398,3.2398,3.2398,3.2523,3.2648,3.2827,3.3171,3.3507,3.3866,0.0,0.0,0.0,0.0,0.0,2.3593,2.3593,2.3372,2.315,2.3075,0.0,0.0,0.0,0.0,2.2176,2.1645,2.1492,2.1415,2.1568,2.2814,2.3646,2.3785,2.5103,2.5863,2.5946,2.6207,2.6207,2.603,2.5946,2.5764,2.5672,2.5314,2.5031,2.4911,2.4805,2.4667,2.4337,2.4186,2.3901,2.373,2.3974,2.4038,2.4084,2.4423,2.454,2.454,2.454,2.4677,2.4911,2.5126,2.5391,2.5652,2.5801,2.6129,2.6474,2.7174,2.7897,2.851,2.851,2.851,2.851,2.851,2.8566,2.8554,2.8498,2.8534,2.8669,2.8797,2.8814,2.8946,2.9397,3.023,3.0726,3.0416,3.202,3.3223,3.3185,3.3894,3.4414,3.4414,3.4414,3.4414,3.4414,3.4414,3.4414,3.4481,3.4354,3.4262,3.4105,3.3255,3.2647,3.2198,3.1706,3.1482,3.1482,3.1482,3.1597,3.1727,3.1769,3.1925,3.215,3.2247,3.2287,3.2398,3.2398,3.2398,3.2398,3.2398,3.2398,3.2398,3.2523,3.2594,3.2773,3.3065,3.3261,3.3503,0.0,0.0,2.4949,2.4949,2.3852,2.2927,2.2927,2.2628,2.2327,2.2101,0.0,0.0,0.0,0.0,0.0,2.0644,2.0566,2.0566,2.0586,2.1558,2.2277,2.2503,2.3791,2.4615,2.4861,2.5031,2.52,2.52,2.52,2.52,2.52,2.4955,2.4911,2.4901,2.4657,2.4423,2.4211,2.3941,2.372,2.3505,2.373,2.3784,2.3841,2.4317,2.4454,2.4444,2.454,2.4677,2.4965,2.5178,2.5408,2.5652,2.5884,2.6501,2.7304,2.7775,2.8152,2.851,0.0,0.0,0.0,2.851,2.8688,2.873,2.8566,2.865,2.8809,2.8809,2.8819,2.916,3.011,3.1175,3.1568,3.0816,3.2154,3.3227,3.3227,3.3894,3.4414,3.4414,3.4414,3.4414,3.4414,3.4414,3.4481,3.4698,3.4802,3.472,3.4263,3.3811,3.2931,3.1571,3.1541,3.1526,3.1497,3.1497,3.1497,3.1482,3.1539,3.1712,3.1996,3.1996,3.2135,3.2398,3.2398,3.2398,3.2398,3.2398,3.2398,3.2398,3.2398,3.2398,3.2492,3.3145,3.3459,3.3813,0.0,2.2903,2.3061,2.3197,2.2478,2.1873,2.1873,2.1731,2.1425,0.0,0.0,0.0,2.0894,2.0644,2.0371,1.9901,1.9715,1.9818,2.0287,2.0879,2.164,2.2473,2.311,2.358,2.3841,2.409,2.4176,2.4176,2.4529,2.4594,2.4478,2.454,2.4571,2.4571,2.455,2.4307,2.3882,2.3834,2.3612,2.3261,2.3622,2.3424,2.2916,2.4074,2.4084,2.3609,2.4454,2.4922,2.5114,2.5421,2.5652,2.5895,2.6256,2.6704,2.7325,2.7726,2.8152,2.851,2.851,0.0,0.0,0.0,0.0,0.0,2.8688,2.8791,2.887,2.916,2.9718,3.0215,3.0667,3.1879,3.2736,3.2552,3.3339,3.4045,3.4045,3.4264,3.4414,3.4414,3.4414,3.4481,3.4631,3.4631,3.4683,3.4802,3.5016,3.5073,3.4946,3.4498,3.3814,3.2976,3.2961,3.2721,3.2243,3.2243,3.2003,3.1482,3.1769,3.194,3.1996,3.2191,3.2342,3.2398,3.2398,3.2398,3.2398,3.2398,3.2398,3.2398,3.2398,3.2453,3.2578,3.278,3.3294,3.4004,2.1162,2.1002,2.0912,2.1053,2.0555,2.0138,2.0138,1.9982,1.9737,0.0,0.0,0.0,1.9208,1.9416,1.9408,1.8929,1.9119,1.9471,2.0035,2.0568,2.1202,2.2064,2.265,2.3057,2.3319,2.358,2.3754,2.3841,2.4024,2.4166,2.4074,2.4155,2.4251,2.42,2.3831,2.3388,2.3051,2.266,2.2562,2.2688,2.2678,2.2621,2.2639,2.3574,2.3817,2.3831,2.4571,2.5051,2.5243,2.5505,2.5884,2.6256,2.6641,2.7126,2.7608,2.8012,2.8279,2.851,2.851,2.851,2.8498,2.8645,0.0,0.0,2.8779,2.8924,2.916,2.9716,3.0241,3.082,3.1696,3.2563,3.3297,3.3673,3.4113,3.4414,3.4414,3.4414,3.4414,3.4414,3.4414,3.4481,3.4563,3.4563,3.4683,3.4868,3.5001,3.5029,3.4877,3.4618,3.4173,3.3514,3.3499,3.3305,3.2931,3.2916,3.2736,3.2347,3.2598,3.2773,3.2816,3.3031,3.3203,3.326,3.326,3.326,3.326,3.326,3.309,3.2813,3.2813,3.3054,3.3388,3.3388,3.3846,3.446,0.0,1.9199,1.8772,1.8772,1.8429,1.8238,1.8282,1.8023,1.7781,0.0,1.7506,1.7392,1.7101,1.7839,1.8244,1.7717,1.8354,1.8972,1.941,2.0134,2.0716,2.1222,2.2127,2.2696,2.2872,2.3232,2.3406,2.3484,2.358,2.3511,2.3477,2.3511,2.3587,2.3619,2.2715,2.2227,2.213,2.1056,2.1146,2.1938,2.135,2.1858,2.2853,2.3043,2.3594,2.4423,2.4677,2.4925,2.5282,2.5535,2.6023,2.6607,2.7031,2.7545,2.8001,2.8383,2.851,2.851,2.851,2.851,2.8578,2.8767,2.9015,0.0,2.9028,2.9328,2.9871,3.0393,3.0683,3.1328,3.2918,3.3297,3.3589,3.4264,3.4414,3.4414,3.4414,3.4414,3.4414,3.4414,3.4414,3.4481,3.4481,3.4481,3.4601,3.4935,3.5001,3.4881,3.4622,3.4592,3.4322,3.3739,3.3724,3.3679,3.3604,3.3604,3.3559,3.3499,3.3698,3.388,3.3985,3.4149,3.4327,3.4475,3.4475,3.4475,3.4475,3.4475,3.4091,3.3521,3.3521,3.3906,3.4475,3.4475,3.4682,3.5112,1.7677,1.7677,1.7596,1.7596,1.7546,1.7596,1.7896,1.7854,1.7787,1.7563,1.7165,1.6914,1.6847,1.7033,1.6996,1.6558,1.6639,1.6978,1.74,1.8075,1.8796,1.9647,2.0722,2.1471,2.1713,2.2176,2.2167,2.1784,2.1979,2.1826,2.121,2.1416,2.1979,2.283,2.1699,2.2026,2.3287,2.1564,2.0997,2.1235,2.187,2.2364,2.2809,2.3047,2.3229,2.3398,2.3851,2.4544,2.5292,2.5673,2.614,2.6624,2.7036,2.7531,2.8001,2.8383,2.851,2.851,2.851,2.8633,2.8767,2.8779,2.9406,0.0,3.0228,3.082,3.1415,3.1709,3.229,3.2791,3.3143,3.3742,3.4196,3.4332,3.4414,3.4414,3.4414,3.4414,3.4481,3.4631,3.4631,3.4765,3.5016,3.5016,3.5162,3.5374,3.5359,3.5379,3.531,3.5295,3.525,3.5115,3.5115,3.4846,3.4292,3.4277,3.4023,3.3499,3.3668,3.3849,3.3985,3.4149,3.4327,3.4475,3.4475,3.4475,3.4475,3.4475,3.4398,3.426,3.426,3.4352,3.4475,3.4475,3.4917,3.5574,1.6108,1.6026,1.5869,1.5869,1.5845,1.6017,1.6274,1.6174,1.5987,1.6051,1.581,1.5666,1.5481,1.5968,1.6151,1.5855,1.6148,1.6592,1.7064,1.7706,1.8263,1.8576,1.9612,2.0322,2.0766,2.0567,2.0718,2.1131,2.0899,2.0837,2.0953,2.1221,2.1715,2.2311,2.1253,2.1302,2.208,2.0772,2.0736,2.1626,2.1293,2.1346,2.163,2.2217,2.2698,2.3231,2.4181,2.4925,2.5557,2.579,2.6289,2.6869,2.7163,2.7643,2.8255,2.8407,2.851,2.851,2.851,2.8566,2.8712,2.8882,2.9651,0.0,0.0,3.1267,3.2087,3.2434,3.2861,3.3297,3.3742,3.4113,3.4414,3.4414,3.4414,3.4414,3.4414,3.4414,3.4414,3.4549,3.4563,3.4698,3.4898,3.4964,3.5096,3.5359,3.5439,3.5504,3.5504,3.5504,3.5504,3.5504,3.5504,3.534,3.4996,3.4996,3.4816,3.4502,3.4645,3.477,3.4832,3.5079,3.5263,3.5339,3.5476,3.5476,3.5476,3.5476,3.5476,3.5445,3.5106,3.5183,3.5476,3.5476,3.5813,3.6212,1.4713,1.4475,1.425,1.4389,1.4441,1.4563,1.4852,1.4539,1.4345,1.4566,1.4593,1.4453,1.4259,1.4988,1.5447,1.5255,1.5817,1.6414,1.6657,1.7483,1.781,1.7499,1.8372,1.9147,1.9667,1.9084,1.9273,2.0343,2.0034,2.009,2.0503,2.0907,2.1418,2.1785,2.0604,2.0413,2.0924,2.0153,2.0611,2.1788,2.068,2.058,2.119,2.1544,2.241,2.3486,2.4732,2.5466,2.5895,2.5895,2.6395,2.7103,2.7174,2.7758,2.8395,2.8498,2.851,2.851,2.851,2.851,2.8657,2.9197,2.9947,3.0683,0.0,0.0,0.0,3.3087,3.3297,3.3604,3.4264,3.4414,3.4414,3.4414,3.4414,3.4481,3.4481,3.4481,3.4481,3.4481,3.4549,3.4616,3.4831,3.4831,3.4964,3.5228,3.5439,3.5504,3.5504,3.5504,3.5504,3.5504,3.5504,3.5504,3.5504,3.5504,3.5504,3.5504,3.5589,3.5703,3.5752,3.6022,3.6211,3.6274,3.6414,3.6492,3.6492,3.6492,3.6492,3.6445,3.5891,3.6014,3.6492,3.6492,3.6554,3.6662,1.3561,1.373,1.39,1.4163,1.4141,1.433,1.493,1.4772,1.4608,1.4659,1.4524,1.4345,1.425,1.4382,1.4502,1.4406,1.4694,1.4879,1.4663,1.5523,1.5994,1.5752,1.685,1.7672,1.8026,1.8249,1.8364,1.8041,1.902,1.8839,1.7461,1.8648,1.9726,2.0722,1.8811,1.9619,2.2124,2.1435,2.0716,2.0247,2.1124,2.2501,2.3857,2.2309,2.2834,2.445,2.4957,2.5473,2.5895,2.5895,2.6162,2.6624,2.7059,2.7517,2.8024,2.8395,2.851,2.851,2.851,2.8657,2.9028,2.9947,3.0908,3.1856,3.272,0.0,3.4196,3.4196,0.0,3.4264,3.4414,0.0,0.0,3.4414,3.4563,3.4698,3.4698,3.475,3.4868,3.4868,3.5016,3.5228,3.5374,3.5439,3.5439,3.5439,3.5504,3.5504,3.5504,3.5504,3.5504,3.5504,3.5504,3.5504,3.5504,3.5504,3.5504,3.5504,3.5504,3.5683,3.5973,3.6037,3.6163,3.6492,3.6492,3.6492,3.6492,3.6492,3.6492,3.6476,3.6415,3.643,3.6492,3.6492,3.6492,3.6554,1.3137,1.3392,1.3651,1.3941,1.3951,1.4193,1.4686,1.4697,1.4652,1.4478,1.4394,1.4298,1.4298,1.4298,1.4298,1.4298,1.4394,1.4388,1.428,1.514,1.5345,1.4765,1.5724,1.6427,1.6848,1.6556,1.675,1.7247,1.7502,1.755,1.7569,1.8288,1.9047,1.9766,1.9068,1.9471,2.0726,2.075,2.0678,2.0734,2.145,2.2198,2.2769,2.1356,2.2089,2.4023,2.4851,2.5419,2.5768,2.5884,2.6151,2.6563,2.6704,2.7313,2.7897,2.8116,2.8279,2.851,2.851,2.8578,2.8736,2.9328,3.0519,3.1769,3.229,3.3465,3.4414,3.4414,0.0,0.0,0.0,0.0,0.0,0.0,3.4481,3.4563,3.4698,3.4817,3.4935,3.4935,3.5001,3.5082,3.5294,3.5439,3.5504,3.5504,3.5504,3.5504,3.5504,3.5504,3.5504,3.5504,3.5504,3.5504,3.5504,3.5504,3.5504,3.5504,3.5504,3.5569,3.5748,3.591,3.61,3.6241,3.6429,3.6492,3.6492,3.6492,3.6492,3.6492,3.6492,3.6492,3.6492,3.6492,3.6492,3.6492,1.2095,1.279,1.342,1.3774,1.3835,1.4006,1.4434,1.4564,1.449,1.4298,1.4298,1.4298,1.4298,1.4394,1.4394,1.4394,1.4586,1.458,1.4567,1.5019,1.5127,1.4496,1.4923,1.5364,1.5903,1.5325,1.551,1.6552,1.6522,1.6835,1.7677,1.814,1.8698,1.9055,1.9125,1.9281,1.9561,2.0054,2.0439,2.0624,2.1137,2.1349,2.1281,2.1121,2.1832,2.3222,2.4703,2.5378,2.5652,2.579,2.6129,2.6373,2.6501,2.6948,2.7579,2.7829,2.8084,2.8351,2.851,2.851,2.8578,2.9028,3.0355,3.1609,3.2001,3.3311,3.4414,3.4414,3.4414,0.0,0.0,0.0,3.4414,3.4481,0.0,3.4616,3.4831,3.4949,3.5001,3.5001,3.5001,3.5148,3.5294,3.5439,3.5504,3.5504,3.5504,3.5504,3.5504,3.5504,3.5504,3.5504,3.5504,3.5504,3.5504,3.5504,3.5504,3.5504,3.5504,3.5504,3.5554,3.5846,3.6037,3.61,3.6367,3.6492,3.6492,3.6492,3.6492,3.6492,3.6492,3.6492,3.6492,3.6492,3.6492,3.6492,0.9923,1.166,1.3318,1.3777,1.3882,1.397,1.4303,1.4292,1.4298,1.4298,1.4298,1.4298,1.4298,1.4496,1.4688,1.4688,1.5166,1.5356,1.5077,1.5089,1.5089,1.5083,1.4592,1.461,1.5147,1.4833,1.5006,1.558,1.6692,1.7051,1.6676,1.7885,1.8527,1.8796,1.8365,1.8651,1.9546,2.0113,1.9711,1.9004,1.9937,2.0343,2.0534,2.2364,2.2608,2.2341,2.4433,2.5381,2.5652,2.579,2.5906,2.6012,2.6384,2.6501,2.6696,2.7648,2.7924,2.7962,2.8351,2.851,2.8736,2.9691,3.0719,3.1756,3.2648,3.3673,3.4414,3.4414,3.4414,3.4414,3.4414,3.4414,3.4481,3.4631,3.4817,0.0,0.0,3.5374,3.5439,3.5213,3.5359,3.5504,3.5504,3.5504,3.5504,3.5504,3.5504,3.5504,3.5504,3.5504,3.5504,3.5504,3.5504,3.5504,3.5504,3.5504,3.5504,3.5504,3.5504,3.5539,3.5688,3.591,3.6085,3.6211,3.6414,3.6492,3.6492,3.6492,3.6492,3.6492,3.6492,3.6492,3.6492,3.6492,3.6492,3.6492,1.02,1.1289,1.2104,1.2615,1.3371,1.3987,1.4244,1.4298,1.4394,1.4496,1.4592,1.4592,1.479,1.4885,1.4981,1.4981,1.5172,1.5172,1.5083,1.4885,1.4885,1.5083,1.4592,1.4502,1.4808,1.4898,1.5089,1.528,1.5994,1.6271,1.6312,1.6958,1.7326,1.7613,1.7908,1.8272,1.8635,1.9068,1.9068,1.8835,1.9168,1.9701,2.049,2.239,2.298,2.2926,2.4571,2.5264,2.5408,2.5779,2.5895,2.5906,2.6034,2.6278,2.6635,2.7255,2.7671,2.7992,2.8407,2.851,2.8578,2.8961,3.0063,3.1254,3.1829,3.3017,3.4059,3.4346,3.4414,3.4414,3.4414,3.4414,3.4481,3.4698,3.4765,3.4883,0.0,3.5359,3.5439,3.5439,3.5439,3.5504,3.5504,3.5504,3.5504,3.5504,3.5504,3.5504,3.5504,3.5504,3.5504,3.5504,3.5504,3.5504,3.5504,3.5504,3.5504,3.5504,3.5504,3.5489,3.5539,3.5703,3.5894,3.61,3.6211,3.6352,3.6492,3.6492,3.6492,3.6492,3.6492,3.6492,3.6492,3.6492,3.6492,3.6492,0.9241,1.0136,1.1146,1.2492,1.3485,1.4099,1.4268,1.4394,1.4496,1.4694,1.479,1.4885,1.5083,1.5178,1.5267,1.5267,1.5267,1.5363,1.5363,1.507,1.507,1.5363,1.4879,1.4688,1.4975,1.5077,1.5178,1.5267,1.5547,1.5927,1.6312,1.6494,1.6777,1.716,1.7714,1.7994,1.8087,1.8558,1.8735,1.8827,1.918,1.9676,2.0474,2.2354,2.3105,2.3272,2.4677,2.5168,2.5292,2.5768,2.5895,2.5895,2.5895,2.6045,2.6351,2.6783,2.7302,2.7773,2.8155,2.8351,2.851,2.851,2.9549,3.0732,3.1389,3.2506,3.3534,3.3894,3.4196,3.4264,3.3687,3.4045,3.4414,3.4399,3.4601,3.4883,0.0,3.5439,3.5504,3.5504,3.5504,3.5504,3.5504,3.5504,3.5504,3.5504,3.5504,3.5504,3.5504,3.5504,3.5504,3.5504,3.5504,3.5504,3.5504,3.5504,3.5504,3.5504,3.5504,3.5504,3.5504,3.5638,3.5752,3.5894,3.6085,3.6211,3.6414,3.6414,3.6414,3.6492,3.6492,3.6492,3.6492,3.6492,3.6492,3.6492,0.7221,0.8471,1.0491,1.335,1.4034,1.4202,1.4298,1.4496,1.4688,1.4694,1.4981,1.5083,1.5083,1.5356,1.554,1.554,1.5737,1.5832,1.5832,1.5635,1.5635,1.5825,1.5363,1.5267,1.5445,1.5267,1.5267,1.554,1.554,1.592,1.6588,1.6581,1.6864,1.7333,1.7621,1.7815,1.8087,1.8381,1.8658,1.892,1.9803,2.0249,2.0593,2.2351,2.3071,2.3378,2.4688,2.5253,2.5292,2.5768,2.5895,2.5895,2.5895,2.5895,2.6012,2.6384,2.6832,2.7313,2.7765,2.8191,2.851,2.851,2.925,3.0215,3.1167,3.2132,3.2861,3.3073,3.3742,3.3825,3.2448,3.3311,3.4249,3.3879,3.4438,3.5067,3.5439,3.5504,3.5504,3.5504,3.5504,3.5504,3.5504,3.5504,3.5504,3.5504,3.5439,3.5424,3.5424,3.5439,3.5359,3.5359,3.5359,3.5424,3.5424,3.5424,3.5439,3.5504,3.5504,3.5504,3.5504,3.5653,3.5688,3.5688,3.5894,3.61,3.6196,3.6196,3.6336,3.6492,3.6492,3.6492,3.6492,3.6492,3.6492,3.6492,0.8295,1.0368,1.2057,1.2833,1.308,1.3414,1.4196,1.4496,1.479,1.4981,1.5261,1.5452,1.5642,1.5642,1.5737,1.5737,1.5737,1.5832,1.5832,1.5635,1.5635,1.5825,1.5363,1.5267,1.5445,1.5445,1.5445,1.554,1.5635,1.5927,1.6312,1.6494,1.6777,1.7066,1.7535,1.7815,1.8087,1.8381,1.8658,1.8827,1.9096,2.0085,2.1418,2.2073,2.3144,2.454,2.5028,2.537,2.5535,2.579,2.5895,2.5895,2.5895,2.5895,2.6012,2.6384,2.6794,2.729,2.7797,2.8187,2.851,2.851,2.904,2.9704,3.0279,3.0957,3.1549,3.2074,3.2304,3.2591,3.2861,3.3227,3.3742,3.4385,3.4817,3.5148,3.5294,3.5439,3.5504,3.5504,3.5504,3.5504,3.5504,3.5504,3.5504,3.5504,3.4986,3.461,3.461,3.4056,3.3796,3.3796,3.3796,3.4056,3.461,3.461,3.4905,3.5504,3.5504,3.5504,3.5504,3.5554,3.5604,3.5688,3.5752,3.5943,3.6196,3.6196,3.6336,3.6492,3.6492,3.6492,3.6492,3.6492,3.6492,3.6492,0.8181,0.9633,1.0974,1.1853,1.2145,1.2732,1.4202,1.4592,1.479,1.5083,1.5356,1.554,1.5642,1.5737,1.5832,1.5832,1.5832,1.5832,1.5832,1.5737,1.5635,1.5832,1.5553,1.5553,1.5832,1.5832,1.5832,1.5832,1.6021,1.6211,1.6407,1.669,1.6871,1.716,1.7434,1.7714,1.8087,1.8465,1.8743,1.8827,1.9096,1.982,0.0,2.1596,2.2833,2.4176,2.4721,2.5189,2.5652,2.579,2.5895,2.5895,2.5895,2.5895,2.5917,2.6151,2.6689,2.7244,2.7532,2.8004,2.851,2.851,2.8736,2.9184,2.9845,3.0291,3.0594,3.1057,3.1502,3.1723,3.1536,3.242,3.352,3.4549,3.4883,3.5082,3.5082,3.4935,3.4868,3.4868,3.4572,3.4409,3.4505,3.5082,3.5213,3.4409,3.4245,3.4027,3.3739,3.3255,3.3129,3.3213,3.3213,3.3561,3.4312,3.4312,3.4677,3.5504,3.5504,3.5504,3.5504,3.5504,3.5554,3.5589,3.5589,3.5767,3.6006,3.6006,3.6148,3.6352,3.6492,3.6492,3.6492,3.6492,3.6492,3.6492,0.7646,0.8038,0.9019,1.0877,1.1658,1.2635,1.449,1.4783,1.4885,1.5077,1.5356,1.554,1.554,1.573,1.5832,1.5832,1.5832,1.5832,1.5832,1.5832,1.5832,1.592,1.592,1.6021,1.6224,1.6218,1.6224,1.6224,1.6494,1.6588,1.6588,1.6878,1.7066,1.7326,1.7326,1.7613,1.8179,1.8643,1.892,1.8912,1.9463,1.9729,1.9994,2.1248,2.2356,2.3421,2.4237,2.5051,2.5663,2.5801,2.5895,2.5895,2.5895,2.5895,2.5895,2.5895,2.655,2.7232,2.7198,2.7832,2.851,2.851,2.851,2.8736,2.9614,2.9756,2.9845,3.0088,3.0833,3.1044,2.9716,3.1389,3.3297,3.4182,3.4452,3.4572,3.4572,3.4206,3.3919,3.3919,3.3255,0.0,3.3003,3.4288,3.4558,3.3031,3.3394,3.3463,3.282,3.2607,3.2692,3.2875,3.2875,3.3213,3.4027,3.4027,3.4476,3.5344,3.5344,3.5424,3.5504,3.5504,3.5504,3.5504,3.5504,3.5604,3.5688,3.5752,3.5943,3.6274,3.6414,3.6492,3.6492,3.6492,3.6492,3.6492,0.7942,0.941,1.0877,1.1463,1.3028,1.4388,1.5255,1.535,1.5356,1.5452,1.5642,1.5737,1.5737,1.5737,1.5832,1.5832,1.5832,1.5927,1.6123,1.613,1.6218,1.6494,1.6487,1.6494,1.6494,1.6494,1.6407,1.6224,1.6494,1.6588,1.6588,1.6878,1.7066,1.7326,1.7326,1.7613,1.8179,1.9096,1.9463,1.9463,2.0011,2.0637,2.1338,2.1774,2.295,2.4292,2.4682,2.5303,2.5884,2.5895,2.5895,2.5895,2.5895,2.5895,2.5895,2.5895,2.655,2.7209,2.7197,2.7806,2.851,2.851,2.851,2.859,2.8736,2.8724,2.8803,2.9028,2.9172,2.9471,3.0024,3.1206,3.216,3.2519,3.2706,3.2749,3.2749,3.282,3.289,3.289,3.2749,3.2407,3.1856,3.2763,3.3255,3.2918,3.2434,3.2146,3.2001,3.1281,3.1022,3.1408,3.1185,3.1603,3.2506,3.2506,3.3199,3.4528,3.4528,3.4839,3.5504,3.5504,3.5504,3.5504,3.5504,3.5604,3.5688,3.5894,3.6163,3.6429,3.6492,3.6492,3.6492,3.6492,3.6492,3.6492,0.8432,0.9706,1.1072,1.1853,1.3409,1.4765,1.5724,1.6008,1.592,1.554,1.554,1.5635,1.5635,1.5832,1.6028,1.6028,1.6116,1.6305,1.6407,1.6407,1.6494,1.6581,1.6588,1.6683,1.6784,1.6784,1.6784,1.6602,1.6871,1.6871,1.6784,1.7059,1.7239,1.7333,1.7613,1.8079,1.8727,1.9371,1.9737,2.0011,2.0464,2.0907,2.1436,2.2148,2.3135,2.4196,2.4723,2.5337,2.5895,2.5895,2.5895,2.5895,2.5895,2.5895,2.5895,2.5895,2.6346,2.6891,2.7093,2.7714,2.8283,2.8431,2.851,2.851,2.851,2.851,2.851,2.8657,2.8724,2.9106,3.0088,3.0758,3.1341,3.1856,3.2074,3.2205,3.2205,3.1988,3.1842,3.1842,3.1563,3.1206,3.0934,3.1206,3.1429,3.1442,3.1489,3.1355,3.0934,3.0508,3.0368,3.0672,3.0596,3.1035,3.1942,3.1942,3.2706,3.4312,3.4312,3.4743,3.5504,3.5504,3.5504,3.5504,3.5504,3.5554,3.5604,3.591,3.6115,3.6241,3.6429,3.6492,3.6492,3.6492,3.6492,3.6492,0.9406,1.0382,1.1458,1.2619,1.3878,1.5038,1.6096,1.648,1.64,1.5825,1.573,1.573,1.573,1.6021,1.6319,1.6319,1.6494,1.6581,1.6683,1.6683,1.6683,1.677,1.677,1.6871,1.7066,1.7066,1.7066,1.6979,1.7246,1.7246,1.6979,1.7239,1.7326,1.7426,1.7994,1.855,1.9188,1.9554,2.0011,2.0464,2.1006,2.1266,2.1445,2.2441,2.3309,2.4155,2.4646,2.5338,2.5895,2.5895,2.5895,2.5895,2.5895,2.5895,2.5895,2.5895,2.6162,2.659,2.7082,2.7509,2.7962,2.8431,2.851,2.851,2.851,2.851,2.851,2.851,2.8657,2.9028,2.9871,3.0088,3.0456,3.1193,3.1415,3.1563,3.1576,3.122,3.0872,3.0872,3.0368,3.0075,3.0292,3.0152,3.0011,3.0011,3.0633,3.0696,3.0152,3.0088,3.0152,3.0368,3.0368,3.0722,3.1589,3.1603,3.2362,3.3822,3.3959,3.4476,3.5279,3.5424,3.5504,3.5504,3.5504,3.5504,3.5554,3.5846,3.5973,3.6037,3.6289,3.6414,3.6414,3.6492,3.6492,3.6492,1.1736,1.2807,1.3776,1.4333,1.5311,1.6096,1.6487,1.6581,1.6588,1.6487,1.6494,1.6494,1.6494,1.6494,1.6588,1.6588,1.6588,1.6683,1.6979,1.6979,1.7066,1.7232,1.7232,1.7239,1.7239,1.7239,1.7153,1.6979,1.7246,1.7246,1.6979,1.7239,1.7426,1.7721,1.8195,1.8751,1.9279,1.992,2.0464,2.0997,2.1463,2.1998,2.2618,2.2803,2.3657,2.4775,2.4871,2.5295,2.5895,2.5895,2.5895,2.5895,2.5895,2.5895,2.5895,2.5895,2.6162,2.6613,2.7082,2.7522,2.7962,2.8431,2.851,2.851,2.851,2.851,2.851,2.851,2.851,2.8578,2.8882,2.8949,2.9106,2.9561,2.9639,2.9729,2.9998,2.9934,2.9934,2.9934,2.9869,2.9869,2.9869,2.9869,2.9869,2.9869,3.0075,3.0152,3.0075,2.9934,3.0011,3.0368,3.0228,3.0381,3.0761,3.0761,3.132,3.229,3.3003,3.3699,3.4461,3.5198,3.5504,3.5504,3.5504,3.5539,3.5688,3.5688,3.5831,3.6037,3.6148,3.6211,3.6274,3.6414,3.6492,3.6492,1.2807,1.3872,1.4651,1.5019,1.5994,1.6777,1.6958,1.7052,1.7052,1.7052,1.677,1.6588,1.6588,1.6777,1.6878,1.6878,1.6965,1.7052,1.7153,1.7153,1.7246,1.7326,1.7326,1.7326,1.7326,1.7326,1.734,1.7448,1.734,1.734,1.7448,1.7535,1.7815,1.8195,1.8743,1.9288,1.992,2.0464,2.1006,2.1454,2.1642,2.2176,2.2794,2.3212,2.3983,2.4946,2.538,2.5644,2.5895,2.5895,2.5895,2.5895,2.5895,2.5895,2.5895,2.5895,2.6157,2.6644,2.707,2.7545,2.7962,2.8431,2.851,2.851,2.851,2.851,2.851,2.851,2.851,2.851,2.8578,2.8724,2.887,2.9028,2.9263,2.9419,2.9521,2.9702,2.9792,2.9792,2.9792,2.9792,2.9792,2.9792,2.9792,2.9792,2.9869,2.9934,2.9934,2.9869,2.9869,3.0011,2.9934,3.0088,3.0318,3.0457,3.1022,3.1942,3.2362,3.3129,3.4312,3.461,3.5052,3.5504,3.5504,3.5554,3.5604,3.5638,3.5752,3.5831,3.6022,3.6148,3.6211,3.6274,3.6414,3.6492,1.3878,1.4848,1.571,1.5886,1.6574,1.716,1.7232,1.7326,1.7326,1.7326,1.7052,1.677,1.677,1.6965,1.7066,1.7066,1.7239,1.7326,1.7326,1.7326,1.7326,1.7326,1.7326,1.7333,1.7426,1.7426,1.7527,1.7815,1.7621,1.7621,1.7815,1.7916,1.8195,1.8751,1.9096,1.9737,2.0555,2.0817,2.1275,2.1741,2.1741,2.2176,2.2882,2.3551,2.4241,2.4946,2.5644,2.5895,2.5895,2.5895,2.5895,2.5895,2.5895,2.5895,2.5895,2.6052,2.6257,2.6637,2.7267,2.7661,2.7962,2.8431,2.851,2.851,2.851,2.851,2.851,2.851,2.851,2.851,2.851,2.8657,2.8724,2.8803,2.9028,2.9263,2.9263,2.9534,2.9702,2.9702,2.9779,2.9792,2.9792,2.9792,2.9792,2.9792,2.9792,2.9792,2.9792,2.9792,2.9792,2.9792,2.9792,2.9856,3.0075,3.0228,3.0735,3.1455,3.1869,3.2563,3.3685,3.4095,3.4758,3.5504,3.5504,3.5504,3.5504,3.5589,3.5638,3.5688,3.5831,3.6022,3.6196,3.6196,3.6352,3.6492,1.5337,1.6211,1.7066,1.7239,1.7326,1.7326,1.7326,1.7326,1.7326,1.7326,1.7326,1.7326,1.7326,1.7326,1.7326,1.7326,1.7326,1.7326,1.7326,1.7326,1.7326,1.7326,1.7326,1.7426,1.7721,1.7721,1.7815,1.8087,1.8087,1.8087,1.8087,1.8381,1.8751,1.9188,1.9455,2.0093,2.0988,2.0997,2.1275,2.1741,2.1741,2.2176,2.2882,2.3551,2.4241,2.4946,2.5644,2.5895,2.5895,2.5895,2.5895,2.5895,2.5895,2.5895,2.5968,2.6412,2.6483,2.673,2.7626,2.7893,2.7962,2.8431,2.851,2.851,2.851,2.851,2.851,2.851,2.851,2.851,2.851,2.851,2.8578,2.8803,2.8791,2.8882,2.9052,2.9275,2.9419,2.9419,2.9611,2.9792,2.9792,2.9792,2.9792,2.9792,2.9792,2.9792,2.9792,2.9792,2.9792,2.9792,2.9792,2.9856,3.0075,3.0075,3.0305,3.0698,3.1455,3.1942,3.2146,3.3616,3.4758,3.5504,3.5504,3.5504,3.5504,3.5504,3.5604,3.5688,3.5688,3.5879,3.6196,3.6196,3.6352,3.6492,1.6567,1.6958,1.7239,1.7333,1.7326,1.7326,1.7326,1.7326,1.7326,1.7326,1.7326,1.7326,1.7326,1.7326,1.7326,1.7326,1.7326,1.7426,1.7527,1.7527,1.7621,1.78,1.7807,1.79,1.7994,1.7994,1.8094,1.8381,1.8187,1.8187,1.8381,1.8835,1.9188,1.9463,2.0266,2.0727,2.0997,2.1365,2.1553,2.1741,2.1741,2.2176,2.2882,2.3551,2.4241,2.4946,2.5644,2.5895,2.5895,2.5895,2.6052,2.629,2.629,2.6279,2.6423,2.6835,2.7185,2.7534,2.78,2.8122,2.8351,2.8431,2.851,2.851,2.851,2.851,2.851,2.851,2.851,2.851,2.851,2.851,2.851,2.8578,2.8724,2.8803,2.8882,2.9184,2.9419,2.9419,2.9611,2.9792,2.9792,2.9792,2.9792,2.9792,2.9792,2.9792,2.9792,2.9792,2.9792,2.9792,2.9792,2.9869,2.9869,3.0011,3.0228,3.052,3.0898,3.1676,3.2932,3.4423,3.5279,3.5504,3.5504,3.5504,3.5504,3.5504,3.5504,3.5539,3.5638,3.5831,3.6085,3.6148,3.6352,3.6492,1.6655,1.7044,1.7326,1.7326,1.7326,1.7326,1.7326,1.7326,1.7326,1.7326,1.7326,1.7333,1.7434,1.7426,1.7426,1.7426,1.7426,1.7527,1.7815,1.7815,1.79,1.8087,1.8087,1.8179,1.828,1.828,1.8381,1.8566,1.8465,1.8465,1.8658,1.9104,1.9554,1.992,2.0637,2.1087,2.1275,2.1553,2.1741,2.1741,2.1741,2.2008,2.253,2.3464,2.4059,2.4594,2.5549,2.5895,2.5895,2.5895,2.6052,2.6373,2.6693,2.6753,2.6835,2.736,2.7708,2.7962,2.8042,2.8283,2.851,2.851,2.851,2.851,2.851,2.851,2.851,2.851,2.851,2.851,2.851,2.851,2.851,2.851,2.8578,2.8724,2.8724,2.87,2.8767,2.9106,2.9118,2.9209,2.9611,2.9611,2.9689,2.9792,2.9792,2.9792,2.9792,2.9792,2.9792,2.9792,2.9792,2.9792,2.9792,2.9934,3.0152,3.0444,3.096,3.2087,3.363,3.4624,3.5198,3.5504,3.5504,3.5504,3.5504,3.5504,3.5554,3.5604,3.5589,3.5846,3.6085,3.6085,3.6289,3.6492,1.6082,1.6655,1.7326,1.7326,1.7333,1.7326,1.7326,1.7333,1.7333,1.7333,1.7333,1.7426,1.7721,1.7721,1.7721,1.7721,1.7721,1.7815,1.8087,1.8087,1.8087,1.8179,1.8179,1.828,1.8481,1.8481,1.8566,1.8827,1.8827,1.8827,1.8827,1.9371,1.992,2.0382,2.0826,2.1275,2.1741,2.1741,2.1741,2.1741,2.1741,2.1741,2.182,2.3193,2.38,2.3973,2.5369,2.5895,2.5895,2.5895,2.5979,2.6146,2.694,2.7267,2.736,2.7788,2.7973,2.8042,2.8431,2.851,2.851,2.851,2.851,2.851,2.851,2.851,2.851,2.851,2.851,2.851,2.851,2.851,2.851,2.851,2.8431,2.8431,2.8431,2.7903,2.7799,2.8633,2.8211,2.8291,2.9328,2.9419,2.9509,2.9792,2.9792,2.9792,2.9792,2.9792,2.9792,2.9792,2.9792,2.9792,2.9792,2.9792,3.0011,3.0444,3.1576,3.2918,3.4245,3.4312,3.4758,3.5504,3.5504,3.5504,3.5504,3.5504,3.5539,3.5688,3.5554,3.5797,3.6133,3.6037,3.6226,3.6492,1.6943,1.7138,1.7326,1.7326,1.7434,1.7628,1.7628,1.7807,1.7893,1.7893,1.7893,1.7893,1.7994,1.7994,1.8094,1.8295,1.8094,1.8094,1.8381,1.8381,1.8473,1.8643,1.8643,1.8643,1.8743,1.8743,1.8735,1.8827,1.8827,1.9012,1.9463,1.992,2.0374,2.0817,2.1275,2.1642,2.1741,2.1741,2.1741,2.1741,2.1741,2.1741,2.182,2.2706,2.3377,2.3887,2.4861,2.5464,2.5979,2.629,2.6622,2.7021,2.7545,2.795,2.8179,2.8351,2.8351,2.8351,2.851,2.851,2.851,2.851,2.851,2.851,2.851,2.851,2.851,2.851,2.851,2.851,2.851,2.851,2.851,2.851,2.7926,2.751,2.751,2.7487,2.7557,2.7799,2.853,2.9094,2.9419,2.9611,2.9702,2.9792,2.9792,2.9792,2.9792,2.9792,2.9792,2.9792,2.9792,2.9792,2.9792,2.9792,3.0011,3.0444,3.2146,3.3143,3.3492,3.4706,3.5294,3.5504,3.5504,3.5504,3.5504,3.5504,3.5504,3.5539,3.5653,3.5703,3.5816,3.5973,3.61,3.6274,1.7707,1.7707,1.7707,1.7707,1.7807,1.7908,1.7908,1.7994,1.8087,1.8087,1.8087,1.8179,1.828,1.828,1.8373,1.8658,1.8381,1.8373,1.8651,1.8658,1.8651,1.8827,1.8827,1.8827,1.8827,1.8827,1.892,1.9188,1.9188,1.9463,1.992,2.0374,2.0736,2.0997,2.1463,2.1741,2.1741,2.1741,2.1741,2.1741,2.1741,2.1741,2.182,2.2862,2.3464,2.3973,2.4946,2.5717,2.6207,2.6445,2.6775,2.7267,2.7708,2.8042,2.8283,2.8431,2.851,2.851,2.851,2.851,2.851,2.851,2.851,2.851,2.851,2.851,2.851,2.851,2.851,2.851,2.851,2.8179,2.7926,2.7926,2.751,2.7185,2.7185,2.7255,2.7487,2.7903,2.8291,2.8688,2.9197,2.9443,2.9702,2.9792,2.9792,2.9792,2.9792,2.9792,2.9792,2.9792,2.9792,2.9792,2.9792,2.9869,3.0292,3.0934,3.2349,3.3269,3.3768,3.4935,3.5504,3.5504,3.5504,3.5504,3.5504,3.5504,3.5504,3.5504,3.5604,3.5638,3.5688,3.5831,3.5958,3.6148,1.8087,1.8087,1.8087,1.8087,1.8087,1.8179,1.8179,1.8179,1.8179,1.8179,1.8179,1.8272,1.8481,1.8574,1.8566,1.8827,1.8651,1.8658,1.8827,1.8827,1.8827,1.8827,1.8827,1.8827,1.8827,1.892,1.9188,1.9729,1.9729,1.992,2.0374,2.0817,2.1087,2.1087,2.1553,2.1741,2.1741,2.1741,2.1741,2.1741,2.1741,2.1731,2.1998,2.3202,2.38,2.4221,2.5454,2.6207,2.661,2.6693,2.6951,2.736,2.7869,2.7962,2.8042,2.8431,2.851,2.851,2.851,2.851,2.851,2.851,2.851,2.851,2.851,2.851,2.851,2.851,2.851,2.8431,2.8351,2.7846,2.7348,2.701,2.7103,2.7174,2.701,2.7103,2.7429,2.8179,2.7983,2.8131,2.9052,2.9353,2.9521,2.9792,2.9792,2.9792,2.9792,2.9792,2.9792,2.9792,2.9792,2.9792,2.9792,3.0011,3.0508,3.1368,3.2263,3.3255,3.4177,3.4986,3.5359,3.5504,3.5504,3.5504,3.5504,3.5504,3.5504,3.5504,3.5504,3.5539,3.5703,3.5703,3.5767,3.5973,1.8087,1.8087,1.8087,1.8087,1.828,1.8481,1.8481,1.8558,1.8735,1.8735,1.8735,1.8735,1.8735,1.8735,1.8735,1.8827,1.8735,1.8735,1.8827,1.8827,1.8827,1.8827,1.8827,1.8827,1.8827,1.9279,1.9737,2.0201,2.0201,2.0464,2.0907,2.0997,2.1177,2.1553,2.1642,2.1741,2.1741,2.1741,2.1741,2.1741,2.1741,2.2087,2.2618,2.2882,2.3887,2.5231,2.5495,2.6257,2.7185,2.7545,2.7719,2.7881,2.8271,2.8431,2.8431,2.851,2.851,2.851,2.851,2.851,2.851,2.851,2.851,2.851,2.851,2.851,2.851,2.851,2.851,2.8271,2.7522,2.7926,2.7834,2.6246,2.667,2.6928,2.6163,2.667,2.7267,2.7348,2.8235,2.8882,2.9052,2.9468,2.9792,2.9792,2.9792,2.9792,2.9792,2.9792,2.9792,2.9792,2.9792,2.9792,2.9792,3.0011,3.0292,3.0583,3.1502,3.242,3.3422,3.4124,3.4839,3.5504,3.5504,3.5504,3.5504,3.5504,3.5504,3.5504,3.5504,3.5504,3.5554,3.5554,3.5589,3.5752,1.8458,1.8458,1.8458,1.8458,1.8558,1.8651,1.8651,1.8743,1.8827,1.8827,1.8827,1.8827,1.8827,1.8827,1.8827,1.8827,1.9096,1.9188,1.9188,1.9188,1.9188,1.9188,1.9463,1.9654,1.9654,1.9828,2.0192,2.0645,2.0645,2.0916,2.1365,2.1365,2.1463,2.1741,2.1741,2.1741,2.1741,2.1741,2.1741,2.1731,2.2087,2.2608,2.3202,2.3973,2.4914,2.5924,2.6257,2.694,2.7626,2.78,2.8042,2.8283,2.8431,2.851,2.851,2.851,2.851,2.851,2.851,2.851,2.851,2.851,2.851,2.851,2.851,2.851,2.851,2.851,2.851,2.8351,2.8007,2.7846,2.751,2.667,2.6928,2.6846,2.5913,2.6999,2.7765,2.7267,2.8315,2.9131,2.9131,2.9546,2.9792,2.9792,2.9792,2.9792,2.9792,2.9792,2.9792,2.9792,2.9792,2.9792,2.9792,2.9869,3.0075,3.0432,3.1636,3.2563,3.3213,3.4423,3.5133,3.5504,3.5504,3.5504,3.5504,3.5504,3.5504,3.5504,3.5504,3.5504,3.5504,3.5504,3.5779,3.6129,1.8827,1.8827,1.8827,1.8827,1.8827,1.8827,1.8827,1.8827,1.8827,1.8827,1.8827,1.8827,1.8827,1.8827,1.8827,1.8827,1.9279,1.9637,1.9637,1.982,1.9911,1.9737,2.0102,2.0382,2.0464,2.0464,2.0736,2.1177,2.1177,2.1365,2.1741,2.1741,2.1741,2.1741,2.1741,2.1741,2.1741,2.1741,2.1741,2.1731,2.2353,2.295,2.3607,2.4808,2.5757,2.6517,2.7103,2.7615,2.8042,2.8042,2.8271,2.851,2.851,2.851,2.851,2.851,2.851,2.851,2.851,2.851,2.851,2.851,2.851,2.851,2.851,2.851,2.851,2.851,2.851,2.8431,2.8259,2.7684,2.7092,2.667,2.6928,2.6846,2.5913,2.7162,2.8007,2.7592,2.8235,2.8803,2.9052,2.9456,2.9702,2.9792,2.9792,2.9792,2.9792,2.9792,2.9792,2.9792,2.9792,2.9792,2.9792,2.9792,3.0011,3.0444,3.1563,3.2478,3.3213,3.4438,3.5148,3.5504,3.5504,3.5504,3.5504,3.5504,3.5504,3.5504,3.5504,3.5609,3.5729,3.5729,3.6148,3.6701,1.8827,1.8827,1.8827,1.8827,1.8827,1.8827,1.8827,1.8827,1.8827,1.8827,1.8827,1.8827,1.8827,1.8827,1.8827,1.8827,1.9279,1.9637,1.9637,2.0447,2.0727,2.0292,2.0292,2.0464,2.0907,2.0907,2.1186,2.1642,2.1642,2.1642,2.1741,2.1741,2.1741,2.1741,2.1741,2.1741,2.1741,2.1741,2.1741,2.1741,2.1741,2.2599,2.379,2.4402,2.5673,2.7185,2.7708,2.8122,2.8431,2.8431,2.851,2.851,2.851,2.851,2.851,2.851,2.851,2.851,2.851,2.851,2.851,2.851,2.851,2.851,2.851,2.851,2.851,2.851,2.851,2.8259,2.7429,2.7267,2.6682,2.4999,2.6091,2.6846,2.5913,2.667,2.7592,2.8351,2.7903,2.8051,2.8973,2.9275,2.9509,2.9792,2.9792,2.9792,2.9792,2.9792,2.9792,2.9792,2.9792,2.9792,2.9792,2.9792,3.0011,3.0368,3.0508,3.1516,3.3213,3.3297,3.4153,3.5504,3.5504,3.5504,3.5504,3.5504,3.5504,3.5504,3.5504,3.5878,3.6417,3.6417,3.6806,3.7345,1.8827,1.8827,1.8827,1.8827,1.8827,1.8827,1.8827,1.8827,1.8907,1.9137,1.9161,1.9241,1.9447,1.9765,1.9963,1.9963,2.0703,2.1258,2.1258,2.1826,2.1888,2.1212,2.1195,2.1284,2.1463,2.1454,2.1553,2.1741,2.1741,2.1741,2.1741,2.1741,2.1741,2.1741,2.1741,2.1741,2.1741,2.1741,2.2008,2.2441,2.2853,2.3877,2.5337,2.5924,2.6928,2.8018,2.8191,2.8351,2.851,2.851,2.851,2.851,2.851,2.851,2.851,2.851,2.851,2.851,2.851,2.851,2.851,2.851,2.851,2.851,2.851,2.851,2.851,2.851,2.8099,2.7765,2.7926,2.7592,2.7174,2.6999,2.7592,2.7672,2.6753,2.7429,2.7926,2.7684,2.8155,2.8633,2.9052,2.9443,2.9689,2.9792,2.9792,2.9792,2.9792,2.9792,2.9792,2.9792,2.9792,2.9792,2.9792,2.9792,3.0011,3.0444,3.1355,3.2277,3.3213,3.4221,3.4935,3.5504,3.5504,3.5504,3.5504,3.5504,3.5744,3.6118,3.6118,3.6492,3.706,3.706,3.7464,3.8018,1.8827,1.8827,1.8827,1.8827,1.8827,1.8867,1.8978,1.9002,1.9223,1.9773,1.9821,2.0006,2.0329,2.0749,2.095,2.095,2.17,2.2167,2.2167,2.2659,2.261,2.2144,2.1997,2.1924,2.1924,2.1796,2.1741,2.1741,2.1741,2.1741,2.1741,2.1741,2.1741,2.1741,2.1741,2.1741,2.1741,2.1741,2.2097,2.2882,2.3454,2.4563,2.6091,2.6764,2.7592,2.8351,2.8431,2.851,2.851,2.851,2.851,2.851,2.851,2.851,2.851,2.851,2.851,2.851,2.851,2.851,2.851,2.851,2.851,2.851,2.851,2.851,2.851,2.851,2.8007,2.7765,2.8431,2.7765,2.7429,2.8007,2.8099,2.7846,2.7267,2.7753,2.8075,2.7753,2.8315,2.8791,2.9118,2.9456,2.9702,2.9792,2.9792,2.9792,2.9792,2.9792,2.9792,2.9792,2.9792,2.9792,2.9792,2.9792,3.0011,3.0432,3.1623,3.2563,3.3213,3.4558,3.5279,3.5504,3.5504,3.5624,3.5804,3.5804,3.6193,3.6776,3.6776,3.7165,3.7719,3.7719,3.8138,3.8706,1.8827,1.8827,1.8827,1.8827,1.8827,1.8955,1.932,1.9376,1.9694,2.0627,2.0669,2.0958,2.1439,2.1535,2.1526,2.1526,2.19,2.2176,2.2176,2.2668,2.2875,2.2875,2.2557,2.2327,2.2327,2.1942,2.175,2.175,2.175,2.175,2.175,2.1741,2.1741,2.1741,2.1741,2.1741,2.1741,2.1741,2.2097,2.2891,2.328,2.4296,2.5579,2.6494,2.7278,2.7985,2.8363,2.8522,2.8522,2.851,2.851,2.851,2.851,2.851,2.851,2.851,2.851,2.851,2.851,2.851,2.851,2.851,2.851,2.851,2.851,2.851,2.851,2.851,2.851,2.851,2.851,2.7765,2.7185,2.7185,2.7185,2.7185,2.7185,2.7406,2.7799,2.8712,2.8223,2.8211,2.925,2.9419,2.9509,2.9792,2.9792,2.9792,2.9792,2.9792,2.9792,2.9792,2.9792,2.9792,2.9792,2.9792,3.0011,3.0444,3.1158,3.2074,3.3213,3.3973,3.4758,3.5519,3.5519,3.5893,3.6492,3.6492,3.6851,3.7419,3.7419,3.7823,3.8407,3.8407,3.8841,3.9424,1.8827,1.8827,1.8827,1.8827,1.9313,1.9796,1.9911,2.0529,2.1004,2.1561,2.1603,2.1803,2.2167,2.2498,2.2786,2.2786,2.3296,2.359,2.359,2.3697,2.3794,2.3794,2.3134,2.2767,2.2767,2.2555,2.2501,2.2501,2.2501,2.2501,2.2584,2.2291,2.2144,2.2135,2.186,2.183,2.2008,2.2008,2.2612,2.3762,2.4615,2.5838,2.7267,2.823,2.8927,2.9403,2.9114,2.9063,2.9003,2.8643,2.851,2.851,2.851,2.851,2.851,2.851,2.851,2.851,2.851,2.851,2.851,2.851,2.851,2.851,2.851,2.851,2.851,2.851,2.8007,2.7765,2.8431,2.7765,2.7429,2.8007,2.8099,2.8167,2.8315,2.8383,2.8542,2.8791,2.8858,2.9015,2.9197,2.9456,2.9702,2.9792,2.9792,2.9792,2.9792,2.9792,2.9792,2.9792,2.9792,2.9792,2.9792,2.9792,3.0011,3.0444,3.1696,3.2635,3.3213,3.4558,3.5532,3.6193,3.6193,3.6552,3.7135,3.7135,3.7509,3.8093,3.8093,3.8512,3.911,3.911,3.9245,3.9424,1.9096,1.9288,1.942,1.9559,2.0145,2.0584,2.087,2.1394,2.1862,2.2429,2.2481,2.2667,2.3111,2.3438,2.3637,2.3637,2.3945,2.4088,2.3923,2.3904,2.3904,2.3904,2.3446,2.3094,2.3094,2.2939,2.2857,2.2857,2.2857,2.2857,2.2857,2.2778,2.2658,2.2732,2.2583,2.2479,2.2518,2.2518,2.3012,2.3968,2.4728,2.5926,2.7402,2.826,2.8952,2.9424,2.91,2.8979,2.8931,2.8619,2.851,2.851,2.851,2.851,2.8546,2.8763,2.8823,2.8823,2.8823,2.8823,2.8775,2.8558,2.851,2.851,2.851,2.851,2.851,2.851,2.8099,2.7846,2.8431,2.8099,2.7926,2.8498,2.8657,2.8657,2.8882,2.8961,2.9028,2.9028,2.9353,2.9521,2.9378,2.9624,2.9792,2.9792,2.9792,2.9792,2.9792,2.9792,2.9792,2.9792,2.9792,2.9892,3.0118,3.0118,3.0148,3.0292,3.2144,3.3181,3.3522,3.5419,3.6477,3.6851,3.6851,3.721,3.7808,3.7808,3.8197,3.8796,3.8796,3.905,3.9424,3.9424,3.9424,3.9424,1.9687,2.0061,2.0454,2.0924,2.101,2.1268,2.1948,2.2183,2.2528,2.3285,2.3429,2.3637,2.4152,2.4152,2.4152,2.4152,2.4152,2.3996,2.362,2.3593,2.3593,2.3593,2.3593,2.3593,2.3593,2.3244,2.3061,2.3061,2.3061,2.3061,2.3061,2.3289,2.3355,2.3448,2.3598,2.3473,2.3214,2.3214,2.3374,2.3672,2.4155,2.52,2.6607,2.7201,2.7953,2.8694,2.8739,2.8691,2.8643,2.8546,2.851,2.851,2.851,2.851,2.8607,2.9088,2.9256,2.9304,2.9304,2.9328,2.9256,2.8775,2.8655,2.8631,2.8534,2.851,2.851,2.851,2.851,2.851,2.851,2.851,2.8578,2.8803,2.8791,2.8882,2.9052,2.9275,2.9419,2.9419,2.9611,2.9792,2.9792,2.9792,2.9792,2.9792,2.9792,2.9792,2.9792,2.9792,2.9817,2.9867,2.9867,3.0131,3.0683,3.0683,3.0511,3.0317,3.2604,3.3821,3.4094,3.6333,3.7434,3.7494,3.7494,3.7868,3.8482,3.8482,3.8856,3.9424,3.9424,3.9424,3.9424,3.9424,3.9424,3.9424,2.0567,2.072,2.0941,2.1328,2.1909,2.2452,2.262,2.3207,2.3746,2.3935,2.4044,2.4044,2.4152,2.4152,2.4152,2.4152,2.4152,2.4115,2.4024,2.4024,2.4024,2.4024,2.4024,2.4113,2.43,2.403,2.3984,2.417,2.417,2.4268,2.4463,2.4239,2.4088,2.407,2.3824,2.3811,2.3919,2.3919,2.4249,2.4834,2.5727,2.6472,2.7246,2.888,2.9704,2.9922,3.0238,3.0098,2.9617,2.8787,2.851,2.851,2.851,2.851,2.8534,2.8643,2.8979,2.9304,2.9304,2.9605,2.9893,2.9773,2.9749,2.9532,2.8703,2.851,2.851,2.851,2.851,2.859,2.8724,2.8724,2.8724,2.8803,2.8791,2.8882,2.9052,2.9131,2.9197,2.9419,2.9611,2.9702,2.9509,2.9702,2.9792,2.9792,2.9792,2.9792,2.9792,2.9792,2.9993,3.0419,3.0432,3.0683,3.1223,3.1223,3.1334,3.1714,3.3428,3.446,3.4899,3.6623,3.7689,3.8182,3.8182,3.8556,3.9185,3.9185,3.929,3.9424,3.9424,3.9424,3.9424,3.9424,3.9424,3.9424,2.1447,2.1679,2.1999,2.2398,2.2813,2.3205,2.3394,2.3907,2.4152,2.4152,2.4152,2.4152,2.4152,2.4152,2.4152,2.4152,2.4152,2.407,2.3877,2.3868,2.3868,2.3868,2.3956,2.4245,2.4529,2.4538,2.4637,2.4726,2.4726,2.4735,2.4932,2.4821,2.4813,2.4803,2.467,2.4648,2.4549,2.4549,2.4913,2.5573,2.6013,2.6971,2.8094,2.9092,2.9723,3.0149,3.0419,3.0326,3.0001,2.9448,2.9256,2.922,2.8967,2.8883,2.8883,2.8883,2.9088,2.9352,2.9605,2.9881,3.0086,3.0086,3.0086,2.9941,2.9388,2.9256,2.9256,2.9256,2.9256,2.9338,2.9557,2.9476,2.9488,2.9744,2.9744,2.9824,3.0066,2.9935,2.9841,2.9999,2.9864,2.9702,2.9599,2.9702,2.9792,2.9792,2.9792,2.9905,3.0168,3.0181,3.0432,3.0972,3.0984,3.1235,3.1775,3.1788,3.2174,3.2854,3.3859,3.4719,3.5442,3.7027,3.8186,3.8886,3.8886,3.9095,3.9424,3.9424,3.9424,3.9424,3.9424,3.9424,3.9424,3.9424,3.9424,3.9424,2.2447,2.2758,2.3085,2.3574,2.3648,2.3758,2.4106,2.4152,2.4152,2.4152,2.4152,2.4152,2.4152,2.4152,2.4152,2.4152,2.4152,2.4005,2.3675,2.3648,2.3648,2.3639,2.3842,2.4193,2.4627,2.4833,2.4941,2.4941,2.4941,2.503,2.5039,2.5235,2.5342,2.5333,2.5635,2.5527,2.5185,2.5185,2.5421,2.5889,2.6072,2.7054,2.8581,2.8832,2.9449,3.018,3.035,3.0302,3.0206,3.0122,3.0086,3.0013,2.9581,2.9436,2.9436,2.9436,2.9436,2.9532,2.9965,3.0158,3.0218,3.0218,3.029,3.035,3.035,3.0218,3.0086,3.0086,3.0086,3.017,3.0396,3.0241,3.0265,3.0695,3.0778,3.086,3.1083,3.0873,3.0666,3.0746,3.0344,3.0068,3.0068,3.0068,3.0068,3.0068,3.0068,3.0269,3.0721,3.0746,3.0984,3.1512,3.1537,3.18,3.2353,3.2353,3.2845,3.37,3.3944,3.4658,3.5767,3.7476,3.8575,3.9192,3.9337,3.9424,3.9424,3.9424,3.9424,3.9424,3.9424,3.9424,3.9424,3.9424,3.9424,3.9424,2.3295,2.3368,2.3593,2.3996,2.407,2.4088,2.4143,2.4152,2.4152,2.4152,2.4152,2.4152,2.4152,2.4152,2.4152,2.4152,2.4152,2.4134,2.4079,2.407,2.4168,2.4356,2.4356,2.4679,2.5137,2.5235,2.5235,2.5235,2.5235,2.5333,2.5635,2.5635,2.5645,2.5645,2.5635,2.5703,2.5644,2.5644,2.5712,2.5836,2.6645,2.7191,2.766,2.9319,3.0065,3.0334,3.1168,3.1156,3.0699,3.0242,3.0086,3.0074,3.0001,2.9977,2.9977,2.9977,2.9977,2.9989,3.0074,3.0422,3.0771,3.0771,3.1108,3.1444,3.1444,3.0747,3.0086,3.0086,3.0086,3.017,3.0349,3.0349,3.0445,3.0778,3.0778,3.086,3.1083,3.1021,3.1135,3.1286,3.1223,3.1173,3.1173,3.1173,3.1173,3.1173,3.1173,3.121,3.1286,3.1286,3.1537,3.2077,3.2102,3.2378,3.2955,3.2955,3.3237,3.3713,3.372,3.4489,3.5787,3.7448,3.8277,3.8427,3.9119,3.9424,3.9424,3.9424,3.9424,3.9424,3.9424,3.9424,3.9424,3.9424,3.9424,3.9424,2.3849,2.3877,2.3941,2.4115,2.4152,2.4152,2.4152,2.4152,2.4152,2.4152,2.4152,2.4152,2.4152,2.4152,2.4152,2.4152,2.4341,2.4341,2.4341,2.4538,2.4637,2.4735,2.4833,2.5039,2.5333,2.544,2.5538,2.5538,2.5538,2.5538,2.5742,2.5742,2.5742,2.5742,2.5742,2.5742,2.5742,2.5742,2.6004,2.6552,2.701,2.784,2.8958,2.9886,3.0543,3.1104,3.1572,3.1517,3.1276,3.1048,3.0963,3.0915,3.0627,3.053,3.047,3.017,3.0086,3.0158,3.0446,3.0482,3.0506,3.0807,3.1048,3.1216,3.1216,3.1096,3.0963,3.0963,3.1062,3.1148,3.1246,3.1418,3.1589,3.1675,3.176,3.1918,3.2003,3.1813,3.1667,3.1436,3.1386,3.1386,3.1386,3.1386,3.1386,3.1386,3.1386,3.1524,3.1838,3.1851,3.2114,3.2679,3.2692,3.2817,3.3081,3.3081,3.3313,3.3713,3.3713,3.4358,3.5749,3.6908,3.7706,3.8277,3.9046,3.9424,3.9424,3.9424,3.9424,3.9424,3.9424,3.9424,3.9424,3.9424,3.9424,3.9424]},{"header":{"parameterUnit":"m.s-1","parameterCategory":1,"la1":30.6,"la2":28.766,"lo1":-90.7593,"lo2":-88.6598,"dy":0.0162,"dx":0.0183,"nx":116,"ny":114,"refTime":"2024-05-07T00:00:00:Z","depth":0,"parameterNumber":3,"parameterNumberName":"V-component_of_WINDS"},"data":[0.0,0.0,0.0,0.0,0.0,0.0,0.0,0.0,0.0,0.0,0.0,0.0,0.0,0.0,0.0,0.0,0.0,0.0,0.0,0.0,0.0,0.0,0.0,0.0,0.0,0.0,0.0,0.0,0.0,0.0,0.0,0.0,0.0,0.0,0.0,0.0,0.0,0.0,0.0,0.0,0.0,0.0,0.0,0.0,0.0,0.0,0.0,0.0,0.0,0.0,0.0,0.0,0.0,0.0,0.0,0.0,0.0,0.0,0.0,0.0,0.0,0.0,0.0,0.0,0.0,0.0,0.0,0.0,0.0,0.0,0.0,0.0,0.0,0.0,0.0,0.0,0.0,0.0,0.0,0.0,0.0,0.0,0.0,0.0,0.0,0.0,0.0,0.0,0.0,0.0,0.0,0.0,0.0,0.0,0.0,0.0,0.0,0.0,0.0,0.0,0.0,0.0,0.0,0.0,0.0,0.0,0.0,0.0,0.0,0.0,0.0,0.0,0.0,0.0,0.0,0.0,0.0,0.0,0.0,0.0,0.0,0.0,0.0,0.0,0.0,0.0,0.0,0.0,0.0,0.0,0.0,0.0,0.0,0.0,0.0,0.0,0.0,0.0,0.0,0.0,0.0,0.0,0.0,0.0,0.0,0.0,0.0,0.0,0.0,0.0,0.0,0.0,0.0,0.0,0.0,0.0,0.0,0.0,0.0,0.0,0.0,0.0,0.0,0.0,0.0,0.0,0.0,0.0,0.0,0.0,0.0,0.0,0.0,0.0,0.0,0.0,0.0,0.0,0.0,0.0,0.0,0.0,0.0,0.0,0.0,0.0,0.0,0.0,0.0,0.0,0.0,0.0,0.0,0.0,0.0,0.0,0.0,0.0,0.0,0.0,0.0,0.0,0.0,0.0,0.0,0.0,0.0,0.0,0.0,0.0,0.0,0.0,0.0,0.0,0.0,0.0,0.0,0.0,0.0,0.0,0.0,0.0,0.0,0.0,0.0,0.0,0.0,0.0,0.0,0.0,0.0,0.0,0.0,0.0,0.0,0.0,0.0,0.0,0.0,0.0,0.0,0.0,0.0,0.0,0.0,0.0,0.0,0.0,0.0,0.0,0.0,0.0,0.0,0.0,0.0,0.0,0.0,0.0,0.0,0.0,0.0,0.0,0.0,0.0,0.0,0.0,0.0,0.0,0.0,0.0,0.0,0.0,0.0,0.0,0.0,0.0,0.0,0.0,0.0,0.0,0.0,0.0,0.0,0.0,0.0,0.0,0.0,0.0,0.0,0.0,0.0,0.0,0.0,0.0,0.0,0.0,0.0,0.0,0.0,0.0,0.0,0.0,0.0,0.0,0.0,0.0,0.0,0.0,0.0,0.0,0.0,0.0,0.0,0.0,0.0,0.0,0.0,0.0,0.0,0.0,0.0,0.0,0.0,0.0,0.0,0.0,0.0,0.0,0.0,0.0,0.0,0.0,0.0,0.0,0.0,0.0,0.0,0.0,0.0,0.0,0.0,0.0,0.0,0.0,0.0,0.0,0.0,0.0,0.0,0.0,0.0,0.0,0.0,0.0,0.0,0.0,0.0,0.0,0.0,0.0,0.0,0.0,0.0,0.0,0.0,0.0,0.0,0.0,0.0,0.0,0.0,0.0,0.0,0.0,0.0,0.0,0.0,0.0,0.0,0.0,0.0,0.0,0.0,0.0,0.0,0.0,0.0,0.0,0.0,0.0,0.0,0.0,0.0,0.0,0.0,0.0,0.0,0.0,0.0,0.0,0.0,0.0,0.0,0.0,0.0,0.0,0.0,0.0,0.0,0.0,0.0,0.0,0.0,0.0,0.0,0.0,0.0,0.0,0.0,0.0,0.0,0.0,0.0,0.0,0.0,0.0,0.0,0.0,0.0,0.0,0.0,0.0,0.0,0.0,0.0,0.0,0.0,0.0,0.0,0.0,0.0,0.0,0.0,0.0,0.0,0.0,0.0,0.0,0.0,0.0,0.0,0.0,0.0,0.0,0.0,0.0,0.0,0.0,0.0,0.0,0.0,0.0,0.0,0.0,0.0,0.0,0.0,0.0,0.0,0.0,0.0,0.0,0.0,0.0,0.0,0.0,0.0,0.0,0.0,0.0,0.0,0.0,0.0,0.0,0.0,0.0,0.0,0.0,0.0,0.0,0.0,0.0,0.0,0.0,0.0,0.0,0.0,0.0,0.0,0.0,0.0,0.0,0.0,0.0,0.0,0.0,0.0,0.0,0.0,0.0,0.0,0.0,0.0,0.0,0.0,0.0,0.0,0.0,0.0,0.0,0.0,0.0,0.0,0.0,0.0,0.0,0.0,0.0,0.0,0.0,0.0,0.0,0.0,0.0,0.0,0.0,0.0,0.0,0.0,0.0,0.0,0.0,0.0,0.0,0.0,0.0,0.0,0.0,0.0,0.0,0.0,0.0,0.0,0.0,0.0,0.0,0.0,0.0,0.0,0.0,0.0,0.0,0.0,0.0,0.0,0.0,0.0,0.0,0.0,0.0,0.0,0.0,0.0,0.0,0.0,0.0,0.0,0.0,0.0,0.0,0.0,0.0,0.0,0.0,0.0,0.0,0.0,0.0,0.0,0.0,0.0,0.0,0.0,0.0,0.0,0.0,0.0,0.0,0.0,0.0,0.0,0.0,0.0,0.0,0.0,0.0,0.0,0.0,0.0,0.0,0.0,0.0,0.0,0.0,0.0,0.0,0.0,0.0,0.0,0.0,0.0,0.0,0.0,0.0,0.0,0.0,0.0,0.0,0.0,0.0,0.0,0.0,0.0,0.0,0.0,0.0,0.0,0.0,0.0,0.0,0.0,0.0,0.0,0.0,0.0,0.0,0.0,0.0,0.0,0.0,0.0,0.0,0.0,0.0,0.0,0.0,0.0,0.0,0.0,0.0,0.0,0.0,0.0,0.0,0.0,0.0,0.0,0.0,0.0,0.0,0.0,0.0,0.0,0.0,0.0,0.0,0.0,0.0,0.0,0.0,0.0,0.0,0.0,0.0,0.0,0.0,0.0,0.0,0.0,0.0,0.0,0.0,0.0,0.0,0.0,0.0,0.0,0.0,0.0,0.0,0.0,0.0,0.0,0.0,0.0,0.0,0.0,0.0,0.0,0.0,0.0,0.0,0.0,0.0,0.0,0.0,0.0,0.0,0.0,0.0,0.0,0.0,0.0,0.0,0.0,0.0,0.0,0.0,0.0,0.0,0.0,0.0,0.0,0.0,0.0,0.0,0.0,0.0,0.0,0.0,0.0,0.0,0.0,0.0,0.0,0.0,0.0,0.0,0.0,0.0,0.0,0.0,0.0,0.0,0.0,0.0,0.0,0.0,0.0,0.0,0.0,0.0,0.0,0.0,0.0,0.0,0.0,0.0,0.0,0.0,0.0,0.0,0.0,0.0,0.0,0.0,0.0,0.0,0.0,0.0,0.0,0.0,0.0,0.0,0.0,0.0,0.0,0.0,0.0,0.0,0.0,0.0,0.0,0.0,0.0,0.0,0.0,0.0,0.0,0.0,0.0,0.0,0.0,0.0,0.0,0.0,0.0,0.0,0.0,0.0,0.0,0.0,0.0,0.0,0.0,0.0,0.0,0.0,0.0,0.0,0.0,0.0,0.0,0.0,0.0,0.0,0.0,0.0,0.0,0.0,0.0,0.0,0.0,0.0,0.0,0.0,0.0,0.0,0.0,0.0,0.0,0.0,0.0,0.0,0.0,0.0,0.0,0.0,0.0,0.0,0.0,0.0,0.0,0.0,0.0,0.0,0.0,0.0,0.0,0.0,0.0,0.0,0.0,0.0,0.0,0.0,0.0,0.0,0.0,0.0,0.0,0.0,0.0,0.0,0.0,0.0,0.0,0.0,0.0,0.0,0.0,0.0,0.0,0.0,0.0,0.0,0.0,0.0,0.0,0.0,0.0,0.0,0.0,0.0,0.0,0.0,0.0,0.0,0.0,0.0,0.0,0.0,0.0,0.0,0.0,0.0,0.0,0.0,0.0,0.0,0.0,0.0,0.0,0.0,0.0,0.0,0.0,0.0,0.0,0.0,0.0,0.0,0.0,0.0,0.0,0.0,0.0,0.0,0.0,0.0,0.0,0.0,0.0,0.0,0.0,0.0,0.0,0.0,0.0,0.0,0.0,0.0,0.0,0.0,0.0,0.0,0.0,0.0,0.0,0.0,0.0,0.0,0.0,0.0,0.0,0.0,0.0,0.0,0.0,0.0,0.0,0.0,0.0,0.0,0.0,0.0,0.0,0.0,0.0,0.0,0.0,0.0,0.0,0.0,0.0,0.0,0.0,0.0,0.0,0.0,0.0,0.0,0.0,0.0,0.0,0.0,0.0,0.0,0.0,0.0,0.0,0.0,0.0,0.0,0.0,0.0,0.0,0.0,0.0,0.0,0.0,0.0,0.0,0.0,0.0,0.0,0.0,0.0,0.0,0.0,0.0,0.0,0.0,0.0,0.0,0.0,0.0,0.0,0.0,0.0,0.0,0.0,0.0,0.0,0.0,0.0,0.0,0.0,0.0,0.0,0.0,0.0,0.0,0.0,0.0,0.0,0.0,0.0,0.0,0.0,0.0,0.0,0.0,0.0,0.0,0.0,0.0,0.0,0.0,0.0,0.0,0.0,0.0,0.0,0.0,0.0,0.0,0.0,0.0,0.0,0.0,0.0,0.0,0.0,0.0,0.0,0.0,0.0,0.0,0.0,0.0,0.0,0.0,0.0,0.0,0.0,0.0,0.0,0.0,0.0,0.0,0.0,0.0,0.0,0.0,0.0,0.0,0.0,0.0,0.0,0.0,0.0,0.0,0.0,0.0,0.0,0.0,0.0,0.0,0.0,0.0,0.0,0.0,0.0,0.0,0.0,0.0,0.0,0.0,0.0,0.0,0.0,0.0,0.0,0.0,0.0,0.0,0.0,0.0,0.0,0.0,0.0,0.0,0.0,0.0,0.0,0.0,0.0,0.0,0.0,0.0,0.0,0.0,0.0,0.0,0.0,0.0,0.0,0.0,0.0,0.0,0.0,0.0,0.0,0.0,0.0,0.0,0.0,0.0,0.0,0.0,0.0,0.0,0.0,0.0,0.0,0.0,0.0,0.0,0.0,0.0,0.0,0.0,0.0,0.0,0.0,0.0,0.0,0.0,0.0,0.0,0.0,0.0,0.0,0.0,0.0,0.0,0.0,0.0,0.0,0.0,0.0,0.0,0.0,0.0,0.0,0.0,0.0,0.0,0.0,0.0,0.0,0.0,0.0,0.0,0.0,0.0,0.0,0.0,0.0,0.0,0.0,0.0,0.0,0.0,0.0,0.0,0.0,0.0,0.0,0.0,0.0,0.0,0.0,0.0,0.0,0.0,0.0,0.0,0.0,0.0,0.0,0.0,0.0,0.0,0.0,0.0,0.0,0.0,0.0,0.0,0.0,0.0,0.0,0.0,0.0,0.0,0.0,0.0,0.0,0.0,0.0,0.0,0.0,0.0,0.0,0.0,0.0,0.0,0.0,0.0,0.0,0.0,0.0,0.0,0.0,0.0,0.0,0.0,0.0,0.0,0.0,0.0,0.0,0.0,0.0,0.0,0.0,0.0,0.0,0.0,0.0,0.0,0.0,0.0,0.0,0.0,0.0,0.0,0.0,0.0,0.0,0.0,0.0,0.0,0.0,0.0,0.0,0.0,0.0,0.0,0.0,0.0,0.0,0.0,0.0,0.0,0.0,0.0,0.0,0.0,0.0,0.0,0.0,0.0,0.0,0.0,0.0,0.0,0.0,0.0,0.0,0.0,0.0,0.0,0.0,0.0,0.0,0.0,0.0,0.0,0.0,0.0,0.0,0.0,0.0,0.0,0.0,0.0,0.0,0.0,0.0,0.0,0.0,0.0,0.0,0.0,0.0,0.0,0.0,0.0,0.0,0.0,0.0,0.0,0.0,0.0,0.0,0.0,0.0,0.0,0.0,0.0,0.0,0.0,0.0,0.0,0.0,0.0,0.0,0.0,0.0,0.0,0.0,0.0,0.0,0.0,0.0,0.0,0.0,0.0,0.0,0.0,0.0,0.0,0.0,0.0,0.0,0.0,0.0,-1.6619,-2.1912,0.0,0.0,0.0,0.0,0.0,0.0,0.0,0.0,0.0,0.0,0.0,0.0,0.0,0.0,0.0,0.0,0.0,0.0,0.0,0.0,0.0,0.0,0.0,0.6083,0.5541,0.4224,0.391,0.3361,0.2343,0.0,0.0,0.0,0.0,0.0,-0.1334,-0.1961,-0.2275,-0.2275,-0.3056,-0.36,-0.3982,-0.6377,-0.8528,-1.0426,0.0,0.0,0.0,0.0,0.0,0.0,0.0,0.0,0.0,0.0,0.0,0.0,0.0,0.0,0.0,0.0,0.0,0.0,0.0,0.0,0.0,0.0,0.0,0.0,0.0,0.0,0.0,0.0,0.0,0.0,0.0,0.0,0.0,0.0,0.0,0.0,0.0,0.0,0.0,0.0,0.0,0.0,0.0,0.0,0.0,0.0,0.0,0.0,0.0,0.0,0.0,0.0,0.0,0.0,0.0,0.0,0.0,0.0,0.0,0.0,0.0,0.0,0.0,0.0,0.0,0.0,0.0,0.0,0.0,0.0,-0.7861,-1.6135,0.0,0.0,0.0,0.0,0.0,0.0,0.0,0.0,0.0,0.0,0.0,0.0,0.0,0.0,0.0,0.0,0.0,0.0,0.0,0.0,0.0,0.7617,0.7073,0.731,0.7157,0.6468,0.6163,0.5616,0.4673,0.4365,0.3276,0.1093,0.0857,0.0234,-0.1018,-0.1096,-0.1018,-0.086,-0.1954,-0.2733,-0.3274,-0.5437,-0.7728,-1.0082,-1.2111,0.0,0.0,0.0,0.0,0.0,0.0,0.0,0.0,0.0,0.0,0.0,0.0,0.0,0.0,0.0,0.0,0.0,0.0,0.0,0.0,0.0,0.0,0.0,0.0,0.0,0.0,0.0,0.0,0.0,0.0,0.0,0.0,0.0,0.0,0.0,0.0,0.0,0.0,0.0,0.0,0.0,0.0,0.0,0.0,0.0,0.0,0.0,0.0,0.0,0.0,0.0,0.0,0.0,0.0,0.0,0.0,0.0,0.0,0.0,0.0,0.0,0.0,0.0,1.4817,1.583,1.5753,1.5701,1.4394,1.1567,0.2408,-0.7239,-1.6758,-2.0517,0.0,0.0,0.0,0.0,0.0,0.0,0.0,0.0,0.0,0.0,0.0,0.0,0.0,0.0,0.0,0.0,0.0,0.0,0.0,1.0045,0.9271,0.9567,0.9331,0.833,0.7118,0.651,0.6659,0.5597,0.46,0.3902,0.1713,0.1014,0.219,0.1566,0.1641,0.2486,0.0854,-0.0311,-0.1093,-0.3736,-0.5662,-0.6935,-0.9697,-1.1749,-1.323,0.0,0.0,0.0,0.0,0.0,0.0,0.0,0.0,0.0,0.0,0.0,0.0,0.0,0.0,0.0,0.0,0.0,0.0,0.0,0.0,0.0,0.0,0.0,0.0,0.0,0.0,0.0,0.0,0.0,0.0,0.0,0.0,0.0,0.0,0.0,0.0,0.0,0.0,0.0,0.0,0.0,1.3286,1.3831,0.0,0.0,0.0,0.0,0.0,0.0,0.0,0.0,0.0,0.0,0.0,0.0,0.0,1.2182,1.0645,2.0014,2.4333,2.3708,3.2429,3.6546,3.6549,3.6497,2.8212,1.3864,1.2522,0.0,-0.6584,-1.5415,0.0,0.0,0.0,0.0,0.0,0.0,0.0,0.0,0.0,0.0,0.0,0.0,0.0,0.0,0.0,0.0,0.0,0.0,0.0,0.0,0.0,1.1672,1.1859,1.0911,1.071,1.0262,0.951,0.8316,0.7034,0.5511,0.4506,0.3969,0.3667,0.4055,0.4443,0.483,0.335,0.2106,0.1094,-0.109,-0.2948,-0.4722,-0.7403,-1.0129,-1.2764,-1.4283,0.0,0.0,0.0,0.0,0.0,0.0,0.0,0.0,0.0,0.0,0.0,0.0,0.0,0.0,0.0,0.0,0.0,0.0,0.0,0.0,0.0,0.0,0.0,0.0,0.0,0.0,0.0,0.0,0.0,0.0,0.0,0.0,0.0,0.0,0.0,0.0,0.0,0.0,0.0,2.0436,2.4325,2.8491,2.9007,2.8935,0.0,0.0,0.0,0.0,0.0,0.0,0.0,0.0,0.0,2.7807,2.8306,2.8177,2.7371,3.2166,3.44,3.4071,3.8583,4.0675,4.056,4.0557,3.3802,2.1799,1.6753,0.8555,-0.2109,-1.2766,-1.8999,-2.1838,0.0,0.0,0.0,0.0,-2.4684,-2.4624,0.0,0.0,0.0,0.0,0.0,0.0,0.0,0.0,0.0,0.0,0.0,0.0,1.3078,1.4088,1.4622,1.3993,1.4238,1.3884,1.2521,1.1212,0.9505,0.7403,0.7065,0.6461,0.5292,0.622,0.6546,0.6177,0.5076,0.3984,0.2973,0.1014,-0.0856,-0.2719,-0.5337,-0.8378,-1.171,-1.3837,-1.5492,-1.6817,0.0,0.0,0.0,0.0,0.0,0.0,0.0,0.0,0.0,0.0,0.0,0.0,0.0,0.0,0.0,0.0,0.0,0.0,0.0,0.0,0.0,0.0,0.0,0.0,0.0,0.0,0.0,0.0,0.0,0.0,0.0,0.0,0.0,0.0,0.0,0.0,0.0,3.1946,3.4068,3.9831,4.0609,4.0571,0.0,0.0,0.0,0.0,0.0,0.0,3.1302,3.6619,3.9935,4.0208,4.0344,4.038,4.0324,4.0525,4.0625,4.0625,4.0859,4.0867,4.073,4.0758,3.6171,2.7678,1.8821,0.9586,-0.007,-1.1054,-1.7216,-1.9839,-2.0954,-2.2115,-2.3239,-2.3345,-2.343,-2.3368,0.0,0.0,0.0,0.0,0.0,0.0,0.0,0.0,0.0,0.0,0.0,1.5948,1.6592,1.7175,1.7735,1.7974,1.6878,1.592,1.5382,1.343,1.1633,1.022,0.8197,0.7226,0.7625,0.8089,0.7629,0.6167,0.552,0.4902,0.4226,0.1719,0.0234,-0.0545,-0.3494,-0.6426,-0.9422,-1.2896,-1.5035,-1.6354,-1.8955,0.0,0.0,0.0,0.0,0.0,0.0,0.0,0.0,0.0,0.0,0.0,0.0,0.0,0.0,0.0,0.0,0.0,0.0,0.0,0.0,0.0,0.0,0.0,0.0,0.0,0.0,0.0,0.0,0.0,0.0,0.0,0.0,0.0,0.0,0.0,0.0,0.0,0.0,4.0309,4.0645,0.0,0.0,0.0,0.0,3.9723,3.9461,3.9343,3.9376,3.9366,3.9537,4.0003,4.0442,4.0674,4.0684,4.0863,4.0974,4.098,4.1055,4.1074,4.108,4.1019,3.6383,2.7922,1.9631,1.0257,0.0,-0.9982,-1.6009,-1.8952,-1.9839,-2.1535,-2.3301,-2.2648,-2.236,-2.2221,0.0,0.0,0.0,1.0932,1.1816,1.2903,1.4331,1.4775,1.5263,1.6417,1.7027,1.76,1.8344,1.994,2.0989,2.1205,2.1242,2.1163,2.0913,1.69,1.4154,1.318,0.9816,0.8008,0.8169,1.0949,1.0975,0.8003,0.9645,0.8775,0.5535,0.3977,0.2496,0.1014,-0.2089,-0.4325,-0.603,-1.0273,-1.3317,-1.552,-1.7339,-1.8843,0.0,0.0,0.0,0.0,0.0,0.0,0.0,0.0,0.0,0.0,0.0,0.0,0.0,0.0,0.0,0.0,0.0,0.0,0.0,0.0,0.0,0.0,0.0,0.0,0.0,0.0,0.0,0.0,0.0,0.0,0.0,0.0,0.0,0.0,0.0,0.0,0.0,4.0154,4.0404,0.0,3.9794,3.9842,3.9802,3.9548,3.9171,3.9136,3.9537,3.9264,3.9296,3.9724,3.9906,4.0005,4.0005,4.0323,4.0496,4.0477,4.0871,4.1047,4.1033,4.1054,3.6474,2.8058,1.982,1.0768,0.1112,-0.8375,-1.4316,-1.7454,-1.7777,-1.9043,-2.0787,-2.0884,-2.0971,-2.0941,0.0,1.0099,0.0,1.2245,1.3339,1.449,1.5983,1.6471,1.7083,1.8352,1.9052,1.9792,2.0694,2.2429,2.365,2.397,2.4529,2.475,2.4549,2.089,1.846,1.7778,1.3156,0.9947,0.847,1.0903,1.0942,0.8394,1.0252,0.9452,0.6237,0.4996,0.3593,0.2109,-0.0931,-0.3021,-0.4421,-0.7799,-1.1175,-1.4324,-1.6035,-1.7494,-1.8783,0.0,0.0,0.0,0.0,0.0,0.0,0.0,0.0,0.0,0.0,0.0,0.0,0.0,0.0,0.0,0.0,0.0,0.0,0.0,0.0,0.0,0.0,0.0,0.0,0.0,0.0,0.0,0.0,0.0,0.0,0.0,0.0,0.0,0.0,4.0577,4.0462,4.0002,4.0232,4.0213,3.9675,3.9717,3.9647,3.9324,3.911,3.9082,3.9298,3.911,3.9183,3.9558,3.9684,3.9735,3.9735,4.0139,4.0317,4.0348,4.0801,4.1006,4.1028,4.1054,3.7995,3.2216,2.39,1.5038,0.5788,-0.3413,-1.0605,-1.5854,-1.6124,-1.718,-1.847,-1.9049,-1.9238,-1.9182,1.0565,1.2251,1.3628,1.3454,1.4704,1.6167,1.756,1.7862,1.8506,2.0128,2.1381,2.253,2.3638,2.4761,2.572,2.6347,2.6505,2.6446,2.607,2.5089,2.4225,2.3615,1.8032,1.2862,0.8447,0.7973,0.7596,0.718,0.7134,0.6831,0.6257,0.4613,0.3517,0.2733,0.0078,-0.2419,-0.466,-0.5752,-0.8694,-1.2846,-1.5014,-1.6656,-1.7813,0.0,0.0,0.0,0.0,0.0,0.0,0.0,0.0,0.0,0.0,0.0,0.0,0.0,0.0,0.0,0.0,0.0,0.0,0.0,0.0,0.0,0.0,0.0,0.0,0.0,0.0,0.0,0.0,0.0,0.0,0.0,0.0,0.0,4.0348,4.0304,4.0215,3.9954,4.0214,4.0269,3.9933,4.0137,4.0118,3.9717,3.9445,3.932,3.9324,3.9137,3.9165,3.9502,3.9835,4.0002,4.0002,4.0403,4.061,4.0597,4.0874,4.1022,4.1091,4.1026,4.0889,4.0238,3.1843,2.3016,1.3844,0.4625,-0.5003,-1.4015,-1.5047,-1.5959,-1.6724,-1.7183,-1.7354,-1.7208,1.1842,1.2278,1.2917,1.4227,1.55,1.6748,1.818,1.9058,1.9998,2.1439,2.2224,2.3238,2.4969,2.5887,2.6836,2.8021,2.8404,2.8994,2.9815,2.6352,2.1811,1.6257,1.4272,1.1557,0.7855,1.1374,1.1389,0.7391,1.0185,0.9956,0.6938,0.5547,0.4377,0.3437,0.1482,-0.0701,-0.296,-0.4665,-0.6652,-0.891,-1.156,-1.3251,-1.4269,0.0,0.0,0.0,0.0,0.0,0.0,0.0,0.0,0.0,0.0,0.0,0.0,0.0,0.0,0.0,0.0,0.0,0.0,0.0,0.0,0.0,0.0,0.0,0.0,0.0,0.0,0.0,0.0,0.0,0.0,0.0,4.0487,4.0367,4.037,4.0454,4.0438,4.0215,4.0304,4.0286,3.9935,3.9975,3.9892,3.9575,3.9483,3.9483,3.958,3.9551,3.9532,3.9647,3.9878,3.9982,3.9937,4.0339,4.0534,4.0526,4.0848,4.1,4.1022,4.1113,4.1058,4.0451,3.2107,2.361,1.4966,0.5728,-0.3549,-1.2254,-1.4538,-1.5822,-1.6397,-1.6539,-1.6252,-1.5796,1.2959,1.3593,1.4291,1.5525,1.6766,1.793,1.9069,1.989,2.0816,2.1951,2.2774,2.3852,2.5315,2.6462,2.754,2.8701,2.9355,3.027,3.1593,2.9054,2.4212,1.6907,1.5773,1.3204,0.8599,1.0842,1.0543,0.7472,0.9591,0.9338,0.6788,0.5702,0.4616,0.3599,0.211,0.0312,-0.1641,-0.2885,-0.4356,-0.5973,-0.7466,-0.9255,-1.112,-1.1535,-1.1443,-1.1138,-1.1138,-1.1119,-1.1186,-1.1512,0.0,0.0,0.0,0.0,0.0,0.0,0.0,0.0,0.0,0.0,0.0,0.0,0.0,0.0,0.0,0.0,0.0,0.0,0.0,0.0,0.0,0.0,0.0,0.0,4.0319,4.0321,4.0469,4.0473,4.0427,4.0308,4.0325,4.0289,4.0098,4.0077,3.9977,3.9728,3.9709,3.9731,3.9738,3.98,3.9842,3.9924,4.0082,4.0138,4.0101,4.0446,4.0617,4.0591,4.0894,4.1061,4.1081,4.1112,4.1078,4.0539,3.2098,2.375,1.5412,0.6137,-0.3042,-1.1494,0.0,0.0,0.0,0.0,-1.5057,-1.4553,1.3905,1.5401,1.6603,1.6932,1.8094,1.9264,1.9933,2.0571,2.1273,2.2113,2.3255,2.4368,2.5217,2.6657,2.7871,2.8654,2.9492,3.0501,3.1629,3.1655,2.8606,2.1876,2.0051,1.6389,1.0289,0.8595,0.7698,0.7561,0.7249,0.6865,0.6412,0.5473,0.4457,0.3444,0.2272,0.094,-0.0548,-0.0783,-0.2032,-0.3744,-0.3431,-0.526,-0.8205,-0.8125,-0.797,-0.7895,-0.7815,-0.8027,-0.8468,-0.9846,0.0,0.0,0.0,0.0,0.0,0.0,0.0,0.0,0.0,0.0,0.0,0.0,0.0,0.0,0.0,0.0,0.0,0.0,0.0,0.0,0.0,0.0,0.0,0.0,4.0177,4.0411,4.0549,4.0413,4.031,4.0328,4.0328,4.0328,4.031,4.0328,4.0252,4.0081,4.0062,4.0024,3.991,4.0005,0.0,0.0,0.0,4.0431,4.0419,4.0692,4.0791,4.0751,4.0974,4.1121,4.1172,4.107,4.1017,4.0577,3.2911,2.4477,1.5554,0.7201,-0.2116,-1.1235,-1.2413,-1.3347,-1.4052,-1.4172,-1.3979,-1.3565,1.4049,1.4974,1.6018,1.7129,1.8123,1.9191,2.0495,2.1285,2.1975,2.2653,2.3649,2.4711,2.6037,2.6701,2.7384,2.8321,2.8993,2.9364,2.9267,2.9237,2.6917,2.1654,2.09,1.7828,1.184,1.1261,0.9954,0.7706,0.8016,0.771,0.7015,0.5774,0.4761,0.3904,0.3056,0.1723,0.0156,0.0861,-0.0,-0.1797,-0.1251,-0.3036,-0.5813,-0.495,-0.433,-0.3797,-0.3095,-0.294,-0.3096,-0.3409,-0.388,-0.4194,-0.3407,-0.333,0.0,0.0,0.0,0.0,0.0,0.0,0.0,0.0,0.0,0.0,0.0,0.0,0.0,0.0,0.0,0.0,0.0,0.0,0.0,4.0158,4.0158,4.0196,4.0345,4.0328,4.0363,4.0519,4.0549,4.0504,4.0392,4.0489,4.0515,4.0496,4.0477,4.0477,4.0442,4.0477,4.0446,4.0351,4.0545,4.0615,4.0565,4.0779,4.0904,4.0935,4.1046,0.0,4.1119,4.1086,4.1042,4.089,3.9013,2.9797,1.5964,1.4051,0.3973,-1.0361,-1.2553,-1.3563,-1.3687,-1.3493,-1.3284,-1.3026,1.538,1.5812,1.6524,1.755,1.8546,1.9672,2.0816,2.1537,2.2111,2.2739,2.359,2.4483,2.5356,2.6133,2.6901,2.7635,2.8592,2.8867,2.8167,2.8074,2.6206,2.2042,2.0834,1.8228,1.3922,1.249,1.0908,0.9125,0.8841,0.8165,0.7011,0.6234,0.5381,0.4373,0.3682,0.2741,0.172,0.2192,0.1487,0.0078,0.086,-0.0078,-0.2022,-0.1712,-0.109,-0.0312,0.0311,0.0388,0.0156,0.0233,-0.0,-0.0078,0.1474,0.1705,0.1472,0.0,0.0,0.0,0.0,0.0,0.0,0.0,0.0,0.0,0.0,0.0,0.0,0.0,0.0,4.0481,4.0356,0.0,4.0233,4.0158,4.0215,4.0307,4.0427,4.0511,4.0539,4.05,4.05,4.05,4.05,4.0559,4.0635,4.0707,4.0707,4.0738,4.081,4.0791,4.0781,4.0694,4.0799,4.0843,4.0788,4.0929,4.1022,4.1057,4.1087,4.1094,4.1094,4.1027,4.0948,4.0373,3.1974,2.3669,1.5391,0.6613,-0.207,-1.0106,-1.2301,-1.3099,-1.2883,-1.2657,-1.2599,-1.273,1.6843,1.7007,1.7339,1.8282,1.9292,2.038,2.1358,2.1957,2.2486,2.2985,2.3701,2.4321,2.4625,2.5536,2.6375,2.6872,2.7847,2.8153,2.7375,2.7225,2.5816,2.2811,2.0904,1.8658,1.6138,1.3489,1.1784,1.0908,0.9965,0.8765,0.7318,0.6923,0.6076,0.4921,0.4229,0.3759,0.3444,0.3444,0.2818,0.1879,0.266,0.2501,0.1797,0.1641,0.1957,0.2506,0.288,0.28,0.2647,0.2713,0.2866,0.3413,0.544,0.5986,0.5668,0.4794,0.4404,0.0,0.0,0.0,0.0,0.0,0.0,0.0,0.0,4.0558,4.0588,4.0603,4.0469,4.037,4.0339,4.0304,4.0269,4.0158,4.0304,4.0485,4.0574,4.0688,4.0694,4.05,4.05,4.0526,4.0635,4.0642,4.0713,4.0826,4.0837,4.0897,4.0986,4.0992,4.0994,4.1007,4.1007,4.1003,4.0996,4.1041,4.1087,4.1087,4.1087,4.1085,4.1074,4.091,3.9921,3.741,2.0882,1.3631,1.236,-0.3217,-0.9689,-0.9772,-1.1327,-1.1895,-1.1796,-1.2218,-1.2505,-1.273,1.7464,1.7599,1.8174,1.9595,2.0516,2.149,2.2759,2.3436,2.3896,2.4233,2.4591,2.4951,2.5262,2.5404,2.5728,2.6336,2.624,2.6226,2.6428,2.6079,2.5287,2.4124,2.2226,2.009,1.7744,1.5477,1.3628,1.2345,1.1545,1.0426,0.8993,0.7829,0.6762,0.5705,0.4771,0.4538,0.4768,0.4768,0.43,0.3519,0.3669,0.3748,0.3988,0.5476,0.5007,0.3675,0.4453,0.4913,0.514,0.4988,0.5505,0.6405,0.7034,0.7343,0.7415,0.7503,0.7287,0.6915,0.6157,1.3261,2.1528,2.3852,3.2466,4.0392,0.0,4.046,4.0519,4.0593,4.064,4.0626,4.0496,4.0579,4.0579,4.0396,4.0496,4.0574,4.0588,4.0602,4.0648,4.0732,4.0796,4.0818,4.0788,4.0837,4.0906,4.0967,4.0974,4.0986,4.1003,4.1003,4.1003,4.0996,4.0996,4.101,4.1006,4.1009,4.1016,4.101,4.1003,4.1003,4.1,4.0752,3.6697,2.8953,1.2358,0.5122,0.4297,-0.4986,-0.874,-0.874,-0.8999,-0.941,-1.0235,-1.2911,-1.3587,-1.3302,1.8437,1.8574,1.9096,2.0377,2.0803,2.1285,2.2012,2.2842,2.3325,2.3167,2.368,2.4178,2.4444,2.5232,2.5937,2.6475,2.6475,2.6345,2.6099,2.5601,2.4866,2.3891,2.2274,2.0739,1.9402,1.7275,1.5524,1.4139,1.3015,1.1539,0.982,0.8893,0.7914,0.6788,0.6005,0.5619,0.5699,0.5699,0.5547,0.524,0.5386,0.5625,0.5954,0.6567,0.6325,0.5696,0.624,0.67,0.0,0.7532,0.8339,0.929,0.9761,1.0278,1.057,1.0082,0.9793,0.9175,0.7319,1.5094,2.3733,2.3687,3.2089,4.0375,4.0411,4.0441,4.0519,4.064,4.0579,4.0549,4.0607,4.0564,4.0515,4.0526,4.0629,4.072,4.072,4.0784,4.0849,4.0917,4.0945,4.094,4.0849,4.0915,4.0979,4.1007,4.1008,4.1023,4.1069,4.105,4.1053,4.1054,4.1054,4.1033,4.0999,4.1001,4.0987,4.0933,4.0942,4.0933,4.0941,4.0787,3.6179,2.7648,1.595,0.8116,0.2969,-0.5199,-0.8476,-0.838,-0.8986,-0.924,-0.9492,-1.0788,-1.1397,-1.1569,1.9073,1.9231,1.9618,2.0479,2.09,2.1246,2.1789,2.2565,2.2971,2.2682,2.3154,2.3554,2.3556,2.4578,2.5356,2.5733,2.5919,2.5733,2.5217,2.4759,2.41,2.3321,2.2036,2.1086,2.0552,1.8413,1.6724,1.5601,1.4119,1.2443,1.0625,1.0078,0.913,0.794,0.7312,0.6894,0.67,0.6626,0.6633,0.6795,0.6868,0.7111,0.7435,0.7407,0.7399,0.7399,0.7633,0.8012,0.8537,0.9296,1.0404,1.1508,1.1964,1.2625,1.3055,1.2325,1.1726,1.0842,0.8937,1.536,2.2769,2.3603,3.1176,3.874,4.0057,4.0425,4.0523,4.064,4.0564,4.0534,4.0694,4.0629,4.0582,4.0694,4.0796,4.0858,4.0858,4.0943,4.0999,4.0993,4.1008,4.0974,4.0928,4.0967,4.0998,4.1007,4.1016,4.1051,4.1091,4.1091,4.1107,4.1111,4.1078,4.1042,4.0992,4.0967,4.0915,4.0855,4.0849,4.0859,4.0701,3.6084,3.0621,2.4166,1.3682,0.5727,-0.023,-0.6057,-0.838,-0.8285,-0.889,-0.8978,-0.8715,-0.8715,-0.9405,-1.0269,1.9301,1.9469,1.9636,1.9863,2.075,2.18,2.2809,2.3283,2.3554,2.3806,2.3638,2.3409,2.3056,2.3333,2.3574,2.3484,2.3574,2.3574,2.3484,2.3042,2.2784,2.2717,2.1771,2.1096,2.0885,1.846,1.6992,1.6539,1.4709,1.3146,1.1872,1.1232,1.0306,0.8996,0.8528,0.8264,0.8003,0.7633,0.7706,0.8008,0.7855,0.8016,0.8403,0.8551,0.8623,0.8623,0.8237,0.8613,0.9372,0.997,1.1242,1.2592,1.3018,1.3608,1.4049,1.3947,1.275,1.1498,1.1554,1.4948,1.9661,2.4644,2.9793,3.4761,3.9206,4.036,4.0531,4.0593,4.0654,4.0707,4.0784,4.0849,4.0904,4.0988,4.0979,4.0987,4.0987,4.1007,4.1006,4.1007,4.0996,4.1007,4.1006,4.1008,4.0994,4.0992,4.1052,4.1107,4.1097,4.1104,4.1091,4.1108,4.1047,4.0994,4.0994,4.0863,4.0771,4.0703,4.0776,4.0761,4.0149,2.4135,1.6565,1.5174,-0.0851,-0.8028,-0.8245,-0.8189,-0.8201,-0.8201,-0.8028,-0.7768,-0.7591,-0.7591,-0.8719,-1.0269,1.9469,1.9557,1.9715,2.0108,2.0566,2.1098,2.1731,2.2317,2.2681,2.2542,2.2689,0.0,0.0,0.0,0.0,0.0,2.4503,2.4434,2.3722,2.3296,2.2889,2.2488,2.1913,2.1321,2.0712,1.9439,1.8239,1.7184,1.57,1.4343,1.3173,1.2393,1.1461,1.0418,0.9938,0.9577,0.9428,0.8955,0.896,0.9185,0.8816,0.8838,0.9058,0.8755,0.8998,0.9593,0.0,1.0265,1.0357,1.1025,1.2285,1.3622,1.3608,1.4402,1.538,1.538,1.4721,1.3777,1.2751,1.6105,2.0756,2.4503,2.9377,3.4429,3.9199,4.0425,4.0607,4.0707,4.0752,4.0788,4.0856,4.0888,4.0913,4.0988,4.1006,4.1006,4.0994,4.1051,4.1049,4.1009,4.1035,4.1068,4.1064,4.1032,4.0994,4.099,4.106,4.1078,4.1045,4.1037,4.0986,4.0901,4.0871,4.0848,4.08,4.08,4.0746,4.0623,4.0745,4.0788,4.0384,2.9296,2.4185,2.3137,0.6885,-0.0228,-0.0698,-0.5908,-0.7852,-0.7768,-0.768,-0.7503,-0.7231,-0.7231,-0.7669,-0.8185,0.0,1.9794,1.9951,2.0342,2.0576,0.0,0.0,0.0,0.0,0.0,0.0,0.0,0.0,0.0,0.0,0.0,0.0,2.4047,2.3169,2.2638,2.2124,2.1614,2.1155,2.0692,2.0157,1.9155,1.8248,1.7417,1.6071,1.4939,1.3911,1.327,1.2481,1.1566,1.1159,1.0784,1.0465,0.9979,0.9979,1.0217,0.9667,0.9612,0.9905,0.9519,0.9959,0.0,1.1571,1.1835,1.1916,1.2365,1.3244,1.4194,1.4466,1.5752,1.7113,1.7269,1.7147,1.6504,1.5152,1.7175,2.0476,2.3955,2.704,3.0884,3.7298,3.8533,3.8751,4.0339,4.0713,4.0792,4.0878,4.0924,4.0953,4.102,4.1013,4.101,4.1004,4.1014,4.1014,4.0962,4.0996,4.1022,4.1025,4.0994,4.0972,4.1026,4.1074,4.1061,4.0972,4.0993,4.0953,4.0801,4.0791,4.0738,4.0694,4.0694,4.0655,4.0568,3.7714,3.635,3.5931,2.4729,1.961,1.8849,0.55,-0.0306,-0.0701,-0.5664,-0.768,-0.7507,-0.7415,-0.7234,-0.7051,-0.7054,-0.6966,-0.6966,0.0,0.0,2.0342,0.0,0.0,0.0,0.0,0.0,0.0,0.0,0.0,0.0,0.0,0.0,0.0,0.0,0.0,0.0,2.1807,2.1252,2.0692,2.0197,1.965,1.9344,1.9265,1.7811,1.7082,1.7261,1.5816,1.4755,1.4088,1.3822,1.3258,1.2343,1.2088,1.1699,1.1156,1.0578,1.0578,1.0913,1.0243,1.04,1.1036,1.0712,1.1229,1.2184,1.2594,1.3148,1.387,1.4088,1.4305,1.4673,1.585,1.7525,1.9173,1.9609,1.9759,1.9535,1.8653,1.8205,1.9071,2.3249,2.3337,2.4728,3.3624,3.4977,3.5427,3.9265,4.0404,4.0754,4.0885,4.0954,4.1017,4.1078,4.1034,4.0988,4.0986,4.0925,4.0881,4.0889,4.0882,4.0898,4.0888,4.0888,4.0943,4.1071,4.1078,4.102,4.0904,4.0937,4.0921,4.078,4.0711,4.0681,4.0681,4.0579,4.0534,4.0511,3.2739,2.8749,2.7675,1.1668,0.4253,0.3467,-0.4677,-0.8025,-0.7856,-0.7595,-0.7507,-0.7418,-0.7143,-0.7051,-0.7051,-0.6881,-0.6792,-0.6707,0.0,0.0,0.0,0.0,0.0,0.0,0.0,0.0,0.0,0.0,0.0,0.0,0.0,0.0,0.0,0.0,0.0,0.0,2.1175,2.1021,2.0615,1.9972,1.9816,1.9353,1.8567,1.8167,1.7448,1.6402,1.5824,1.5235,1.4573,1.4166,1.3353,1.2093,1.1668,1.1027,1.0198,0.9686,1.0118,1.0969,1.046,1.0808,1.1694,1.1284,1.1744,1.2838,1.3656,1.447,1.5213,1.5184,1.597,1.726,1.8715,1.9798,2.0555,2.1406,2.1639,2.1463,2.0938,2.0227,2.0687,2.4833,2.5284,2.5827,2.9989,3.359,3.5911,3.5368,3.8196,4.0799,4.0875,4.091,4.0918,4.0871,4.0863,4.0842,4.0844,4.0843,4.0824,4.083,4.082,4.0829,4.0828,4.0828,4.0809,4.0729,4.082,4.084,4.0749,4.0665,4.0584,4.0504,4.0492,4.0492,4.0543,4.0558,4.0617,4.0648,3.8475,3.4255,2.8088,1.7618,0.964,0.3691,-0.4472,-0.7856,-0.7595,-0.7149,-0.6972,-0.6969,-0.6697,-0.6605,-0.6609,-0.652,-0.6254,-0.5988,0.0,0.0,0.0,0.0,0.0,0.0,0.0,0.0,0.0,0.0,0.0,0.0,0.0,0.0,0.0,0.0,0.0,0.0,0.0,2.0401,1.9844,1.9195,1.8966,1.8487,1.7942,1.7538,1.6976,1.6102,1.5756,1.4996,1.3944,1.3833,1.2954,1.1499,1.1154,1.0631,1.0106,1.0019,1.0371,0.0,0.0,1.1483,1.2122,1.1782,1.2569,1.3905,1.4372,1.5583,1.7115,1.7477,1.8221,1.9136,2.0298,2.1381,2.2419,2.3116,2.3458,2.3514,2.3125,2.2552,2.2661,2.5182,2.5122,2.5361,2.8843,3.1283,3.3283,3.4998,3.7345,3.945,4.0641,4.0869,4.0831,4.0778,4.075,4.0742,4.0713,4.0679,4.0672,4.0668,4.07,4.07,4.07,4.0623,4.0557,4.0524,4.0641,4.0672,4.0577,4.0501,4.0431,4.0362,4.0379,4.0432,4.0502,4.0573,4.0612,4.0563,3.3271,2.7436,2.2653,1.0607,0.2856,-0.1388,-0.5896,-0.768,-0.7323,-0.6969,-0.6795,-0.6792,-0.652,-0.6428,-0.6334,-0.6013,-0.5731,-0.5463,0.0,0.0,0.0,0.0,0.0,0.0,0.0,0.0,0.0,0.0,2.1807,2.1807,2.1883,2.2101,0.0,0.0,0.0,0.0,0.0,0.0,1.8754,1.8264,1.7789,1.7473,1.7392,1.6582,1.6188,1.6198,1.5696,1.4601,1.3175,1.3336,1.2601,1.0982,1.0631,1.0289,0.9946,1.0463,1.0809,1.0895,1.1688,1.2118,1.2425,0.0,0.0,1.5057,1.5169,1.6754,1.9037,1.999,2.0447,2.0689,2.1376,2.2804,2.434,2.4791,2.5158,2.537,2.5004,2.4779,2.4767,2.5146,2.4376,2.4582,2.8493,2.883,2.9892,3.5434,3.6823,3.7764,4.0151,4.0734,4.0838,4.0801,4.0889,4.0958,4.0893,4.0838,4.0803,4.08,4.0758,4.075,4.075,4.0447,4.0281,4.0329,4.04,4.0434,4.037,4.0332,4.0317,4.0289,4.0344,4.0415,4.0485,4.0519,4.0545,4.0357,2.4992,1.7105,1.5536,0.0075,-0.727,-0.7856,-0.7856,-0.7577,-0.7024,-0.6851,-0.6669,-0.6562,-0.6292,-0.6113,-0.6011,-0.5386,-0.5092,-0.4906,0.0,0.0,0.0,0.0,0.0,0.0,0.0,0.0,0.0,0.0,2.1807,2.1959,0.0,0.0,0.0,0.0,0.0,0.0,0.0,0.0,0.0,1.8112,1.7951,1.7716,1.74,1.6902,1.646,1.6078,1.565,1.5144,1.4664,1.3769,1.2589,1.1219,1.0188,0.9065,0.8028,0.8894,0.9584,1.0188,1.1327,1.2106,1.2699,1.3002,0.0,0.0,1.6992,1.8479,1.9534,2.0294,2.1429,2.2622,2.3514,2.4649,2.5624,2.5849,2.6013,2.6082,2.607,2.6057,2.6126,2.6552,2.6445,2.6083,2.5278,2.8137,3.0991,3.0891,3.4477,3.8021,3.926,4.0379,4.1138,4.1185,4.1857,4.2354,4.2336,4.2336,4.2355,4.2393,4.1817,4.1452,4.1505,4.0635,4.0023,3.9905,3.9757,3.9821,4.0138,4.0042,4.0059,4.0196,4.0234,4.0289,4.0415,4.0251,4.0212,4.0151,3.0412,2.2245,1.5454,0.6041,-0.1825,-0.7856,-0.768,-0.7344,-0.688,-0.6535,-0.6123,-0.56,-0.5178,-0.4753,-0.4493,-0.4145,-0.38,-0.346,0.0,0.0,0.0,0.0,0.0,0.0,0.0,2.1807,2.1814,2.1818,2.2237,2.2526,2.2424,2.1994,2.1727,0.0,0.0,0.0,0.0,0.0,0.0,0.0,0.0,0.0,1.7716,1.731,1.6732,1.6145,0.0,1.5162,1.4076,1.3121,1.1986,1.0697,0.9405,0.8807,0.8632,0.9414,1.0193,1.0971,1.21,1.2705,1.2966,0.0,0.0,0.0,1.823,1.9381,2.0029,2.0566,2.1756,2.3084,2.3963,2.4921,2.5873,2.644,2.6589,2.6658,2.6918,2.704,2.7242,2.7564,2.7947,2.7946,2.7144,2.876,3.0658,3.1421,3.3636,3.62,3.8609,3.9871,4.0769,4.1354,4.1903,4.2299,4.2337,4.236,4.2446,4.2572,4.189,4.1396,4.1357,4.0331,3.9599,3.9408,3.9234,3.9338,3.9775,3.9854,3.9975,4.0157,4.0177,4.0215,4.0289,4.027,4.0323,4.0312,3.1948,2.5731,2.1182,0.9531,0.197,-0.2111,-0.5449,-0.679,-0.6473,-0.5791,-0.5333,-0.503,-0.4365,-0.3946,-0.3773,-0.3568,-0.3306,-0.3052,0.0,0.0,0.0,0.0,0.0,0.0,2.1807,2.1956,2.2076,2.2114,2.3118,2.361,2.3058,2.2621,2.2183,0.0,0.0,0.0,0.0,0.0,0.0,0.0,0.0,0.0,1.804,0.0,0.0,1.6317,1.6195,0.0,0.0,0.0,0.0,0.0,0.9579,0.9323,0.9923,1.0717,1.1327,0.0,0.0,1.3313,1.3222,0.0,0.0,0.0,0.0,2.0029,2.042,2.0799,2.1776,2.2957,2.3829,2.4838,2.5918,2.6714,2.7066,2.7268,2.7656,2.7908,2.8105,2.8546,2.898,2.9373,2.9727,2.9699,3.0321,3.2793,3.3386,3.4471,3.7828,3.926,4.0318,4.1468,4.1969,4.2267,4.2441,4.2495,4.2598,4.2805,4.1921,4.1236,4.1103,3.9965,3.9107,3.8849,3.8748,3.8902,3.9427,3.967,3.9848,3.9994,4.0077,4.0138,4.0158,4.0043,4.0038,4.0044,3.0015,2.4907,2.3885,0.8912,0.1865,0.1078,-0.3997,-0.6099,-0.5826,-0.516,-0.4729,-0.4545,-0.3725,-0.3313,-0.3141,-0.2763,-0.2664,-0.2496,0.0,0.0,0.0,0.0,0.0,0.0,2.1807,2.2534,2.3051,2.3094,2.4555,2.5486,2.4915,2.329,2.1846,0.0,0.0,0.0,0.0,0.0,0.0,0.0,0.0,0.0,0.0,0.0,0.0,1.6683,1.6319,0.0,0.0,0.0,0.0,0.0,0.0,1.1219,1.0956,1.1837,0.0,0.0,0.0,0.0,0.0,0.0,0.0,0.0,0.0,2.0411,2.0644,2.1051,2.1655,2.2392,2.3683,2.5063,2.622,2.6744,2.7351,2.8039,2.8546,2.8675,2.8853,2.9498,2.9498,2.9498,3.0312,3.0582,3.0999,3.2158,3.3204,3.4541,3.6618,3.8483,4.0185,4.1555,4.2613,4.3407,4.3849,4.3897,4.3997,4.4204,4.2632,4.153,4.1456,3.97,3.8517,3.8282,3.8314,3.8621,3.921,3.935,3.9502,3.9623,3.9781,3.9911,4.0017,3.9047,3.865,3.8607,2.3188,1.5877,1.5435,0.094,-0.5674,-0.5758,-0.567,-0.5471,-0.5283,-0.4965,-0.4503,-0.3866,-0.3317,-0.2688,-0.1977,-0.1262,-0.0867,-0.063,0.0,0.0,0.0,0.0,0.0,0.0,2.1807,2.2566,2.319,2.314,2.4716,2.5602,2.478,2.3866,2.3069,2.2261,2.0363,0.0,0.0,0.0,0.0,0.0,0.0,0.0,0.0,0.0,1.7392,1.673,1.6574,0.0,0.0,0.0,0.0,0.0,0.0,1.1821,1.2089,1.2443,0.0,0.0,0.0,0.0,0.0,0.0,0.0,0.0,0.0,0.0,2.0896,2.1502,2.2035,2.2628,2.3644,2.4731,2.5861,2.6934,2.755,2.8012,2.8853,2.9233,2.9498,3.0007,3.0129,3.0312,3.0732,3.0984,3.1321,3.2185,3.2977,3.4066,3.593,3.7659,3.928,4.0726,4.1869,4.2737,4.3177,4.3371,4.3557,4.3812,4.2421,4.1268,4.0887,3.9232,3.8008,3.7506,3.7506,3.7703,3.8059,3.8663,3.9073,3.9242,3.9294,3.9371,3.947,3.9236,3.9096,3.8889,2.799,2.2527,2.1516,0.8739,0.2542,0.1644,-0.3115,-0.4915,-0.4295,-0.3195,-0.237,-0.1644,-0.0783,-0.0157,0.0235,0.0392,0.0627,0.094,0.0,0.0,0.0,0.0,0.0,2.2001,2.2213,2.3086,2.3781,2.3913,2.5297,2.5995,2.54,2.4573,2.388,2.3412,2.107,0.0,0.0,0.0,0.0,0.0,0.0,0.0,0.0,0.0,1.7546,1.673,1.673,1.6245,0.0,0.0,1.4139,1.388,0.0,0.0,0.0,0.0,0.0,0.0,0.0,0.0,0.0,0.0,0.0,0.0,0.0,0.0,0.0,0.0,0.0,2.315,2.3824,2.4743,2.5836,2.7136,2.7657,2.8182,2.9359,2.987,3.0129,3.0493,3.0687,3.0881,3.1161,3.1278,3.1567,3.2231,3.2803,3.3718,3.5349,3.6896,3.843,3.9869,4.0972,4.1828,4.2378,4.2616,4.2754,4.2996,4.1646,4.0454,3.9928,3.831,3.7122,3.6689,3.6649,3.6711,3.6777,3.7417,3.8002,3.8499,3.8511,3.8619,3.8812,3.8395,3.7848,3.7037,2.9079,2.4566,2.2843,1.2318,0.7094,0.5964,-0.0158,-0.2532,-0.2039,-0.0803,0.008,0.0798,0.1918,0.2399,0.248,0.248,0.2477,0.2715,0.0,0.0,0.0,0.0,0.0,2.2562,2.3097,2.4282,2.5251,2.5813,2.6655,2.7138,2.7149,2.5337,2.4125,2.4125,2.1668,0.0,0.0,0.0,0.0,0.0,0.0,0.0,1.804,1.804,1.7546,1.673,1.673,1.6245,1.5431,1.5431,1.5257,1.509,0.0,0.0,0.0,0.0,0.0,0.0,0.0,0.0,0.0,0.0,0.0,0.0,0.0,0.0,0.0,0.0,0.0,0.0,0.0,2.5217,2.6501,2.7165,2.7894,2.8826,3.0176,3.0568,3.0687,3.1161,3.1058,3.094,3.1612,3.164,3.161,3.2079,3.2711,3.3557,3.48,3.6253,3.7784,3.9264,4.0255,4.1065,4.1796,4.1924,4.1931,4.1908,4.0312,3.9045,3.8651,3.6842,3.5786,3.589,3.5907,3.5812,3.564,3.5623,3.6201,3.738,3.7417,3.7628,3.8107,3.6006,3.3986,3.1992,2.2758,1.7219,1.4775,0.6824,0.3267,0.3187,0.2561,0.2076,0.1663,0.1912,0.2499,0.334,0.4274,0.4699,0.4701,0.504,0.4954,0.4696,0.0,0.0,0.0,0.0,0.0,0.0,2.315,2.4568,2.5711,2.5869,2.6666,2.7231,2.7231,2.5337,2.4039,2.3932,2.159,0.0,0.0,0.0,0.0,0.0,0.0,0.0,1.804,1.804,1.7716,1.7147,1.6902,1.6409,1.5839,1.5514,1.5264,1.509,1.4999,1.4824,0.0,0.0,0.0,0.0,0.0,0.0,1.8141,0.0,0.0,0.0,0.0,0.0,0.0,0.0,0.0,0.0,0.0,0.0,0.0,2.84,2.8989,2.938,3.0372,3.0762,3.1014,3.1234,3.1234,3.1234,3.1539,3.1655,3.1868,3.2492,3.2873,3.3361,3.4325,3.584,3.7152,3.79,3.9126,4.0286,4.0943,4.1065,4.1094,4.0961,3.899,3.7462,3.7005,3.5504,3.4544,3.4592,3.4592,3.4511,3.4382,3.4268,3.4775,3.5907,3.5973,3.6039,3.6162,3.5145,3.4226,3.3321,2.4885,1.992,1.7992,1.0806,0.6545,0.4972,0.6816,0.7518,0.7388,0.7123,0.7005,0.7019,0.6926,0.6922,0.684,0.6685,0.6609,0.6526,0.0,0.0,0.0,0.0,0.0,0.0,2.4124,2.5328,2.6211,2.6404,2.6862,2.7231,2.7231,2.5673,2.4467,2.3943,2.1983,0.0,0.0,0.0,0.0,0.0,0.0,0.0,1.8468,1.8468,1.822,1.7804,1.7379,1.6875,1.6461,1.6037,1.5638,1.5445,1.5353,1.5113,0.0,0.0,0.0,0.0,0.0,0.0,1.9283,0.0,0.0,0.0,0.0,0.0,0.0,0.0,0.0,0.0,0.0,0.0,0.0,0.0,2.9936,3.0315,3.0732,3.1043,3.1292,3.1482,3.1524,3.1582,3.1754,3.1868,3.2094,3.2742,3.2996,3.333,3.4,3.5489,3.6779,3.717,3.8502,3.9713,4.0254,4.0402,4.0199,3.9479,3.8001,3.6563,3.5478,3.4565,3.385,3.3578,3.3511,3.3407,3.3198,3.3024,3.3208,3.3777,3.4267,3.4554,3.4645,3.36,3.2596,3.1542,2.5686,2.1955,1.9909,1.4787,1.1362,0.9563,1.0643,1.0879,0.0,1.0297,0.9991,0.9568,0.9117,0.8778,0.861,0.8447,0.8283,0.8123,0.0,0.0,0.0,0.0,0.0,0.0,0.0,2.6246,2.6691,2.7162,2.7231,2.7231,2.7231,2.6185,2.5147,2.4221,2.2824,0.0,0.0,0.0,0.0,0.0,0.0,1.917,1.917,1.917,1.8998,1.8559,1.8118,1.7597,1.7159,1.6632,1.6308,1.595,1.577,1.5504,0.0,0.0,0.0,0.0,1.8798,1.9362,0.0,0.0,0.0,0.0,0.0,0.0,0.0,0.0,0.0,0.0,0.0,0.0,0.0,0.0,0.0,0.0,0.0,3.1452,3.1552,3.1784,3.1898,3.2038,3.2135,3.2191,0.0,3.2843,3.3096,3.345,3.3848,3.5334,3.6623,3.7018,3.8311,3.9379,3.9798,3.9781,3.9237,3.7752,3.7258,3.6286,3.4281,3.3951,3.3583,3.2858,3.2617,3.2382,3.2135,3.1951,3.1667,3.1278,3.2391,3.3103,3.3406,3.1566,2.9628,2.7596,2.5629,2.3352,2.0837,1.8653,1.7097,1.6083,1.4135,1.2638,1.1616,1.1809,1.1558,1.1037,1.0869,1.0524,1.0183,1.0356,1.0009,0.9492,0.0,0.0,0.0,0.0,0.0,0.0,0.0,0.0,0.0,0.0,2.7231,2.7231,2.7231,2.6351,2.5316,0.0,0.0,0.0,0.0,0.0,0.0,0.0,1.9333,1.917,1.917,1.917,1.917,1.8998,1.8559,1.8118,1.7597,1.7159,1.6683,1.6265,1.6265,1.6421,0.0,0.0,0.0,0.0,2.0089,2.0576,0.0,0.0,0.0,0.0,2.315,2.3998,0.0,0.0,0.0,0.0,0.0,0.0,0.0,0.0,3.148,3.1868,3.1811,0.0,3.1868,3.194,3.1996,3.1996,0.0,3.215,3.2358,3.2888,3.3134,3.345,3.3949,3.5299,3.6393,3.6623,3.785,3.8947,3.9379,3.8772,3.8101,3.7524,3.6307,3.5427,3.5087,3.3839,3.2935,3.2725,3.201,3.1495,3.1321,3.1131,3.0955,3.0747,3.0629,3.0808,3.1245,3.0211,2.9247,2.8493,2.7087,2.5599,2.4066,2.2339,2.0602,1.877,1.6871,1.5335,1.4189,1.3866,1.3372,1.2784,1.2784,1.2522,1.226,1.1746,1.1488,1.1316,0.0,0.0,0.0,0.0,0.0,0.0,0.0,0.0,0.0,0.0,2.7231,2.7231,2.7231,2.6787,2.6008,0.0,0.0,0.0,0.0,0.0,0.0,1.9992,1.9795,1.9684,1.9684,1.9684,1.9684,1.9684,1.9234,1.8791,1.8255,1.7807,1.7274,1.6676,1.6949,1.7722,0.0,0.0,0.0,0.0,2.163,0.0,0.0,0.0,0.0,0.0,2.4777,2.5672,0.0,2.7082,2.7854,2.8757,0.0,0.0,0.0,0.0,3.1966,3.2094,3.215,3.215,3.2094,3.2094,3.215,3.2191,3.2388,3.2499,3.2703,3.3208,3.3382,3.3607,3.4,3.5315,3.634,3.6482,3.7688,3.8727,3.904,3.8606,3.801,3.7251,3.6397,3.5462,3.4424,3.335,3.2511,3.1842,3.1235,3.0792,3.0673,3.0553,3.0372,3.0251,2.9808,2.9747,3.0054,2.9233,2.8675,2.8352,2.731,2.6414,2.5615,2.4002,2.2264,2.042,1.8894,1.7317,1.5959,1.5628,1.5054,1.4482,1.4314,1.3971,1.3464,1.3203,1.2869,1.2619,0.0,0.0,0.0,0.0,0.0,0.0,0.0,0.0,0.0,0.0,0.0,0.0,0.0,0.0,0.0,0.0,0.0,0.0,0.0,0.0,2.0826,2.0382,2.0292,2.0292,2.0292,2.0292,2.0292,2.0292,1.992,1.9463,1.892,1.8542,1.8018,1.7364,1.8033,1.9161,2.0754,2.0913,2.1563,2.2441,2.2991,0.0,0.0,0.0,0.0,0.0,0.0,0.0,0.0,2.861,2.9204,3.0172,3.0491,0.0,0.0,0.0,0.0,0.0,3.2755,3.2684,3.2481,3.2333,3.2413,3.2633,3.2897,3.2951,3.3096,3.3607,3.3694,3.3845,3.4196,3.538,3.6388,3.6576,3.7753,3.8616,3.8639,3.8567,3.8051,3.675,3.6491,3.5508,3.317,3.2713,3.2076,3.0995,3.0491,3.019,3.0129,3.0036,2.9851,2.9623,2.931,2.9198,2.9352,2.8624,2.8039,2.7723,2.6985,2.6508,2.6151,2.4397,2.2807,2.1415,2.0081,1.8621,1.7204,1.6944,1.646,1.5899,1.5643,1.5144,1.4475,1.4559,1.423,1.373,0.0,0.0,0.0,0.0,0.0,0.0,0.0,0.0,0.0,0.0,0.0,0.0,0.0,0.0,0.0,0.0,0.0,0.0,0.0,2.2473,2.1872,2.0654,2.0382,2.0292,2.0292,2.0292,2.0292,2.0292,2.0201,1.992,1.9463,1.9363,1.9422,1.9439,2.0167,2.0844,2.1504,2.1589,2.2222,2.3304,2.3384,0.0,0.0,0.0,0.0,0.0,0.0,0.0,0.0,3.1012,3.1493,3.196,3.2258,0.0,0.0,0.0,0.0,0.0,3.4549,3.4479,3.3787,3.2967,3.2989,3.3203,3.3256,3.3256,3.3361,3.3658,3.3694,3.3989,3.4859,3.572,3.6497,3.7064,3.7968,3.8448,3.7934,3.746,3.6672,3.5232,3.4562,3.3785,3.2669,3.1913,3.1445,3.1257,3.0368,2.9747,2.9498,2.9338,2.9099,2.8766,2.8457,2.8262,2.8341,2.8052,2.7723,2.7403,2.6769,2.6358,2.6151,2.3845,2.252,2.2006,1.9972,1.8745,1.8095,1.7691,1.7286,1.6796,1.6386,1.6139,1.5974,1.5477,1.5144,1.5061,0.0,0.0,0.0,0.0,0.0,0.0,0.0,0.0,0.0,0.0,0.0,0.0,0.0,0.0,0.0,0.0,0.0,0.0,2.4457,2.3337,2.2385,2.1784,2.1078,2.0555,2.0292,2.0292,2.0292,2.0292,2.0736,2.0645,2.0184,2.0249,2.0602,2.123,2.1578,2.2271,2.3222,2.3403,2.3885,2.4623,0.0,0.0,0.0,0.0,0.0,0.0,0.0,0.0,0.0,0.0,3.2939,3.3261,3.3661,0.0,0.0,0.0,0.0,0.0,3.5173,3.526,3.4997,3.4587,3.429,3.418,3.418,3.4305,3.4539,3.4793,3.4968,3.5239,3.5736,3.6367,3.708,3.7792,3.8109,3.8132,3.786,3.7144,3.6175,3.4864,3.4098,3.3199,3.1907,3.1323,3.0882,3.0525,2.9806,2.9324,2.9198,2.8958,2.878,2.8587,2.8276,2.8079,2.8079,2.7603,2.7268,2.7146,2.6782,2.644,2.6176,2.4838,2.3879,2.322,2.1876,2.0894,2.011,1.9335,1.863,1.7989,1.7359,1.6886,1.6484,1.6064,1.5974,1.5809,0.0,0.0,0.0,0.0,0.0,0.0,0.0,0.0,0.0,0.0,0.0,0.0,0.0,0.0,0.0,0.0,0.0,0.0,2.5819,2.4276,2.3337,2.2999,2.2208,2.1347,2.0382,2.0555,2.0645,2.0555,2.1266,2.1436,2.1078,2.132,2.1943,2.2677,2.2921,2.3617,2.4669,2.5031,2.5305,2.571,0.0,0.0,0.0,0.0,0.0,0.0,0.0,0.0,0.0,0.0,0.0,0.0,0.0,0.0,0.0,3.5291,3.5387,3.553,3.5951,3.6087,3.614,3.6277,3.5752,3.525,3.525,3.5435,3.5673,3.5767,3.6001,3.6228,3.6389,3.6987,3.7632,3.8181,3.8017,3.7754,3.7754,3.6875,3.5711,3.456,3.3712,3.252,3.0882,3.0637,3.0298,2.9803,2.9338,2.9099,2.8972,2.8651,2.8457,2.8327,2.8066,2.7881,2.7881,2.7281,2.6943,2.7024,2.6726,2.6452,2.6131,2.5606,2.4933,2.4047,2.339,2.2638,2.18,2.0961,2.0187,1.9483,1.8709,1.7844,1.7057,1.6886,1.6722,1.6394,0.0,0.0,0.0,0.0,0.0,0.0,0.0,0.0,0.0,0.0,0.0,0.0,0.0,0.0,0.0,0.0,0.0,0.0,2.583,2.5652,2.5136,2.4049,2.3953,2.2824,2.0744,2.1257,2.1526,2.1356,2.1961,2.2306,2.2306,2.295,2.3319,2.3503,2.4509,2.502,2.52,2.5633,2.5892,2.6108,2.7046,0.0,0.0,0.0,0.0,0.0,0.0,0.0,0.0,0.0,0.0,0.0,0.0,0.0,3.5347,3.541,3.5379,3.5799,3.7657,3.7552,3.7061,3.7607,3.695,3.6196,3.6196,3.6196,3.6126,3.5876,3.5822,3.6014,3.6638,3.7383,3.7879,3.7943,3.7653,3.7417,3.7417,3.6328,3.4987,3.3728,3.2429,3.1151,2.9854,2.9673,2.9659,2.9602,2.9289,2.8972,2.8651,2.8341,2.7947,2.759,2.7469,2.7335,2.7335,2.693,2.6794,2.7024,2.6671,2.6327,2.591,2.5087,2.4492,2.4047,2.3073,2.2627,2.2478,2.1876,2.1573,2.142,2.0575,1.9413,1.8175,1.8175,1.7538,1.6648,0.0,0.0,0.0,0.0,0.0,0.0,0.0,0.0,0.0,0.0,0.0,0.0,0.0,0.0,0.0,0.0,0.0,2.7056,2.6704,2.6091,2.5568,2.5147,2.4648,2.3877,2.2833,2.2902,2.2989,2.2902,2.3587,2.3867,2.3734,2.4605,2.4871,2.4605,2.5295,2.5884,2.6279,2.6062,2.66,2.7519,2.7753,2.8571,0.0,0.0,0.0,0.0,0.0,0.0,0.0,0.0,3.5891,3.5904,3.6313,3.651,3.6756,3.7158,3.7271,3.7431,3.8173,3.8165,3.7931,3.8124,3.7931,3.7487,3.7061,3.7174,3.7231,3.7102,3.7287,3.744,3.7495,3.752,3.7594,3.7594,3.7314,3.7165,3.7165,3.5567,3.4091,3.3317,3.1772,3.034,2.9366,2.9289,2.9226,2.8972,2.8651,2.8406,2.8276,2.7934,2.7669,2.7523,2.7403,2.7268,2.7268,2.6918,2.6726,2.6794,2.6589,2.6327,2.591,2.5606,2.5241,2.4791,2.4227,2.3936,2.3863,2.2894,2.2435,2.2188,2.1257,2.0265,1.9353,1.9571,1.8877,1.7789,0.0,0.0,0.0,0.0,0.0,0.0,0.0,0.0,0.0,0.0,0.0,0.0,0.0,0.0,0.0,0.0,2.7219,2.7231,2.7231,2.661,2.6257,2.6257,2.5684,2.5263,2.5073,2.4978,2.4617,2.4094,2.4808,2.5094,2.4967,2.5559,2.5801,2.5527,2.5968,2.6543,2.7082,2.6883,2.744,2.8381,2.8499,2.9226,0.0,0.0,0.0,0.0,0.0,0.0,0.0,0.0,3.6337,3.656,3.6967,3.7382,3.7825,3.8286,3.8391,3.8391,3.8391,3.8391,3.8391,3.8391,3.8391,3.8278,3.7844,3.7902,3.8033,3.7892,3.7892,3.7876,3.7669,3.7433,3.7254,3.7254,3.7044,3.6816,3.6816,3.5064,3.3577,3.304,3.1308,2.9884,2.9162,2.8972,2.8844,2.8587,2.8276,2.8079,2.8079,2.7736,2.7523,2.7523,2.7335,2.7214,2.7214,2.6794,2.6658,2.6658,2.6521,2.6327,2.591,2.591,2.5688,2.5312,2.5052,2.4992,2.4921,2.4032,2.3423,2.2968,2.2188,2.1191,2.0216,2.0508,1.9659,1.8353,0.0,0.0,0.0,0.0,0.0,0.0,0.0,0.0,2.7893,2.7893,2.7893,0.0,0.0,0.0,0.0,0.0,2.7301,2.7231,2.7231,2.7231,2.7231,2.7231,2.7231,2.7231,2.7231,2.7231,2.6445,2.4787,2.5527,2.5895,2.5895,2.5895,2.6052,2.6268,2.6704,2.7128,2.7596,2.8133,2.8439,2.8475,2.9195,2.9344,2.9238,0.0,0.0,0.0,0.0,0.0,0.0,0.0,3.6526,3.65,3.65,3.7406,3.8391,3.8391,3.8391,3.8391,3.8391,3.8391,3.8391,3.8391,3.8391,3.8391,3.8391,3.8391,3.827,3.7875,3.7395,3.6999,3.7015,3.7015,3.7015,3.7015,3.6693,3.6492,3.6492,3.4942,3.3577,3.304,3.1108,2.9637,2.9162,2.878,2.8587,2.8587,2.8276,2.8079,2.8079,2.7736,2.7523,2.7523,2.7146,2.7024,2.7024,2.6671,2.6533,2.6533,2.6533,2.6327,2.591,2.591,2.5688,2.5312,2.5312,2.5312,2.5312,2.5182,2.4611,2.3897,2.3666,2.2446,2.0837,2.0837,1.9835,1.8434,0.0,0.0,0.0,0.0,0.0,0.0,0.0,0.0,2.8779,2.8351,2.8191,0.0,0.0,0.0,0.0,0.0,0.0,0.0,2.7719,2.7719,2.7719,2.7719,2.7719,2.7719,2.7719,2.7719,2.7126,2.6008,2.655,2.655,2.6124,2.6704,2.7244,2.774,2.7861,2.8344,2.8984,2.8247,2.8379,2.9173,2.8844,2.9419,3.0543,0.0,0.0,0.0,0.0,0.0,0.0,0.0,0.0,0.0,3.7838,3.8116,3.8391,3.8391,3.8391,3.8391,3.8391,3.8391,3.8391,3.8391,3.8391,3.8391,3.8391,3.8391,3.8214,3.7456,3.7152,3.704,3.6984,3.6816,3.6616,3.6616,3.6554,3.6492,3.6492,3.4388,3.2838,3.2698,3.0482,2.883,2.8406,2.8341,2.8131,2.7868,2.7736,2.7669,2.7669,2.7536,2.7469,2.7335,2.7146,2.6943,2.6794,2.6589,2.6533,2.6533,2.6533,2.6327,2.591,2.591,2.5688,2.5312,2.5182,2.5052,2.4921,2.4622,2.4334,2.4116,2.4043,2.3372,2.2306,2.2004,2.0847,1.9441,0.0,0.0,0.0,0.0,0.0,0.0,0.0,0.0,3.005,2.9402,2.9212,2.8895,0.0,0.0,0.0,0.0,0.0,0.0,2.7869,2.7893,2.7893,2.7893,2.7893,2.7893,2.7893,2.8179,2.8075,2.7568,2.7534,2.7301,2.6869,2.781,2.8505,2.8929,2.9038,2.9439,3.005,2.8918,2.9008,2.9911,2.9475,3.0044,3.1304,0.0,0.0,0.0,0.0,0.0,0.0,0.0,0.0,0.0,3.8398,3.8375,3.8391,3.8391,3.8391,3.8391,3.8391,3.8391,3.8391,3.8391,3.8391,3.8424,3.8375,3.8398,3.8258,3.7689,3.7207,3.6859,3.68,3.6631,3.6492,3.6492,3.6492,3.6429,3.6211,3.4044,3.2445,3.2205,2.9919,2.8341,2.8145,2.7947,2.7736,2.7523,2.7523,2.7523,2.7523,2.7523,2.7469,2.7403,2.7146,2.6943,2.6794,2.6602,2.6533,2.6533,2.6533,2.6327,2.591,2.591,2.5688,2.5382,2.5253,2.5111,2.4981,2.4562,2.4418,2.4418,2.4273,2.3677,2.3001,2.2703,2.1538,1.9972,0.0,0.0,3.2775,3.2775,0.0,0.0,0.0,0.0,3.1242,3.0512,3.0445,2.996,0.0,0.0,0.0,0.0,0.0,0.0,2.8016,2.8051,2.7983,2.8042,2.8122,2.8122,2.8122,2.8937,2.9303,2.9303,2.8554,2.8111,2.8191,2.9045,2.9641,2.9948,3.0038,3.0445,3.0982,2.9979,3.0031,3.0755,3.0889,3.1271,3.1805,3.2329,0.0,0.0,0.0,0.0,0.0,0.0,0.0,0.0,3.8391,3.8391,3.8391,3.8391,3.8391,3.8391,3.8391,3.8391,3.8391,3.8391,3.8408,3.8416,3.838,3.8307,3.8229,3.8239,3.7281,3.6476,3.6492,3.6492,3.6492,3.6492,3.6492,3.6352,3.5816,3.3854,3.2254,3.1781,2.9556,2.8013,2.8013,2.7736,2.7523,2.7523,2.7523,2.7523,2.7523,2.7456,2.7469,2.7469,2.7146,2.6943,2.6956,2.6671,2.6533,2.6533,2.6465,2.6258,2.591,2.591,2.5758,2.5535,2.5382,2.5312,2.5241,2.4921,2.479,2.4718,2.4345,2.3751,2.3075,2.2916,2.1832,2.0275,0.0,0.0,3.3675,3.3675,0.0,0.0,0.0,0.0,0.0,0.0,0.0,0.0,0.0,0.0,0.0,0.0,0.0,0.0,2.9001,2.8963,2.8946,2.8882,2.9419,2.9793,2.9793,3.0581,3.1018,3.1018,3.0316,3.0025,3.0291,3.0768,3.1169,3.1537,3.1336,3.178,3.2645,3.1022,3.0983,3.2088,3.3011,3.3427,3.3574,3.3673,3.3895,0.0,0.0,0.0,0.0,0.0,0.0,0.0,3.8391,3.8391,3.8391,3.8391,3.8391,3.8391,3.8391,3.8391,3.8391,3.8391,3.8391,3.8396,3.843,3.761,3.689,3.6876,3.6661,3.6492,3.6523,3.6492,3.6492,3.6492,3.6492,3.6429,3.6352,3.3902,3.2033,3.1983,2.937,2.7603,2.7603,2.7536,2.7523,2.7523,2.7523,2.7523,2.7523,2.7403,2.7268,2.7079,2.6863,2.6726,2.6602,2.6533,2.6533,2.6533,2.6339,2.6201,2.6131,2.598,2.5688,2.5382,2.5182,2.5111,2.5111,2.4706,2.4574,2.4562,2.4273,2.4116,2.3824,2.2521,2.168,2.0971,0.0,0.0,0.0,0.0,0.0,0.0,0.0,0.0,0.0,0.0,0.0,0.0,0.0,0.0,0.0,0.0,2.9388,2.9435,2.9607,2.9909,3.0241,3.0467,3.0794,3.1018,3.1079,3.1815,3.2249,3.2321,3.2464,3.2092,3.1288,3.2136,3.2484,3.2486,3.2901,3.3372,3.3776,3.3561,3.4145,3.5298,3.5909,3.5503,3.4436,3.419,3.5122,3.6799,3.8294,0.0,0.0,0.0,0.0,0.0,0.0,0.0,3.8391,3.8391,3.8391,3.8424,3.8391,3.8423,3.8382,3.838,3.8418,3.8275,3.761,3.6966,3.6476,3.6507,3.6523,3.6492,3.6476,3.6492,3.6492,3.6492,3.6414,3.6148,3.5529,3.3638,3.1985,3.1026,2.9174,2.7837,2.7562,2.7523,2.7523,2.7523,2.7523,2.7523,2.7523,2.7403,2.7268,2.7146,2.6863,2.6658,2.6589,2.6521,2.6533,2.6533,2.6396,2.627,2.6062,2.5828,2.5606,2.5312,2.5241,2.5182,2.517,2.4909,2.4778,2.4766,2.449,2.4116,2.3644,2.2756,2.1756,2.0837,0.0,0.0,0.0,0.0,0.0,0.0,0.0,0.0,0.0,0.0,0.0,0.0,0.0,0.0,2.9936,0.0,0.0,0.0,3.0228,3.0786,3.1439,3.2109,3.2064,3.2136,3.228,3.2947,3.3394,3.3533,3.4438,3.3973,3.2396,3.3448,3.3715,3.3293,3.4505,3.5047,3.5141,3.6342,3.7496,3.8537,3.8562,3.74,3.561,3.5166,3.6767,3.9309,3.9325,3.9308,3.9214,3.8583,0.0,0.0,0.0,0.0,3.8391,3.8391,3.8424,3.8432,3.8405,3.8258,3.8094,3.805,3.8054,3.778,3.6736,3.6476,3.6476,3.6523,3.6492,3.6492,3.6492,3.6492,3.6492,3.6492,3.6336,3.5785,3.4581,3.3413,3.2008,3.0319,2.9217,2.8347,2.7876,2.7837,2.7785,2.768,2.768,2.7628,2.7469,2.7335,2.7201,2.7201,2.6863,2.6658,2.6658,2.6589,2.6533,2.6533,2.6465,2.6188,2.5758,2.5606,2.5465,2.5312,2.5312,2.5312,2.5312,2.5182,2.5123,2.5052,2.4706,2.4105,2.3486,2.3139,2.2069,2.0692,0.0,0.0,0.0,0.0,0.0,0.0,0.0,0.0,0.0,0.0,3.1411,3.1264,0.0,3.094,3.0955,3.1073,3.1028,3.1023,3.1108,0.0,0.0,3.2494,3.3185,3.3561,3.3561,3.4423,3.492,3.492,3.5379,3.5385,3.502,3.4955,3.4951,3.5033,3.529,3.6352,3.7868,3.8072,3.857,3.9184,3.9202,3.901,3.8685,3.8629,3.888,3.9332,3.9309,3.9317,3.9221,3.8603,3.8404,0.0,0.0,0.0,3.8391,3.8391,3.8407,3.8422,3.8396,3.7589,3.6766,3.6739,3.6716,3.672,3.6537,3.6523,3.6523,3.6492,3.6492,3.6492,3.6492,3.6492,3.6492,3.6492,3.6258,3.5819,3.5109,3.3599,3.2244,3.1363,3.0037,2.9131,2.9052,2.9052,2.883,2.8307,2.8268,2.7978,2.7361,2.7146,2.6943,2.6794,2.6589,2.6521,2.6521,2.6533,2.6533,2.6533,2.6188,2.5758,2.5382,2.5382,2.5312,2.5312,2.5312,2.5312,2.5312,2.5182,2.5123,2.5052,2.4861,2.4574,2.4261,2.357,2.2585,2.1527,0.0,0.0,0.0,0.0,0.0,0.0,0.0,0.0,0.0,0.0,0.0,3.1754,3.1796,3.1853,3.1894,3.2089,3.2145,3.2307,3.2657,3.3092,3.3579,3.4112,3.4604,3.4942,3.5023,3.5299,3.5524,3.5653,3.5973,3.6056,3.5811,3.5658,3.5536,3.5445,3.5856,3.6916,3.8444,3.8772,3.9083,3.9309,3.9284,3.9292,3.9325,3.9295,3.9279,3.9276,3.9309,3.9301,3.9275,3.9013,3.8694,3.839,3.8432,0.0,0.0,0.0,3.8389,3.8216,3.7524,3.6948,3.6521,3.6521,3.6476,3.6492,3.6492,3.6492,3.6492,3.6492,3.6492,3.6492,3.6492,3.6475,3.6413,3.6228,3.5691,3.5044,3.4312,3.3099,3.1913,3.0847,3.0105,2.9627,2.9314,2.9274,2.917,2.8895,2.8512,2.8075,2.776,2.7178,2.6794,2.6714,2.6589,2.6533,2.6533,2.6533,2.6465,2.6339,2.6131,2.584,2.5465,2.5465,2.5382,2.5312,2.5312,2.5312,2.5312,2.5241,2.5182,2.5182,2.4921,2.4478,2.3852,2.335,2.2596,2.169,0.0,0.0,0.0,0.0,0.0,0.0,0.0,0.0,0.0,0.0,0.0,3.2287,3.2547,0.0,0.0,0.0,3.2949,3.3262,3.3912,3.4431,3.4957,3.555,3.5891,3.6117,3.6211,3.6133,3.6133,3.6274,3.6569,3.6584,3.6414,3.6222,3.616,3.6242,3.6738,3.76,3.865,3.9079,3.928,3.9317,3.9272,3.9292,3.9292,3.9325,3.9272,3.9272,3.9272,3.9284,3.9313,3.9281,3.8881,3.8414,3.8415,3.8391,0.0,0.0,0.0,3.7721,3.6767,3.6508,3.6492,3.6492,3.6492,3.6492,3.6492,3.6492,3.6492,3.6492,3.6492,3.6492,3.6492,3.6352,3.618,3.5902,3.507,3.4254,3.3561,3.272,3.1648,3.0472,3.0346,3.0176,2.9758,2.9706,2.9653,2.951,2.8866,2.835,2.8066,2.7309,2.6866,2.6658,2.6521,2.6533,2.6533,2.6533,2.6396,2.6213,2.6213,2.598,2.5606,2.5606,2.5453,2.5312,2.5312,2.5312,2.5312,2.5312,2.5312,2.5312,2.5052,2.4527,2.3829,2.3338,2.2596,2.1756,0.0,0.0,0.0,0.0,0.0,0.0,0.0,0.0,0.0,0.0,0.0,3.2788,3.2933,3.3002,3.3108,3.3335,3.3387,3.362,3.4317,3.5031,3.5631,3.6052,3.6651,0.0,3.6845,3.7042,3.7118,3.7134,3.7112,3.7172,3.7326,3.6748,3.7132,3.8261,3.8302,3.8674,3.9292,3.9284,3.9292,3.9315,3.9315,3.9315,3.9315,3.9292,3.9272,3.9272,3.9272,3.9272,3.9322,3.9303,3.887,3.8394,3.8383,3.8391,3.8383,0.0,0.0,0.0,3.6492,3.6476,3.6492,3.6492,3.6492,3.6492,3.6492,3.6492,3.6492,3.6492,3.6492,3.6492,3.6492,3.5997,3.5563,3.5548,3.4718,3.3879,3.3547,3.272,3.1796,3.1009,3.0934,3.0934,3.0895,3.0895,3.0673,3.0124,2.9826,2.9176,2.7978,2.7691,2.7227,2.6546,2.6533,2.6533,2.6533,2.6533,2.6396,2.6213,2.6213,2.598,2.5606,2.5606,2.5453,2.5312,2.5312,2.5312,2.5312,2.5312,2.5312,2.5312,2.5312,2.517,2.4886,2.3829,2.285,2.1886,0.0,0.0,0.0,0.0,0.0,0.0,0.0,0.0,0.0,0.0,0.0,0.0,0.0,3.3713,3.3866,3.4218,3.4317,3.4431,3.4592,3.5505,3.612,3.6158,3.709,3.7562,3.7562,3.7551,3.7551,3.7653,3.7722,3.7636,3.7412,3.7601,3.8163,3.9001,3.9001,3.9079,3.9284,3.9276,3.9484,3.9828,3.979,3.9637,3.9315,3.9292,3.9272,3.9272,3.9272,3.9322,3.9297,3.9281,3.8919,3.8381,3.8415,3.8391,3.8246,3.7446,3.6886,3.6523,3.6476,3.6492,3.6492,3.6492,3.6492,3.6492,3.6492,3.6492,3.6414,3.6212,3.6197,3.615,3.6163,3.4228,3.3064,3.4519,3.3257,3.2219,3.2536,3.1882,3.1334,3.1061,3.0986,3.0986,3.0986,3.0986,3.0895,3.0699,3.0025,2.9417,2.8959,2.7957,2.7276,2.6992,2.671,2.6533,2.6533,2.6533,2.6396,2.6213,2.6062,2.5828,2.5606,2.5465,2.5382,2.5312,2.5312,2.5312,2.5312,2.5312,2.5312,2.5312,2.5182,2.5052,2.4849,2.4322,2.379,2.3276,0.0,0.0,0.0,0.0,0.0,3.3694,3.3694,3.3848,3.4,3.405,0.0,0.0,0.0,0.0,3.4643,3.4977,3.5071,3.5118,3.5024,3.6158,3.6763,3.6626,3.7747,3.8343,3.8286,3.8132,3.8132,3.823,3.8286,3.8197,3.7882,3.8427,3.8914,3.9292,3.9313,3.9284,3.9329,3.9468,3.9778,4.0085,4.0098,3.9809,3.9301,3.9276,3.9272,3.9272,3.9272,3.9301,3.9292,3.9062,3.8727,3.839,3.8432,3.8375,3.8162,3.6892,3.6521,3.6492,3.6492,3.6492,3.6492,3.6492,3.6399,3.6383,3.6476,3.6522,3.6367,3.6041,3.5902,3.5746,3.5503,3.3281,3.2097,3.3929,3.2584,3.1527,3.2046,3.1468,3.0986,3.0986,3.0986,3.0986,3.0986,3.0986,3.0986,3.0911,3.0261,2.9653,2.9387,2.8277,2.7394,2.7017,2.6722,2.6533,2.6533,2.6533,2.6396,2.627,2.6188,2.5968,2.5688,2.5535,2.5453,2.5312,2.5312,2.5312,2.5312,2.5312,2.5312,2.5312,2.5182,2.5123,2.4921,2.4467,2.4166,2.3897,0.0,0.0,3.5796,3.5796,3.4868,3.4151,3.4151,3.4349,3.4546,3.4691,0.0,0.0,0.0,0.0,0.0,3.5577,3.5622,3.5622,3.5656,3.6966,3.7631,3.7451,3.8633,3.9202,3.9023,3.8914,3.8805,3.8805,3.8805,3.8805,3.8805,3.9171,3.9292,3.9275,3.9268,3.9276,3.9315,3.9845,4.0068,4.0104,4.0085,3.978,3.9289,3.9295,3.9325,3.9309,3.9272,3.9301,3.9188,3.8586,3.8388,3.839,3.8375,3.838,3.8102,3.6859,3.6523,3.6492,0.0,0.0,0.0,3.6492,3.6228,3.6119,3.6399,3.6506,3.6381,3.6056,3.5748,3.5217,3.4486,3.3286,3.2833,3.3778,3.2863,3.2087,3.2087,3.1468,3.0986,3.0986,3.0986,3.0986,3.0986,3.0986,3.0911,3.0698,3.052,3.0049,2.9263,2.8497,2.7632,2.6609,2.6584,2.6571,2.6546,2.6546,2.6546,2.6533,2.6465,2.6258,2.591,2.591,2.5676,2.5312,2.5312,2.5312,2.5312,2.5312,2.5312,2.5312,2.5312,2.5312,2.5158,2.4192,2.3756,2.3457,0.0,3.6125,3.6024,3.5891,3.5284,3.4835,3.4835,3.4947,3.5135,0.0,0.0,0.0,3.5295,3.5577,3.5824,3.6087,3.6122,3.6311,3.6789,3.7667,3.8248,3.8535,3.943,3.9833,3.9677,3.9504,3.9451,3.9451,3.9255,3.9169,3.9172,3.9272,3.9322,3.9322,3.9288,3.9279,3.9356,3.9863,4.0086,4.0088,4.0103,3.9766,3.9294,3.9285,3.9301,3.9292,3.9325,3.9308,3.9232,3.859,3.839,3.8391,3.8382,3.7786,3.6927,3.6627,3.6523,3.6492,3.6492,0.0,0.0,0.0,0.0,0.0,3.6228,3.6196,3.6133,3.5849,3.526,3.4758,3.4359,3.3156,3.2311,3.2552,3.1915,3.1334,3.1334,3.1123,3.0986,3.0986,3.0986,3.0911,3.0773,3.0773,3.0685,3.052,3.0305,3.0088,2.9847,2.9076,2.8373,2.767,2.7657,2.7457,2.7055,2.7055,2.6854,2.6533,2.6188,2.598,2.591,2.5606,2.5382,2.5312,2.5312,2.5312,2.5312,2.5312,2.5312,2.5312,2.5312,2.5241,2.5111,2.4814,2.4748,2.4705,3.6654,3.6746,3.6775,3.6649,3.6146,3.5776,3.5776,3.5864,3.5977,0.0,0.0,0.0,3.6703,3.6903,3.7084,3.7352,3.7321,3.7403,3.768,3.8481,3.9049,3.9197,3.9831,4.0138,3.9986,3.9833,3.9729,3.9677,3.959,3.9435,3.9285,3.9418,3.9382,3.9299,3.9272,3.9311,3.9328,3.9848,4.0082,4.0101,4.0084,3.978,3.941,4.0222,4.0033,3.9272,3.9322,3.9133,3.887,3.8535,3.8375,3.8382,3.8402,3.7508,3.6471,3.6507,3.6523,3.6492,3.6492,3.6492,3.6476,3.6336,0.0,0.0,3.618,3.6039,3.5849,3.5415,3.4942,3.438,3.3547,3.2706,3.2015,3.1676,3.1259,3.0986,3.0986,3.0986,3.0986,3.0986,3.0986,3.0911,3.0849,3.0849,3.0685,3.0444,3.0292,3.005,2.9656,2.9177,2.8674,2.8122,2.8109,2.7946,2.7632,2.762,2.7469,2.7143,2.6872,2.6658,2.6574,2.6274,2.6058,2.5985,2.5985,2.5985,2.5985,2.5985,2.5853,2.5636,2.5636,2.5709,2.5852,2.5852,2.5737,2.5733,0.0,3.7478,3.765,3.765,3.7166,3.6781,3.6869,3.6952,3.7069,0.0,3.7329,3.7727,3.8865,3.8919,3.8903,3.9103,3.8916,3.8684,3.851,3.9303,3.9794,3.9704,4.0124,4.032,4.0221,4.0037,3.9935,3.9867,3.9833,3.9715,3.9462,3.9715,3.9647,3.9309,3.9343,3.9486,3.972,4.0233,4.0406,4.0405,4.0366,4.0048,3.9782,4.1358,4.0865,3.9276,3.9301,3.8936,3.8378,3.8398,3.84,3.8354,3.8248,3.7395,3.6491,3.6492,3.6492,3.6492,3.6492,3.6492,3.6414,3.6165,3.5991,0.0,3.6006,3.5737,3.5285,3.481,3.4528,3.3891,3.2349,3.2015,3.1736,3.1123,3.0986,3.0986,3.0986,3.0986,3.0986,3.0986,3.0986,3.0911,3.0911,3.0911,3.0748,3.0368,3.0292,2.9923,2.9051,2.9026,2.88,2.831,2.8298,2.826,2.8197,2.8197,2.816,2.8109,2.7902,2.7681,2.752,2.7285,2.7061,2.6935,2.6935,2.6935,2.6935,2.6935,2.6635,2.619,2.619,2.649,2.6935,2.6935,2.6733,2.6459,3.727,3.727,3.7309,3.7309,3.7203,3.7309,3.7945,3.8072,3.8362,3.9216,3.9242,3.9606,4.0672,4.087,4.078,4.0474,3.968,3.9281,3.9544,3.9434,3.9852,4.0961,4.0889,4.081,4.0836,4.0631,4.0614,4.0754,4.0271,4.0199,4.0528,4.0706,4.0271,3.9344,3.9757,4.0779,4.2227,4.2323,4.2345,4.2358,4.2012,4.1839,4.1576,4.0324,3.9632,3.9328,3.9306,3.89,3.8394,3.8423,3.8391,3.82,3.7212,3.6701,3.6491,3.6492,3.6492,3.6492,3.6492,3.6321,3.6165,3.618,3.5672,0.0,3.4927,3.438,3.3837,3.3561,3.3003,3.2506,3.2146,3.1603,3.1198,3.1048,3.0986,3.0986,3.0986,3.0986,3.0911,3.0773,3.0773,3.0622,3.0305,3.0305,3.0164,2.9946,2.9934,2.9819,2.9628,2.9616,2.9578,2.9465,2.9465,2.9239,2.8775,2.8762,2.8549,2.8109,2.7877,2.7656,2.752,2.7285,2.7061,2.6935,2.6935,2.6935,2.6935,2.6935,2.6875,2.6767,2.6767,2.6839,2.6935,2.6935,2.7036,2.7174,3.772,3.7755,3.7843,3.7843,3.8254,3.8669,3.9049,3.9534,4.0073,4.0489,4.0919,4.135,4.1962,4.2426,4.2629,4.2406,4.1794,4.1325,4.1196,4.0966,4.102,4.1479,4.1584,4.1437,4.0976,4.1251,4.1328,4.125,4.1018,4.0896,4.0902,4.0984,4.1056,4.1091,4.0395,4.114,4.2871,4.189,4.1363,4.1103,4.0903,4.0787,4.0681,3.9671,3.9915,4.0646,3.9654,3.8936,3.843,3.8415,3.8431,3.8195,3.6877,3.6518,3.6492,3.6523,3.6492,3.6492,3.6492,3.6399,3.6258,3.6148,3.5494,0.0,0.0,3.3973,3.3227,3.2861,3.2434,3.2015,3.1603,3.1259,3.0986,3.0986,3.0986,3.0986,3.0986,3.0986,3.0986,3.0836,3.0849,3.0698,3.047,3.0394,3.0241,2.9934,2.9869,2.9792,2.9792,2.9792,2.9792,2.9792,2.9792,2.9654,2.9365,2.9365,2.9214,2.895,2.8687,2.8535,2.8459,2.8154,2.7924,2.7859,2.7717,2.7717,2.7717,2.7717,2.7717,2.7693,2.7428,2.7488,2.7717,2.7717,2.7729,2.7787,3.8328,3.846,3.8627,3.8742,3.941,4.001,4.0258,4.1056,4.1662,4.1709,4.2382,4.2884,4.2928,4.3527,4.3925,4.3992,4.3752,4.3323,4.2832,4.2734,4.2472,4.1988,4.2253,4.2015,4.1233,4.1635,4.1806,4.171,4.1534,4.142,4.1348,4.1255,4.1586,4.2298,4.1101,4.1393,4.2665,4.0867,3.9805,3.9307,3.9306,3.9534,3.9853,3.9886,4.0637,4.1512,3.9773,3.8841,3.8391,3.8391,3.8405,3.8173,3.6892,3.6504,3.6507,3.6476,3.6492,3.6492,3.6492,3.6492,3.6352,3.5894,3.5219,3.4528,0.0,0.0,0.0,3.2232,3.2015,3.175,3.1123,3.0986,3.0986,3.0986,3.0986,3.0911,3.0911,3.0911,3.0911,3.0911,3.0836,3.0761,3.0546,3.0546,3.0394,3.0088,2.9869,2.9792,2.9792,2.9792,2.9792,2.9792,2.9792,2.9792,2.9792,2.9792,2.9792,2.9792,2.9599,2.9431,2.9341,2.904,2.8803,2.8724,2.8578,2.851,2.851,2.851,2.851,2.8474,2.8041,2.8138,2.851,2.851,2.8431,2.8259,3.8833,3.8773,3.8983,3.9718,3.9933,4.0467,4.1871,4.23,4.2728,4.3495,4.3725,4.3825,4.3856,4.3936,4.3979,4.4011,4.3915,4.3832,4.3823,4.3836,4.3646,4.3277,4.2777,4.2402,4.221,4.1475,4.1489,4.2501,4.1257,4.1339,4.268,4.2132,4.1357,4.045,4.1759,4.2314,4.2275,4.074,3.9794,3.9311,3.9313,4.0385,4.1953,4.1957,4.0982,3.9511,3.8799,3.8486,3.8391,3.8391,3.8423,3.82,3.6904,3.6516,3.6522,3.6507,3.6492,3.6492,3.6492,3.6352,3.6006,3.5219,3.4327,3.3422,3.2577,0.0,3.1198,3.1198,0.0,3.1123,3.0986,0.0,0.0,3.0986,3.0849,3.0698,3.0698,3.0609,3.0444,3.0444,3.0305,3.0088,2.9946,2.9869,2.9869,2.9869,2.9792,2.9792,2.9792,2.9792,2.9792,2.9792,2.9792,2.9792,2.9792,2.9792,2.9792,2.9792,2.9792,2.9546,2.9131,2.9052,2.8895,2.851,2.851,2.851,2.851,2.851,2.851,2.8498,2.845,2.8462,2.851,2.851,2.851,2.8431,3.8979,3.8892,3.9091,3.9921,4.0517,4.1219,4.235,4.2987,4.3476,4.3905,4.3974,4.4005,4.4005,4.4005,4.4005,4.4005,4.3974,4.3955,4.3949,4.397,4.3941,4.3809,4.3495,4.3359,4.3324,4.285,4.2796,4.3229,4.2515,4.2368,4.2678,4.2566,4.2038,4.1208,4.16,4.1995,4.2261,4.1618,4.0582,3.941,4.0555,4.1529,4.2154,4.1024,4.0055,3.9201,3.8635,3.8404,3.8383,3.8375,3.8407,3.829,3.7786,3.7081,3.6521,3.6476,3.6523,3.6492,3.6492,3.6414,3.6289,3.5737,3.4647,3.3478,3.3003,3.1896,3.0986,3.0986,0.0,0.0,0.0,0.0,0.0,0.0,3.0911,3.0849,3.0698,3.0533,3.0368,3.0368,3.0292,3.0228,3.0011,2.9869,2.9792,2.9792,2.9792,2.9792,2.9792,2.9792,2.9792,2.9792,2.9792,2.9792,2.9792,2.9792,2.9792,2.9792,2.9792,2.9714,2.9468,2.9209,2.8973,2.8828,2.859,2.851,2.851,2.851,2.851,2.851,2.851,2.851,2.851,2.851,2.851,2.851,3.9253,3.9073,3.9254,4.0288,4.1051,4.186,4.2828,4.3526,4.3942,4.4005,4.4005,4.4005,4.4005,4.3974,4.3974,4.3974,4.391,4.3892,4.3855,4.3929,4.3933,4.3961,4.3962,4.3996,4.3991,4.3885,4.38,4.3688,4.3324,4.3014,4.2675,4.2735,4.2494,4.2056,4.1724,4.1824,4.219,4.2282,4.1445,4.0259,4.1708,4.2126,4.1766,4.0574,3.9795,3.9228,3.8776,3.8525,3.839,3.8415,3.8375,3.8373,3.838,3.778,3.6933,3.6597,3.66,3.6616,3.6492,3.6492,3.6414,3.6006,3.4765,3.3602,3.3283,3.2028,3.0986,3.0986,3.0986,0.0,0.0,0.0,3.0986,3.0911,0.0,3.0761,3.0546,3.0381,3.0292,3.0292,3.0292,3.0152,3.0011,2.9869,2.9792,2.9792,2.9792,2.9792,2.9792,2.9792,2.9792,2.9792,2.9792,2.9792,2.9792,2.9792,2.9792,2.9792,2.9792,2.9792,2.9702,2.9287,2.9052,2.8973,2.8669,2.851,2.851,2.851,2.851,2.851,2.851,2.851,2.851,2.851,2.851,2.851,3.9797,3.9364,3.9515,4.1174,4.1489,4.2057,4.3695,4.3986,4.4005,4.4005,4.4005,4.4005,4.4005,4.3961,4.3897,4.3897,4.3734,4.3667,4.3786,4.3822,4.3822,4.3804,4.3929,4.3984,4.3989,4.4013,4.3892,4.3692,4.2923,4.274,4.316,4.2652,4.2356,4.2216,4.249,4.2387,4.1917,4.2168,4.2271,4.2187,4.2273,4.171,4.0961,4.1839,4.0996,3.9287,3.9292,3.8897,3.839,3.8415,3.8408,3.8383,3.8389,3.838,3.8126,3.6857,3.6722,3.6938,3.6616,3.6492,3.6289,3.5385,3.4418,3.3463,3.2648,3.1676,3.0986,3.0986,3.0986,3.0986,3.0986,3.0986,3.0911,3.0773,3.0533,0.0,0.0,2.9946,2.9869,3.0075,2.9934,2.9792,2.9792,2.9792,2.9792,2.9792,2.9792,2.9792,2.9792,2.9792,2.9792,2.9792,2.9792,2.9792,2.9792,2.9792,2.9792,2.9792,2.9792,2.9689,2.9419,2.9209,2.8961,2.8803,2.8578,2.851,2.851,2.851,2.851,2.851,2.851,2.851,2.851,2.851,2.851,2.851,4.0533,4.0365,4.0536,4.1586,4.2087,4.273,4.3838,4.4005,4.3974,4.3961,4.3929,4.3929,4.3883,4.3851,4.3818,4.3818,4.3753,4.3753,4.3804,4.3851,4.3851,4.3804,4.3929,4.3979,4.3939,4.3888,4.3822,4.3756,4.3355,4.3231,4.334,4.305,4.2882,4.2786,4.2706,4.253,4.2351,4.2329,4.2329,4.2305,4.2305,4.1304,3.9998,4.167,4.1034,3.9311,3.9322,3.8903,3.8388,3.8399,3.8391,3.8408,3.8416,3.8415,3.8216,3.7342,3.6888,3.6645,3.6523,3.6492,3.6414,3.6085,3.5044,3.3959,3.3394,3.2304,3.1347,3.1061,3.0986,3.0986,3.0986,3.0986,3.0911,3.0698,3.0622,3.0457,0.0,2.9934,2.9869,2.9869,2.9869,2.9792,2.9792,2.9792,2.9792,2.9792,2.9792,2.9792,2.9792,2.9792,2.9792,2.9792,2.9792,2.9792,2.9792,2.9792,2.9792,2.9792,2.9792,2.9779,2.9689,2.9431,2.9197,2.8973,2.8803,2.8657,2.851,2.851,2.851,2.851,2.851,2.851,2.851,2.851,2.851,2.851,4.1683,4.1816,4.1963,4.2173,4.2768,4.3392,4.3912,4.3974,4.3961,4.3915,4.3883,4.3851,4.3804,4.3771,4.3719,4.3719,4.3719,4.3686,4.3686,4.3767,4.3767,4.3686,4.3832,4.3897,4.38,4.3786,4.3771,4.3719,4.36,4.3463,4.334,4.3251,4.3142,4.3012,4.2765,4.2649,4.2609,4.2427,4.2328,4.2287,4.2086,4.1251,4.0182,4.0957,4.0425,3.9312,3.9301,3.8942,3.8394,3.8383,3.8391,3.8391,3.8391,3.8432,3.8341,3.7897,3.7235,3.6689,3.6693,3.6616,3.6492,3.6492,3.5529,3.4432,3.3808,3.2791,3.1823,3.1468,3.1198,3.1123,3.169,3.1334,3.0986,3.0973,3.0748,3.0457,0.0,2.9869,2.9792,2.9792,2.9792,2.9792,2.9792,2.9792,2.9792,2.9792,2.9792,2.9792,2.9792,2.9792,2.9792,2.9792,2.9792,2.9792,2.9792,2.9792,2.9792,2.9792,2.9792,2.9792,2.9792,2.9509,2.9341,2.9197,2.8961,2.8803,2.8578,2.8578,2.8578,2.851,2.851,2.851,2.851,2.851,2.851,2.851,4.315,4.3579,4.37,4.2994,4.3515,4.4036,4.4005,4.3961,4.3897,4.3915,4.3818,4.3804,4.3804,4.3667,4.3582,4.3582,4.3532,4.3497,4.3497,4.3548,4.3548,4.3479,4.3686,4.3719,4.3615,4.3719,4.3719,4.3582,4.3582,4.3444,4.3214,4.3196,4.3087,4.29,4.2804,4.2745,4.2609,4.2526,4.2405,4.2246,4.1753,4.1516,4.1303,3.991,3.9362,3.9294,3.9317,3.8887,3.8394,3.8383,3.8391,3.8391,3.8391,3.8391,3.8383,3.8389,3.7791,3.7081,3.7013,3.6739,3.6492,3.6492,3.58,3.4912,3.4013,3.3129,3.2434,3.2218,3.1603,3.1542,3.2875,3.2028,3.111,3.1455,3.0872,3.0216,2.9869,2.9792,2.9792,2.9792,2.9792,2.9792,2.9792,2.9792,2.9792,2.9792,2.9869,2.9856,2.9856,2.9869,2.9934,2.9934,2.9934,2.9856,2.9856,2.9856,2.9869,2.9792,2.9792,2.9792,2.9792,2.9521,2.9419,2.9419,2.9197,2.8973,2.8791,2.8791,2.8645,2.851,2.851,2.851,2.851,2.851,2.851,2.851,4.3692,4.403,4.4226,4.4027,4.4158,4.4221,4.4017,4.3961,4.3883,4.3818,4.3701,4.3634,4.3566,4.3566,4.3532,4.3532,4.3532,4.3497,4.3497,4.3548,4.3548,4.3479,4.3686,4.3719,4.3615,4.3615,4.3615,4.3582,4.3548,4.3463,4.334,4.3251,4.3142,4.3049,4.286,4.2745,4.2609,4.2526,4.2405,4.2287,4.2145,4.164,4.0926,4.0443,3.9885,3.9272,3.9287,3.8881,3.8398,3.8415,3.8391,3.8391,3.8391,3.8391,3.8383,3.8389,3.7913,3.7219,3.672,3.6569,3.6492,3.6492,3.6022,3.54,3.4832,3.423,3.3685,3.3213,3.3017,3.2733,3.2434,3.2087,3.1603,3.096,3.0533,3.0152,3.0011,2.9869,2.9792,2.9792,2.9792,2.9792,2.9792,2.9792,2.9792,2.9792,3.0279,3.062,3.062,3.1206,3.1516,3.1516,3.1516,3.1206,3.062,3.062,3.0343,2.9792,2.9792,2.9792,2.9792,2.9702,2.9611,2.9419,2.9341,2.9106,2.8791,2.8791,2.8645,2.851,2.851,2.851,2.851,2.851,2.851,2.851,4.4687,4.4836,4.4849,4.4624,4.4546,4.4402,4.4036,4.3929,4.3883,4.3804,4.3667,4.3582,4.3566,4.3532,4.3497,4.3497,4.3497,4.3497,4.3497,4.3532,4.3548,4.3497,4.3618,4.3618,4.3497,4.3497,4.3497,4.3497,4.3428,4.3358,4.3305,4.3196,4.3105,4.3012,4.288,4.2765,4.2609,4.2468,4.2346,4.2287,4.2145,4.1788,0.0,4.0832,4.0153,3.9451,3.9181,3.8788,3.839,3.8415,3.8391,3.8391,3.8391,3.8391,3.8424,3.8407,3.794,3.7326,3.687,3.6661,3.6492,3.6492,3.6289,3.5879,3.5255,3.4846,3.4581,3.4192,3.3782,3.3575,3.3671,3.2847,3.1809,3.0836,3.0457,3.0228,3.0228,3.0368,3.0444,3.0444,3.0722,3.0846,3.0797,3.0228,3.0075,3.0846,3.097,3.118,3.1462,3.1974,3.2132,3.2074,3.2074,3.1709,3.0895,3.0895,3.0545,2.9792,2.9792,2.9792,2.9792,2.9792,2.9702,2.9599,2.9599,2.9353,2.9028,2.9028,2.8882,2.8657,2.851,2.851,2.851,2.851,2.851,2.851,4.5693,4.5586,4.5342,4.4872,4.4676,4.443,4.3942,4.3865,4.3851,4.3786,4.3667,4.3582,4.3582,4.3513,4.3497,4.3497,4.3497,4.3497,4.3497,4.3497,4.3497,4.3444,4.3444,4.3428,4.3394,4.3376,4.3394,4.3394,4.3251,4.3214,4.3214,4.3123,4.3049,4.2882,4.2882,4.2786,4.257,4.2369,4.2246,4.2228,4.1977,4.1831,4.1683,4.1036,4.0331,3.9564,3.8977,3.8575,3.8407,3.8432,3.8391,3.8391,3.8391,3.8391,3.8391,3.8391,3.7918,3.731,3.7093,3.6767,3.6492,3.6492,3.6492,3.6289,3.5449,3.5305,3.5255,3.5073,3.4394,3.4177,3.5415,3.3808,3.2015,3.1185,3.0885,3.0722,3.0722,3.1071,3.1355,3.1355,3.1974,0.0,3.229,3.1009,3.0709,3.2177,3.1829,3.1756,3.2393,3.2607,3.255,3.2448,3.2448,3.2074,3.118,3.118,3.0771,2.9921,2.9921,2.9856,2.9792,2.9792,2.9792,2.9792,2.9792,2.9611,2.9419,2.9341,2.9106,2.8724,2.8578,2.851,2.851,2.851,2.851,2.851,4.5622,4.5243,4.4872,4.4726,4.4336,4.3955,4.3682,4.3649,4.3667,4.3634,4.3566,4.3532,4.3532,4.3532,4.3497,4.3497,4.3497,4.3463,4.3411,4.3429,4.3376,4.3251,4.3232,4.3251,4.3251,4.3251,4.3305,4.3394,4.3251,4.3214,4.3214,4.3123,4.3049,4.2882,4.2882,4.2786,4.257,4.2145,4.1977,4.1977,4.1719,4.1391,4.099,4.0737,4.0154,3.9448,3.8743,3.8411,3.8375,3.8391,3.8391,3.8391,3.8391,3.8391,3.8391,3.8391,3.7918,3.7279,3.6754,3.6566,3.6492,3.6492,3.6492,3.6429,3.6289,3.6274,3.6211,3.6006,3.5864,3.5593,3.5154,3.4056,3.3157,3.2804,3.2563,3.2464,3.2464,3.2393,3.2321,3.2321,3.2464,3.2834,3.3422,3.2478,3.1974,3.2349,3.2861,3.3143,3.3283,3.3988,3.4303,3.3977,3.4182,3.3742,3.2791,3.2791,3.206,3.0683,3.0683,3.0419,2.9792,2.9792,2.9792,2.9792,2.9792,2.9611,2.9419,2.9197,2.8895,2.859,2.851,2.851,2.851,2.851,2.851,2.851,4.5495,4.518,4.4825,4.4624,4.4202,4.3809,4.3495,4.3391,4.3444,4.3582,4.3582,4.3548,4.3548,4.3497,4.3446,4.3446,4.3393,4.3322,4.3305,4.3305,4.3251,4.3196,4.3214,4.3178,4.316,4.316,4.316,4.3251,4.3105,4.3105,4.316,4.3031,4.2938,4.29,4.2786,4.2591,4.231,4.2019,4.1849,4.1719,4.1498,4.1255,4.096,4.058,4.007,3.9484,3.8995,3.8645,3.8391,3.8391,3.8391,3.8391,3.8391,3.8391,3.8391,3.8391,3.8155,3.77,3.6782,3.6611,3.6693,3.6554,3.6492,3.6492,3.6492,3.6492,3.6492,3.6352,3.6274,3.5943,3.5073,3.4461,3.3905,3.3422,3.3213,3.3059,3.3059,3.3269,3.3408,3.3408,3.3699,3.4056,3.4356,3.4056,3.3851,3.3865,3.3768,3.3919,3.4356,3.4787,3.4935,3.4668,3.4735,3.4317,3.3367,3.3367,3.2563,3.0895,3.0895,3.0469,2.9792,2.9792,2.9792,2.9792,2.9792,2.9702,2.9611,2.9209,2.8986,2.8828,2.859,2.851,2.851,2.851,2.851,2.851,4.5223,4.4969,4.4707,4.4373,4.4016,4.3675,4.3338,4.3214,4.3286,4.3479,4.3513,4.3513,4.3513,4.3428,4.3359,4.3359,4.3251,4.3196,4.3178,4.3178,4.3178,4.3123,4.3123,4.3105,4.3049,4.3049,4.3049,4.3104,4.2956,4.2956,4.3104,4.2938,4.2882,4.2862,4.2649,4.2409,4.2103,4.1934,4.1719,4.1498,4.1226,4.1071,4.0977,4.0485,3.9969,3.9418,3.9251,3.8832,3.8391,3.8391,3.8391,3.8391,3.8391,3.8391,3.8391,3.8391,3.8423,3.8152,3.6936,3.6839,3.6938,3.6554,3.6492,3.6492,3.6492,3.6492,3.6492,3.6492,3.6352,3.6006,3.5285,3.5073,3.4728,3.4041,3.3837,3.3699,3.3713,3.407,3.4438,3.4438,3.4935,3.5213,3.5001,3.5148,3.5294,3.5294,3.4624,3.4543,3.5148,3.5228,3.5148,3.4935,3.4935,3.4572,3.3728,3.3742,3.2932,3.1402,3.1254,3.0771,2.9998,2.9856,2.9792,2.9792,2.9792,2.9792,2.9702,2.9287,2.9131,2.9052,2.8736,2.8578,2.8578,2.851,2.851,2.851,4.4575,4.4299,4.4028,4.3788,4.3539,4.3338,4.3232,4.3196,4.3214,4.3232,4.3251,4.3251,4.3251,4.3251,4.3214,4.3214,4.3214,4.3178,4.3104,4.3104,4.3049,4.292,4.292,4.2938,4.2938,4.2938,4.2994,4.3104,4.2956,4.2956,4.3104,4.2938,4.2862,4.2783,4.2606,4.2364,4.2061,4.1762,4.1498,4.1209,4.1012,4.0728,4.0387,4.0305,3.9764,3.9077,3.904,3.8766,3.8391,3.8391,3.8391,3.8391,3.8391,3.8391,3.8391,3.8391,3.8423,3.8184,3.7275,3.7024,3.6938,3.6554,3.6492,3.6492,3.6492,3.6492,3.6492,3.6492,3.6492,3.6414,3.6148,3.607,3.5943,3.5544,3.5479,3.5429,3.5279,3.5359,3.5359,3.5359,3.5439,3.5439,3.5439,3.5439,3.5439,3.5439,3.5213,3.5148,3.5213,3.5359,3.5294,3.4935,3.5082,3.4949,3.4616,3.4616,3.4031,3.3003,3.229,3.1563,3.0758,3.0062,2.9792,2.9792,2.9792,2.9689,2.9419,2.9419,2.9275,2.9052,2.8882,2.8803,2.8724,2.8578,2.851,2.851,4.4299,4.3998,4.3786,4.3619,4.3355,4.3142,4.305,4.3013,4.3013,4.3013,4.3123,4.3214,4.3214,4.3142,4.3123,4.3123,4.3068,4.3013,4.2994,4.2994,4.2956,4.2882,4.2882,4.2882,4.2882,4.2882,4.2918,4.2917,4.2918,4.2918,4.2917,4.286,4.2745,4.2606,4.2346,4.2079,4.1762,4.1498,4.1226,4.0995,4.0918,4.0631,4.0288,4.0003,3.9523,3.8969,3.8711,3.856,3.8391,3.8391,3.8391,3.8391,3.8391,3.8391,3.8391,3.8391,3.8237,3.7876,3.7259,3.7055,3.6938,3.6554,3.6492,3.6492,3.6492,3.6492,3.6492,3.6492,3.6492,3.6492,3.6414,3.6274,3.6133,3.6006,3.5816,3.5688,3.5653,3.5554,3.5504,3.5504,3.5504,3.5504,3.5504,3.5504,3.5504,3.5504,3.5439,3.5359,3.5359,3.5439,3.5439,3.5294,3.5359,3.5228,3.503,3.4883,3.4303,3.3367,3.2932,3.2132,3.0895,3.062,3.0203,2.9792,2.9792,2.9702,2.9611,2.9509,2.9341,2.9275,2.904,2.8882,2.8803,2.8724,2.8578,2.851,4.4016,4.374,4.3458,4.3353,4.3178,4.3012,4.292,4.2882,4.2882,4.2882,4.3013,4.3123,4.3123,4.3068,4.3049,4.3049,4.2938,4.2882,4.2882,4.2882,4.2882,4.2882,4.2882,4.29,4.2862,4.2862,4.2842,4.2745,4.2804,4.2804,4.2745,4.2724,4.2606,4.2364,4.2145,4.1849,4.1453,4.13,4.1088,4.0888,4.0888,4.0631,4.0238,3.9782,3.9365,3.8969,3.856,3.8391,3.8391,3.8391,3.8391,3.8391,3.8391,3.8391,3.8391,3.8262,3.8026,3.769,3.7188,3.7042,3.6938,3.6554,3.6492,3.6492,3.6492,3.6492,3.6492,3.6492,3.6492,3.6492,3.6492,3.6352,3.6274,3.6211,3.6006,3.5816,3.5816,3.5668,3.5554,3.5554,3.5489,3.5504,3.5504,3.5504,3.5504,3.5504,3.5504,3.5504,3.5504,3.5504,3.5504,3.5504,3.5504,3.5424,3.5213,3.5082,3.4587,3.3879,3.3437,3.2706,3.1549,3.1106,3.0482,2.9792,2.9792,2.9792,2.9792,2.9599,2.9509,2.9419,2.9275,2.904,2.8791,2.8791,2.8657,2.851,4.3612,4.3358,4.3049,4.2938,4.2882,4.2882,4.2882,4.2882,4.2882,4.2882,4.2882,4.2882,4.2882,4.2882,4.2882,4.2882,4.2882,4.2882,4.2882,4.2882,4.2882,4.2882,4.2882,4.2862,4.2783,4.2783,4.2745,4.2609,4.2609,4.2609,4.2609,4.2526,4.2364,4.2103,4.1959,4.1657,4.1192,4.1209,4.1088,4.0888,4.0888,4.0631,4.0238,3.9782,3.9365,3.8969,3.856,3.8391,3.8391,3.8391,3.8391,3.8391,3.8391,3.8391,3.8319,3.7895,3.7822,3.7648,3.7165,3.7015,3.6938,3.6554,3.6492,3.6492,3.6492,3.6492,3.6492,3.6492,3.6492,3.6492,3.6492,3.6492,3.6414,3.6211,3.6196,3.6148,3.6037,3.5831,3.5688,3.5688,3.5604,3.5504,3.5504,3.5504,3.5504,3.5504,3.5504,3.5504,3.5504,3.5504,3.5504,3.5504,3.5504,3.5424,3.5213,3.5213,3.5016,3.4698,3.3879,3.3367,3.3143,3.1623,3.0482,2.9792,2.9792,2.9792,2.9792,2.9792,2.9611,2.9419,2.9419,2.9184,2.8791,2.8791,2.8657,2.851,4.316,4.305,4.2938,4.29,4.2882,4.2882,4.2882,4.2882,4.2882,4.2882,4.2882,4.2882,4.2882,4.2882,4.2882,4.2882,4.2882,4.2862,4.2842,4.2842,4.2804,4.2709,4.2727,4.2688,4.2649,4.2649,4.2627,4.2526,4.2588,4.2588,4.2526,4.2305,4.2103,4.1977,4.1552,4.1346,4.1209,4.1041,4.0965,4.0888,4.0888,4.0631,4.0238,3.9782,3.9365,3.8969,3.856,3.8391,3.8391,3.8391,3.8262,3.8075,3.8075,3.8059,3.7911,3.7621,3.7417,3.721,3.706,3.6816,3.6616,3.6554,3.6492,3.6492,3.6492,3.6492,3.6492,3.6492,3.6492,3.6492,3.6492,3.6492,3.6492,3.6414,3.6274,3.6211,3.6148,3.5879,3.5688,3.5688,3.5604,3.5504,3.5504,3.5504,3.5504,3.5504,3.5504,3.5504,3.5504,3.5504,3.5504,3.5504,3.5504,3.5439,3.5439,3.5294,3.5082,3.4802,3.4467,3.3673,3.2362,3.0859,2.9998,2.9792,2.9792,2.9792,2.9792,2.9792,2.9792,2.9689,2.9509,2.9275,2.8961,2.8882,2.8657,2.851,4.3105,4.2995,4.2882,4.2882,4.2882,4.2882,4.2882,4.2882,4.2882,4.2882,4.2882,4.29,4.288,4.2862,4.2862,4.2862,4.2862,4.2842,4.2745,4.2745,4.2688,4.2609,4.2609,4.257,4.2548,4.2548,4.2526,4.2445,4.2468,4.2468,4.2405,4.2163,4.1934,4.1762,4.1391,4.1163,4.1088,4.0965,4.0888,4.0888,4.0888,4.0745,4.0436,3.9833,3.9454,3.9169,3.86,3.8391,3.8391,3.8391,3.8262,3.8017,3.777,3.7679,3.7621,3.7314,3.7105,3.6938,3.6877,3.6693,3.6492,3.6492,3.6492,3.6492,3.6492,3.6492,3.6492,3.6492,3.6492,3.6492,3.6492,3.6492,3.6492,3.6492,3.6414,3.6274,3.6274,3.6243,3.6165,3.5943,3.5958,3.591,3.5604,3.5604,3.5539,3.5504,3.5504,3.5504,3.5504,3.5504,3.5504,3.5504,3.5504,3.5504,3.5504,3.5359,3.5148,3.4868,3.4385,3.3227,3.1636,3.0633,3.0062,2.9792,2.9792,2.9792,2.9792,2.9792,2.9702,2.9611,2.9599,2.9287,2.8961,2.8961,2.8736,2.851,4.3301,4.3105,4.2882,4.2882,4.29,4.2882,4.2882,4.29,4.29,4.29,4.29,4.2862,4.2783,4.2783,4.2783,4.2783,4.2783,4.2745,4.2609,4.2609,4.2609,4.257,4.257,4.2548,4.2503,4.2503,4.2445,4.2287,4.2287,4.2287,4.2287,4.2019,4.1762,4.156,4.1318,4.1088,4.0888,4.0888,4.0888,4.0888,4.0888,4.0888,4.0823,3.9969,3.961,3.9506,3.8694,3.8391,3.8391,3.8391,3.8335,3.8221,3.7594,3.7358,3.7314,3.7044,3.6954,3.6877,3.6554,3.6492,3.6492,3.6492,3.6492,3.6492,3.6492,3.6492,3.6492,3.6492,3.6492,3.6492,3.6492,3.6492,3.6492,3.6492,3.6554,3.6554,3.6554,3.686,3.689,3.6321,3.66,3.6538,3.5737,3.5688,3.5638,3.5504,3.5504,3.5504,3.5504,3.5504,3.5504,3.5504,3.5504,3.5504,3.5504,3.5504,3.5294,3.4868,3.3713,3.2349,3.097,3.0895,3.0482,2.9792,2.9792,2.9792,2.9792,2.9792,2.9689,2.9419,2.9702,2.9378,2.887,2.9052,2.8816,2.851,4.3014,4.2957,4.2882,4.2882,4.288,4.2822,4.2822,4.2727,4.267,4.267,4.267,4.267,4.2649,4.2649,4.2627,4.2584,4.2627,4.2627,4.2526,4.2526,4.2486,4.2369,4.2369,4.2369,4.2346,4.2346,4.2328,4.2287,4.2287,4.2205,4.1977,4.1762,4.1542,4.13,4.1088,4.0918,4.0888,4.0888,4.0888,4.0888,4.0888,4.0888,4.0823,4.0337,3.9885,3.9558,3.9023,3.8655,3.8335,3.8075,3.7844,3.7535,3.7225,3.6923,3.6723,3.6616,3.6616,3.6616,3.6492,3.6492,3.6492,3.6492,3.6492,3.6492,3.6492,3.6492,3.6492,3.6492,3.6492,3.6492,3.6492,3.6492,3.6492,3.6492,3.6892,3.7178,3.7178,3.7147,3.7071,3.689,3.6352,3.5928,3.5688,3.5604,3.5554,3.5504,3.5504,3.5504,3.5504,3.5504,3.5504,3.5504,3.5504,3.5504,3.5504,3.5504,3.5294,3.4868,3.3143,3.2146,3.1783,3.057,3.0011,2.9792,2.9792,2.9792,2.9792,2.9792,2.9792,2.9689,2.9521,2.9431,2.9263,2.9131,2.8973,2.8724,4.2747,4.2747,4.2747,4.2747,4.2727,4.2706,4.2706,4.2649,4.2609,4.2609,4.2609,4.257,4.2548,4.2548,4.2508,4.2405,4.2526,4.2508,4.2387,4.2405,4.2387,4.2287,4.2287,4.2287,4.2287,4.2287,4.2246,4.2103,4.2103,4.1977,4.1762,4.1542,4.1363,4.1209,4.1012,4.0888,4.0888,4.0888,4.0888,4.0888,4.0888,4.0888,4.0823,4.0204,3.9833,3.9506,3.8969,3.8488,3.8132,3.7943,3.7711,3.7358,3.7105,3.6877,3.6693,3.6554,3.6492,3.6492,3.6492,3.6492,3.6492,3.6492,3.6492,3.6492,3.6492,3.6492,3.6492,3.6492,3.6492,3.6492,3.6492,3.6723,3.6892,3.6892,3.7178,3.7417,3.7417,3.7342,3.7147,3.686,3.6538,3.6228,3.5894,3.5718,3.5554,3.5504,3.5504,3.5504,3.5504,3.5504,3.5504,3.5504,3.5504,3.5504,3.5504,3.5439,3.5001,3.4356,3.2918,3.1988,3.1489,3.0368,2.9792,2.9792,2.9792,2.9792,2.9792,2.9792,2.9792,2.9792,2.9611,2.9509,2.9419,2.9275,2.9118,2.8882,4.2609,4.2609,4.2609,4.2609,4.2609,4.257,4.257,4.257,4.257,4.257,4.257,4.253,4.2503,4.2463,4.2445,4.2287,4.2387,4.2405,4.2287,4.2287,4.2287,4.2287,4.2287,4.2287,4.2287,4.2246,4.2103,4.1831,4.1831,4.1762,4.1542,4.13,4.1163,4.1163,4.0965,4.0888,4.0888,4.0888,4.0888,4.0888,4.0888,4.0871,4.0728,3.9986,3.961,3.9332,3.8639,3.8132,3.7828,3.777,3.761,3.7314,3.6984,3.6938,3.6877,3.6554,3.6492,3.6492,3.6492,3.6492,3.6492,3.6492,3.6492,3.6492,3.6492,3.6492,3.6492,3.6492,3.6492,3.6554,3.6616,3.6952,3.7298,3.7519,3.7476,3.7401,3.7519,3.7476,3.7238,3.6723,3.6799,3.6662,3.6037,3.5767,3.5653,3.5504,3.5504,3.5504,3.5504,3.5504,3.5504,3.5504,3.5504,3.5504,3.5504,3.5294,3.4787,3.3934,3.2975,3.1974,3.1044,3.0279,2.9934,2.9792,2.9792,2.9792,2.9792,2.9792,2.9792,2.9792,2.9792,2.9689,2.9431,2.9431,2.9353,2.9131,4.2609,4.2609,4.2609,4.2609,4.2548,4.2503,4.2503,4.2427,4.2328,4.2328,4.2328,4.2328,4.2328,4.2328,4.2328,4.2287,4.2328,4.2328,4.2287,4.2287,4.2287,4.2287,4.2287,4.2287,4.2287,4.2061,4.1849,4.1648,4.1648,4.1498,4.1255,4.1209,4.1117,4.0965,4.0918,4.0888,4.0888,4.0888,4.0888,4.0888,4.0888,4.068,4.0387,4.0238,3.9558,3.8668,3.8518,3.8026,3.7417,3.7225,3.7121,3.6999,3.6677,3.6554,3.6554,3.6492,3.6492,3.6492,3.6492,3.6492,3.6492,3.6492,3.6492,3.6492,3.6492,3.6492,3.6492,3.6492,3.6492,3.6677,3.7194,3.6892,3.6937,3.801,3.7738,3.7578,3.8067,3.7738,3.7358,3.7298,3.6631,3.6148,3.6037,3.5748,3.5504,3.5504,3.5504,3.5504,3.5504,3.5504,3.5504,3.5504,3.5504,3.5504,3.5504,3.5294,3.5001,3.4721,3.3782,3.2847,3.1856,3.1132,3.0419,2.9792,2.9792,2.9792,2.9792,2.9792,2.9792,2.9792,2.9792,2.9792,2.9702,2.9702,2.9599,2.9341,4.245,4.245,4.245,4.245,4.2427,4.2387,4.2387,4.2346,4.2287,4.2287,4.2287,4.2287,4.2287,4.2287,4.2287,4.2287,4.2145,4.2103,4.2103,4.2103,4.2103,4.2103,4.1977,4.1909,4.1909,4.1805,4.1631,4.1408,4.1408,4.1272,4.1041,4.1041,4.1012,4.0888,4.0888,4.0888,4.0888,4.0888,4.0888,4.0871,4.068,4.037,3.9986,3.9506,3.892,3.8254,3.8026,3.7594,3.7165,3.706,3.6877,3.6693,3.6554,3.6492,3.6492,3.6492,3.6492,3.6492,3.6492,3.6492,3.6492,3.6492,3.6492,3.6492,3.6492,3.6492,3.6492,3.6492,3.6492,3.6616,3.6831,3.6952,3.7178,3.7738,3.7578,3.7637,3.8238,3.7504,3.7013,3.7358,3.6569,3.5973,3.5973,3.5683,3.5504,3.5504,3.5504,3.5504,3.5504,3.5504,3.5504,3.5504,3.5504,3.5504,3.5504,3.5439,3.5213,3.4854,3.363,3.2706,3.2074,3.0859,3.0139,2.9792,2.9792,2.9792,2.9792,2.9792,2.9792,2.9792,2.9792,2.9792,2.9792,2.9792,2.9889,3.0049,4.2287,4.2287,4.2287,4.2287,4.2287,4.2287,4.2287,4.2287,4.2287,4.2287,4.2287,4.2287,4.2287,4.2287,4.2287,4.2287,4.2061,4.1874,4.1874,4.1788,4.1744,4.1849,4.1675,4.156,4.1498,4.1498,4.1363,4.1117,4.1117,4.1041,4.0888,4.0888,4.0888,4.0888,4.0888,4.0888,4.0888,4.0888,4.0888,4.0871,4.0534,4.0154,3.968,3.8941,3.8367,3.787,3.7476,3.715,3.6877,3.6877,3.6677,3.6492,3.6492,3.6492,3.6492,3.6492,3.6492,3.6492,3.6492,3.6492,3.6492,3.6492,3.6492,3.6492,3.6492,3.6492,3.6492,3.6492,3.6492,3.6554,3.6662,3.7074,3.746,3.7738,3.7578,3.7637,3.8238,3.7385,3.6831,3.7118,3.6631,3.6211,3.6037,3.5733,3.5554,3.5504,3.5504,3.5504,3.5504,3.5504,3.5504,3.5504,3.5504,3.5504,3.5504,3.5504,3.5294,3.4868,3.3699,3.2763,3.2074,3.0872,3.0152,2.9792,2.9792,2.9792,2.9792,2.9792,2.9792,2.9792,2.9792,2.988,2.998,2.998,3.0331,3.0796,4.2287,4.2287,4.2287,4.2287,4.2287,4.2287,4.2287,4.2287,4.2287,4.2287,4.2287,4.2287,4.2287,4.2287,4.2287,4.2287,4.2061,4.1874,4.1874,4.1463,4.1346,4.1604,4.1604,4.1498,4.1255,4.1255,4.1134,4.0918,4.0918,4.0918,4.0888,4.0888,4.0888,4.0888,4.0888,4.0888,4.0888,4.0888,4.0888,4.0888,4.0888,4.0353,3.9594,3.9242,3.8423,3.7417,3.7105,3.6816,3.6554,3.6554,3.6492,3.6492,3.6492,3.6492,3.6492,3.6492,3.6492,3.6492,3.6492,3.6492,3.6492,3.6492,3.6492,3.6492,3.6492,3.6492,3.6492,3.6492,3.6492,3.6662,3.7238,3.7358,3.7754,3.8865,3.8141,3.7637,3.8238,3.7738,3.7118,3.6616,3.686,3.6723,3.61,3.5831,3.5638,3.5504,3.5504,3.5504,3.5504,3.5504,3.5504,3.5504,3.5504,3.5504,3.5504,3.5504,3.5294,3.4935,3.4787,3.3796,3.2074,3.2015,3.1158,2.9792,2.9792,2.9792,2.9792,2.9792,2.9792,2.9792,2.9792,3.0105,3.0557,3.0557,3.0884,3.1336,4.2287,4.2287,4.2287,4.2287,4.2287,4.2287,4.2287,4.2287,4.2465,4.2983,4.3036,4.3215,4.3679,4.3622,4.3553,4.3553,4.3163,4.287,4.287,4.2606,4.2046,4.1186,4.1152,4.1105,4.1012,4.0995,4.0965,4.0888,4.0888,4.0888,4.0888,4.0888,4.0888,4.0888,4.0888,4.0888,4.0888,4.0888,4.0745,4.0485,4.0187,3.9542,3.8645,3.8254,3.7578,3.6846,3.6739,3.6616,3.6492,3.6492,3.6492,3.6492,3.6492,3.6492,3.6492,3.6492,3.6492,3.6492,3.6492,3.6492,3.6492,3.6492,3.6492,3.6492,3.6492,3.6492,3.6492,3.6492,3.6785,3.7013,3.6892,3.7118,3.7401,3.7504,3.7118,3.7058,3.7679,3.7238,3.6892,3.7074,3.6693,3.6321,3.6037,3.5718,3.5539,3.5504,3.5504,3.5504,3.5504,3.5504,3.5504,3.5504,3.5504,3.5504,3.5504,3.5504,3.5294,3.4868,3.3919,3.2989,3.2074,3.1084,3.0368,2.9792,2.9792,2.9792,2.9792,2.9792,2.9993,3.0306,3.0306,3.062,3.1097,3.1097,3.1436,3.1901,4.2287,4.2287,4.2287,4.2287,4.2287,4.2376,4.2626,4.268,4.2923,4.364,4.3746,4.3898,4.4352,4.4243,4.417,4.417,4.3763,4.3506,4.3506,4.3296,4.2748,4.1647,4.1371,4.1233,4.1233,4.0991,4.0888,4.0888,4.0888,4.0888,4.0888,4.0888,4.0888,4.0888,4.0888,4.0888,4.0888,4.0888,4.0697,4.0238,3.9817,3.9119,3.8141,3.7695,3.7118,3.6616,3.6554,3.6492,3.6492,3.6492,3.6492,3.6492,3.6492,3.6492,3.6492,3.6492,3.6492,3.6492,3.6492,3.6492,3.6492,3.6492,3.6492,3.6492,3.6492,3.6492,3.6492,3.6492,3.6831,3.7013,3.6554,3.7013,3.7238,3.6831,3.6785,3.6952,3.7358,3.6997,3.6754,3.6997,3.6569,3.6196,3.5958,3.5733,3.5554,3.5504,3.5504,3.5504,3.5504,3.5504,3.5504,3.5504,3.5504,3.5504,3.5504,3.5504,3.5294,3.4854,3.3616,3.2706,3.2074,3.0709,2.9998,2.9792,2.9792,2.9892,3.0043,3.0043,3.0369,3.0859,3.0859,3.1185,3.165,3.165,3.2001,3.2478,4.2287,4.2287,4.2287,4.2287,4.2287,4.2573,4.3393,4.3518,4.3718,4.4236,4.4324,4.4188,4.3957,4.391,4.3892,4.3892,4.3685,4.3523,4.3523,4.3314,4.3249,4.3249,4.2423,4.1992,4.1992,4.1267,4.0905,4.0905,4.0905,4.0905,4.0905,4.0888,4.0888,4.0888,4.0888,4.0888,4.0888,4.0888,4.0697,4.0255,3.9919,3.9262,3.8463,3.7838,3.7373,3.6969,3.6631,3.6507,3.6507,3.6492,3.6492,3.6492,3.6492,3.6492,3.6492,3.6492,3.6492,3.6492,3.6492,3.6492,3.6492,3.6492,3.6492,3.6492,3.6492,3.6492,3.6492,3.6492,3.6492,3.6492,3.6492,3.7013,3.7417,3.7417,3.7417,3.7417,3.7417,3.7207,3.689,3.6258,3.6616,3.66,3.58,3.5688,3.5638,3.5504,3.5504,3.5504,3.5504,3.5504,3.5504,3.5504,3.5504,3.5504,3.5504,3.5504,3.5294,3.4868,3.4153,3.3213,3.2074,3.1267,3.0482,2.9804,2.9804,3.0118,3.062,3.062,3.0922,3.1399,3.1399,3.1738,3.2227,3.2227,3.2591,3.3081,4.2287,4.2287,4.2287,4.2287,4.2625,4.2942,4.319,4.3527,4.4036,4.4701,4.4789,4.4952,4.5449,4.5373,4.5207,4.5207,4.499,4.4837,4.4837,4.4803,4.4751,4.4751,4.3509,4.2819,4.2819,4.2645,4.2541,4.2541,4.2541,4.2541,4.2475,4.1923,4.1647,4.163,4.1112,4.084,4.0745,4.0745,4.0793,4.0745,4.0167,3.9788,3.9489,3.8855,3.8387,3.7975,3.7432,3.72,3.7123,3.6661,3.6492,3.6492,3.6492,3.6492,3.6492,3.6492,3.6492,3.6492,3.6492,3.6492,3.6492,3.6492,3.6492,3.6492,3.6492,3.6492,3.6492,3.6492,3.6831,3.7013,3.6554,3.7013,3.7238,3.6831,3.6785,3.6708,3.6569,3.6492,3.6368,3.6196,3.6117,3.5991,3.5894,3.5733,3.5554,3.5504,3.5504,3.5504,3.5504,3.5504,3.5504,3.5504,3.5504,3.5504,3.5504,3.5504,3.5294,3.4868,3.3547,3.2635,3.2074,3.0709,3.0213,3.0369,3.0369,3.067,3.116,3.116,3.1474,3.1964,3.1964,3.2315,3.2817,3.2817,3.293,3.3081,4.2145,4.2079,4.2126,4.2427,4.2714,4.3155,4.3754,4.4109,4.4576,4.5233,4.5338,4.5463,4.5852,4.5752,4.5649,4.5649,4.5511,4.5303,4.4992,4.4958,4.4958,4.4958,4.4096,4.3663,4.3663,4.337,4.3214,4.3214,4.3214,4.3214,4.3214,4.2615,4.2391,4.2307,4.181,4.14,4.1045,4.1045,4.0882,4.0488,3.996,3.9544,3.9134,3.8542,3.8074,3.7661,3.7246,3.7092,3.703,3.663,3.6492,3.6492,3.6492,3.6492,3.6538,3.6815,3.6892,3.6892,3.6892,3.6892,3.683,3.6553,3.6492,3.6492,3.6492,3.6492,3.6492,3.6492,3.6785,3.6952,3.6554,3.6785,3.6892,3.6476,3.6352,3.6352,3.6148,3.6085,3.6006,3.6006,3.5767,3.5653,3.5797,3.5619,3.5504,3.5504,3.5504,3.5504,3.5504,3.5504,3.5504,3.5504,3.5504,3.5624,3.5893,3.5893,3.5612,3.5001,3.3579,3.275,3.2513,3.1061,3.0608,3.0922,3.0922,3.1223,3.1725,3.1725,3.2051,3.2554,3.2554,3.2767,3.3081,3.3081,3.3081,3.3081,4.198,4.1824,4.1938,4.2665,4.284,4.3366,4.4751,4.4984,4.5184,4.5699,4.5735,4.5649,4.5423,4.5423,4.5423,4.5423,4.5423,4.513,4.4423,4.4371,4.4371,4.4371,4.4371,4.4371,4.4371,4.3716,4.3371,4.3371,4.3371,4.3371,4.3371,4.3116,4.3014,4.2963,4.2792,4.2347,4.1665,4.1665,4.1104,4.0187,3.9807,3.9177,3.8354,3.7959,3.7433,3.6893,3.6784,3.6722,3.6661,3.6538,3.6492,3.6492,3.6492,3.6492,3.6615,3.723,3.7446,3.7507,3.7507,3.7538,3.7446,3.683,3.6676,3.6645,3.6522,3.6492,3.6492,3.6492,3.6492,3.6492,3.6492,3.6492,3.6414,3.6211,3.6196,3.6148,3.6037,3.5831,3.5688,3.5688,3.5604,3.5504,3.5504,3.5504,3.5504,3.5504,3.5504,3.5504,3.5504,3.5504,3.5534,3.5594,3.5594,3.5908,3.6567,3.6567,3.6201,3.534,3.4058,3.3381,3.3213,3.2003,3.1411,3.1461,3.1461,3.1775,3.229,3.229,3.2604,3.3081,3.3081,3.3081,3.3081,3.3081,3.3081,3.3081,4.2404,4.2482,4.27,4.3489,4.3943,4.4303,4.4634,4.5058,4.5373,4.5494,4.5459,4.5459,4.5423,4.5423,4.5423,4.5423,4.5423,4.5354,4.5182,4.5182,4.5182,4.5182,4.5182,4.5112,4.4989,4.4957,4.4871,4.4749,4.4749,4.4696,4.459,4.3955,4.3681,4.3647,4.2979,4.2517,4.2277,4.2277,4.2426,4.2584,4.1982,4.1956,4.2157,4.1055,4.0511,4.0253,3.923,3.8523,3.7908,3.6846,3.6492,3.6492,3.6492,3.6492,3.6522,3.6661,3.7092,3.7507,3.7507,3.7892,3.8262,3.8108,3.8077,3.78,3.6738,3.6492,3.6492,3.6492,3.6492,3.6429,3.6274,3.6274,3.6274,3.6211,3.6196,3.6148,3.6037,3.5973,3.5894,3.5688,3.5604,3.5554,3.5638,3.5554,3.5504,3.5504,3.5504,3.5504,3.5504,3.5504,3.5744,3.6252,3.6267,3.6567,3.721,3.721,3.7014,3.6482,3.4919,3.4012,3.3702,3.2117,3.1625,3.2039,3.2039,3.2353,3.288,3.288,3.2968,3.3081,3.3081,3.3081,3.3081,3.3081,3.3081,3.3081,4.3016,4.3009,4.3175,4.3959,4.4294,4.4576,4.4939,4.52,4.5423,4.5423,4.5423,4.5423,4.5423,4.5423,4.5423,4.5423,4.5423,4.5268,4.4906,4.4889,4.4889,4.4889,4.4819,4.4886,4.5177,4.5194,4.514,4.5069,4.5069,4.5086,4.4978,4.4548,4.4306,4.4289,4.3827,4.3345,4.2952,4.2952,4.2719,4.2351,4.2036,4.173,4.1455,4.0785,4.0352,4.001,3.9287,3.8816,3.84,3.7692,3.7446,3.74,3.7076,3.6969,3.6969,3.6969,3.723,3.7569,3.7892,3.8246,3.8508,3.8508,3.8508,3.8323,3.7615,3.7446,3.7446,3.7446,3.7446,3.7382,3.7159,3.7223,3.7238,3.706,3.706,3.6995,3.6799,3.6476,3.62,3.6069,3.5749,3.5554,3.5589,3.5554,3.5504,3.5504,3.5504,3.5639,3.5953,3.5968,3.6267,3.6911,3.6926,3.7225,3.7868,3.7883,3.7838,3.7794,3.6151,3.5024,3.4376,3.3339,3.2759,3.2629,3.2629,3.2805,3.3081,3.3081,3.3081,3.3081,3.3081,3.3081,3.3081,3.3081,3.3081,3.3081,4.3583,4.3487,4.3646,4.4337,4.4475,4.4682,4.5337,4.5423,4.5423,4.5423,4.5423,4.5423,4.5423,4.5423,4.5423,4.5423,4.5423,4.5147,4.4527,4.4475,4.4475,4.4458,4.4371,4.4559,4.5123,4.5032,4.4995,4.4995,4.4995,4.4923,4.494,4.4831,4.4793,4.4776,4.4626,4.4215,4.3623,4.3623,4.2942,4.1837,4.1723,4.1069,4.007,3.9866,3.9437,3.8978,3.8846,3.8785,3.8662,3.8554,3.8508,3.8415,3.7861,3.7677,3.7677,3.7677,3.7677,3.78,3.8354,3.86,3.8677,3.8677,3.8769,3.8846,3.8846,3.8677,3.8508,3.8508,3.8508,3.8442,3.8213,3.8361,3.8391,3.8074,3.8007,3.794,3.7707,3.7121,3.6708,3.6641,3.6163,3.5833,3.5833,3.5833,3.5833,3.5833,3.5833,3.6073,3.6611,3.6641,3.6926,3.7554,3.7584,3.7898,3.8556,3.8556,3.8627,3.8767,3.7533,3.6363,3.5301,3.4643,3.3979,3.3326,3.3154,3.3081,3.3081,3.3081,3.3081,3.3081,3.3081,3.3081,3.3081,3.3081,3.3081,3.3081,4.4043,4.4181,4.4371,4.513,4.5268,4.5303,4.5406,4.5423,4.5423,4.5423,4.5423,4.5423,4.5423,4.5423,4.5423,4.5423,4.5423,4.5389,4.5285,4.5268,4.5216,4.5093,4.5093,4.4984,4.4886,4.4831,4.4831,4.4831,4.4831,4.4776,4.4626,4.4626,4.4643,4.4643,4.4626,4.4519,4.4418,4.4418,4.4311,4.408,4.3481,4.3096,4.2797,4.1678,4.1191,4.0993,4.0436,3.9878,3.9293,3.8708,3.8508,3.8492,3.84,3.8369,3.8369,3.8369,3.8369,3.8385,3.8492,3.8939,3.9385,3.9385,3.9816,4.0247,4.0247,3.9354,3.8508,3.8508,3.8508,3.8442,3.8325,3.8325,3.8274,3.8007,3.8007,3.794,3.7707,3.7632,3.7436,3.7285,3.721,3.715,3.715,3.715,3.715,3.715,3.715,3.7195,3.7285,3.7285,3.7584,3.8227,3.8257,3.8586,3.9275,3.9275,3.9088,3.8782,3.862,3.7803,3.6576,3.5074,3.4314,3.4147,3.3411,3.3081,3.3081,3.3081,3.3081,3.3081,3.3081,3.3081,3.3081,3.3081,3.3081,3.3081,4.4854,4.4906,4.5027,4.5354,4.5423,4.5423,4.5423,4.5423,4.5423,4.5423,4.5423,4.5423,4.5423,4.5423,4.5423,4.5423,4.53,4.53,4.53,4.5194,4.514,4.5086,4.5032,4.494,4.4776,4.4737,4.4682,4.4682,4.4682,4.4682,4.4587,4.4587,4.4587,4.4587,4.4587,4.4587,4.4587,4.4587,4.4367,4.3972,4.3647,4.3075,4.2332,4.1706,4.1276,4.0904,4.0593,4.0339,4.0031,3.9739,3.9631,3.957,3.92,3.9077,3.9,3.8616,3.8508,3.86,3.897,3.9016,3.9046,3.9431,3.9739,3.9955,3.9955,3.9801,3.9631,3.9631,3.9579,3.9511,3.9458,3.9322,3.9184,3.9115,3.9046,3.8892,3.8822,3.8421,3.7907,3.7464,3.7404,3.7404,3.7404,3.7404,3.7404,3.7404,3.7404,3.7569,3.7943,3.7958,3.8272,3.8945,3.896,3.911,3.9424,3.9424,3.9177,3.8782,3.8782,3.8159,3.6858,3.5642,3.4855,3.4314,3.3496,3.3081,3.3081,3.3081,3.3081,3.3081,3.3081,3.3081,3.3081,3.3081,3.3081,3.3081]}]]